[[{"header":{"parameterUnit":"m.s-1","parameterCategory":1,"la1":30.6,"la2":28.766,"lo1":-90.7593,"lo2":-88.6598,"dy":0.0162,"dx":0.0183,"nx":116,"ny":114,"refTime":"2023-11-06T06:00:00:Z","depth":0,"parameterNumber":2,"parameterNumberName":"U-component_of_WINDS"},"data":[0.0,0.0,0.0,0.0,0.0,0.0,0.0,0.0,0.0,0.0,0.0,0.0,0.0,0.0,0.0,0.0,0.0,0.0,0.0,0.0,0.0,0.0,0.0,0.0,0.0,0.0,0.0,0.0,0.0,0.0,0.0,0.0,0.0,0.0,0.0,0.0,0.0,0.0,0.0,0.0,0.0,0.0,0.0,0.0,0.0,0.0,0.0,0.0,0.0,0.0,0.0,0.0,0.0,0.0,0.0,0.0,0.0,0.0,0.0,0.0,0.0,0.0,0.0,0.0,0.0,0.0,0.0,0.0,0.0,0.0,0.0,0.0,0.0,0.0,0.0,0.0,0.0,0.0,0.0,0.0,0.0,0.0,0.0,0.0,0.0,0.0,0.0,0.0,0.0,0.0,0.0,0.0,0.0,0.0,0.0,0.0,0.0,0.0,0.0,0.0,0.0,0.0,0.0,0.0,0.0,0.0,0.0,0.0,0.0,0.0,0.0,0.0,0.0,0.0,0.0,0.0,0.0,0.0,0.0,0.0,0.0,0.0,0.0,0.0,0.0,0.0,0.0,0.0,0.0,0.0,0.0,0.0,0.0,0.0,0.0,0.0,0.0,0.0,0.0,0.0,0.0,0.0,0.0,0.0,0.0,0.0,0.0,0.0,0.0,0.0,0.0,0.0,0.0,0.0,0.0,0.0,0.0,0.0,0.0,0.0,0.0,0.0,0.0,0.0,0.0,0.0,0.0,0.0,0.0,0.0,0.0,0.0,0.0,0.0,0.0,0.0,0.0,0.0,0.0,0.0,0.0,0.0,0.0,0.0,0.0,0.0,0.0,0.0,0.0,0.0,0.0,0.0,0.0,0.0,0.0,0.0,0.0,0.0,0.0,0.0,0.0,0.0,0.0,0.0,0.0,0.0,0.0,0.0,0.0,0.0,0.0,0.0,0.0,0.0,0.0,0.0,0.0,0.0,0.0,0.0,0.0,0.0,0.0,0.0,0.0,0.0,0.0,0.0,0.0,0.0,0.0,0.0,0.0,0.0,0.0,0.0,0.0,0.0,0.0,0.0,0.0,0.0,0.0,0.0,0.0,0.0,0.0,0.0,0.0,0.0,0.0,0.0,0.0,0.0,0.0,0.0,0.0,0.0,0.0,0.0,0.0,0.0,0.0,0.0,0.0,0.0,0.0,0.0,0.0,0.0,0.0,0.0,0.0,0.0,0.0,0.0,0.0,0.0,0.0,0.0,0.0,0.0,0.0,0.0,0.0,0.0,0.0,0.0,0.0,0.0,0.0,0.0,0.0,0.0,0.0,0.0,0.0,0.0,0.0,0.0,0.0,0.0,0.0,0.0,0.0,0.0,0.0,0.0,0.0,0.0,0.0,0.0,0.0,0.0,0.0,0.0,0.0,0.0,0.0,0.0,0.0,0.0,0.0,0.0,0.0,0.0,0.0,0.0,0.0,0.0,0.0,0.0,0.0,0.0,0.0,0.0,0.0,0.0,0.0,0.0,0.0,0.0,0.0,0.0,0.0,0.0,0.0,0.0,0.0,0.0,0.0,0.0,0.0,0.0,0.0,0.0,0.0,0.0,0.0,0.0,0.0,0.0,0.0,0.0,0.0,0.0,0.0,0.0,0.0,0.0,0.0,0.0,0.0,0.0,0.0,0.0,0.0,0.0,0.0,0.0,0.0,0.0,0.0,0.0,0.0,0.0,0.0,0.0,0.0,0.0,0.0,0.0,0.0,0.0,0.0,0.0,0.0,0.0,0.0,0.0,0.0,0.0,0.0,0.0,0.0,0.0,0.0,0.0,0.0,0.0,0.0,0.0,0.0,0.0,0.0,0.0,0.0,0.0,0.0,0.0,0.0,0.0,0.0,0.0,0.0,0.0,0.0,0.0,0.0,0.0,0.0,0.0,0.0,0.0,0.0,0.0,0.0,0.0,0.0,0.0,0.0,0.0,0.0,0.0,0.0,0.0,0.0,0.0,0.0,0.0,0.0,0.0,0.0,0.0,0.0,0.0,0.0,0.0,0.0,0.0,0.0,0.0,0.0,0.0,0.0,0.0,0.0,0.0,0.0,0.0,0.0,0.0,0.0,0.0,0.0,0.0,0.0,0.0,0.0,0.0,0.0,0.0,0.0,0.0,0.0,0.0,0.0,0.0,0.0,0.0,0.0,0.0,0.0,0.0,0.0,0.0,0.0,0.0,0.0,0.0,0.0,0.0,0.0,0.0,0.0,0.0,0.0,0.0,0.0,0.0,0.0,0.0,0.0,0.0,0.0,0.0,0.0,0.0,0.0,0.0,0.0,0.0,0.0,0.0,0.0,0.0,0.0,0.0,0.0,0.0,0.0,0.0,0.0,0.0,0.0,0.0,0.0,0.0,0.0,0.0,0.0,0.0,0.0,0.0,0.0,0.0,0.0,0.0,0.0,0.0,0.0,0.0,0.0,0.0,0.0,0.0,0.0,0.0,0.0,0.0,0.0,0.0,0.0,0.0,0.0,0.0,0.0,0.0,0.0,0.0,0.0,0.0,0.0,0.0,0.0,0.0,0.0,0.0,0.0,0.0,0.0,0.0,0.0,0.0,0.0,0.0,0.0,0.0,0.0,0.0,0.0,0.0,0.0,0.0,0.0,0.0,0.0,0.0,0.0,0.0,0.0,0.0,0.0,0.0,0.0,0.0,0.0,0.0,0.0,0.0,0.0,0.0,0.0,0.0,0.0,0.0,0.0,0.0,0.0,0.0,0.0,0.0,0.0,0.0,0.0,0.0,0.0,0.0,0.0,0.0,0.0,0.0,0.0,0.0,0.0,0.0,0.0,0.0,0.0,0.0,0.0,0.0,0.0,0.0,0.0,0.0,0.0,0.0,0.0,0.0,0.0,0.0,0.0,0.0,0.0,0.0,0.0,0.0,0.0,0.0,0.0,0.0,0.0,0.0,0.0,0.0,0.0,0.0,0.0,0.0,0.0,0.0,0.0,0.0,0.0,0.0,0.0,0.0,0.0,0.0,0.0,0.0,0.0,0.0,0.0,0.0,0.0,0.0,0.0,0.0,0.0,0.0,0.0,0.0,0.0,0.0,0.0,0.0,0.0,0.0,0.0,0.0,0.0,0.0,0.0,0.0,0.0,0.0,0.0,0.0,0.0,0.0,0.0,0.0,0.0,0.0,0.0,0.0,0.0,0.0,0.0,0.0,0.0,0.0,0.0,0.0,0.0,0.0,0.0,0.0,0.0,0.0,0.0,0.0,0.0,0.0,0.0,0.0,0.0,0.0,0.0,0.0,0.0,0.0,0.0,0.0,0.0,0.0,0.0,0.0,0.0,0.0,0.0,0.0,0.0,0.0,0.0,0.0,0.0,0.0,0.0,0.0,0.0,0.0,0.0,0.0,0.0,0.0,0.0,0.0,0.0,0.0,0.0,0.0,0.0,0.0,0.0,0.0,0.0,0.0,0.0,0.0,0.0,0.0,0.0,0.0,0.0,0.0,0.0,0.0,0.0,0.0,0.0,0.0,0.0,0.0,0.0,0.0,0.0,0.0,0.0,0.0,0.0,0.0,0.0,0.0,0.0,0.0,0.0,0.0,0.0,0.0,0.0,0.0,0.0,0.0,0.0,0.0,0.0,0.0,0.0,0.0,0.0,0.0,0.0,0.0,0.0,0.0,0.0,0.0,0.0,0.0,0.0,0.0,0.0,0.0,0.0,0.0,0.0,0.0,0.0,0.0,0.0,0.0,0.0,0.0,0.0,0.0,0.0,0.0,0.0,0.0,0.0,0.0,0.0,0.0,0.0,0.0,0.0,0.0,0.0,0.0,0.0,0.0,0.0,0.0,0.0,0.0,0.0,0.0,0.0,0.0,0.0,0.0,0.0,0.0,0.0,0.0,0.0,0.0,0.0,0.0,0.0,0.0,0.0,0.0,0.0,0.0,0.0,0.0,0.0,0.0,0.0,0.0,0.0,0.0,0.0,0.0,0.0,0.0,0.0,0.0,0.0,0.0,0.0,0.0,0.0,0.0,0.0,0.0,0.0,0.0,0.0,0.0,0.0,0.0,0.0,0.0,0.0,0.0,0.0,0.0,0.0,0.0,0.0,0.0,0.0,0.0,0.0,0.0,0.0,0.0,0.0,0.0,0.0,0.0,0.0,0.0,0.0,0.0,0.0,0.0,0.0,0.0,0.0,0.0,0.0,0.0,0.0,0.0,0.0,0.0,0.0,0.0,0.0,0.0,0.0,0.0,0.0,0.0,0.0,0.0,0.0,0.0,0.0,0.0,0.0,0.0,0.0,0.0,0.0,0.0,0.0,0.0,0.0,0.0,0.0,0.0,0.0,0.0,0.0,0.0,0.0,0.0,0.0,0.0,0.0,0.0,0.0,0.0,0.0,0.0,0.0,0.0,0.0,0.0,0.0,0.0,0.0,0.0,0.0,0.0,0.0,0.0,0.0,0.0,0.0,0.0,0.0,0.0,0.0,0.0,0.0,0.0,0.0,0.0,0.0,0.0,0.0,0.0,0.0,0.0,0.0,0.0,0.0,0.0,0.0,0.0,0.0,0.0,0.0,0.0,0.0,0.0,0.0,0.0,0.0,0.0,0.0,0.0,0.0,0.0,0.0,0.0,0.0,0.0,0.0,0.0,0.0,0.0,0.0,0.0,0.0,0.0,0.0,0.0,0.0,0.0,0.0,0.0,0.0,0.0,0.0,0.0,0.0,0.0,0.0,0.0,0.0,0.0,0.0,0.0,0.0,0.0,0.0,0.0,0.0,0.0,0.0,0.0,0.0,0.0,0.0,0.0,0.0,0.0,0.0,0.0,0.0,0.0,0.0,0.0,0.0,0.0,0.0,0.0,0.0,0.0,0.0,0.0,0.0,0.0,0.0,0.0,0.0,0.0,0.0,0.0,0.0,0.0,0.0,0.0,0.0,0.0,0.0,0.0,0.0,0.0,0.0,0.0,0.0,0.0,0.0,0.0,0.0,0.0,0.0,0.0,0.0,0.0,0.0,0.0,0.0,0.0,0.0,0.0,0.0,0.0,0.0,0.0,0.0,0.0,0.0,0.0,0.0,0.0,0.0,0.0,0.0,0.0,0.0,0.0,0.0,0.0,0.0,0.0,0.0,0.0,0.0,0.0,0.0,0.0,0.0,0.0,0.0,0.0,0.0,0.0,0.0,0.0,0.0,0.0,0.0,0.0,0.0,0.0,0.0,0.0,0.0,0.0,0.0,0.0,0.0,0.0,0.0,0.0,0.0,0.0,0.0,0.0,0.0,0.0,0.0,0.0,0.0,0.0,0.0,0.0,0.0,0.0,0.0,0.0,0.0,0.0,0.0,0.0,0.0,0.0,0.0,0.0,0.0,0.0,0.0,0.0,0.0,0.0,0.0,0.0,0.0,0.0,0.0,0.0,0.0,0.0,0.0,0.0,0.0,0.0,0.0,0.0,0.0,0.0,0.0,0.0,0.0,0.0,0.0,0.0,0.0,0.0,0.0,0.0,0.0,0.0,0.0,0.0,0.0,0.0,0.0,0.0,0.0,0.0,0.0,0.0,0.0,0.0,0.0,0.0,0.0,0.0,0.0,0.0,0.0,0.0,0.0,0.0,0.0,0.0,0.0,0.0,0.0,0.0,0.0,0.0,0.0,0.0,0.0,0.0,0.0,0.0,0.0,0.0,0.0,0.0,0.0,0.0,0.0,0.0,0.0,0.0,0.0,0.0,0.0,0.0,0.0,0.0,0.0,0.0,0.0,0.0,0.0,0.0,0.0,0.0,0.0,0.0,0.0,0.0,0.0,0.0,0.0,0.0,0.0,0.0,0.0,0.0,0.0,0.0,0.0,0.0,0.0,0.0,0.0,0.0,0.0,0.0,0.0,0.0,0.0,0.0,0.0,0.0,0.0,0.0,0.0,0.0,0.0,0.0,0.0,0.0,0.0,0.0,0.0,0.0,0.0,0.0,0.0,0.0,0.0,0.0,0.0,0.0,0.0,0.0,0.0,0.0,0.0,0.0,0.0,0.0,0.0,0.0,0.0,0.0,0.0,0.0,0.0,0.0,0.0,0.0,0.0,0.0,0.0,0.0,0.0,0.0,0.0,0.0,0.0,0.0,-4.0081,0.0,0.0,0.0,0.0,0.0,0.0,0.0,0.0,0.0,0.0,0.0,0.0,0.0,0.0,0.0,0.0,0.0,0.0,0.0,0.0,0.0,0.0,0.0,0.0,0.0,0.0,0.0,0.0,0.0,0.0,0.0,0.0,0.0,0.0,0.0,0.0,0.0,0.0,0.0,-1.6524,-1.7518,-1.8893,-1.8876,-1.9897,-2.1729,0.0,0.0,0.0,0.0,0.0,0.0,0.0,0.0,0.0,0.0,0.0,0.0,0.0,0.0,0.0,0.0,0.0,0.0,0.0,0.0,0.0,0.0,0.0,0.0,0.0,0.0,0.0,0.0,0.0,0.0,0.0,0.0,0.0,0.0,0.0,0.0,0.0,0.0,0.0,0.0,0.0,0.0,0.0,0.0,0.0,0.0,0.0,0.0,0.0,0.0,0.0,0.0,0.0,0.0,0.0,0.0,0.0,0.0,0.0,0.0,0.0,0.0,0.0,0.0,0.0,0.0,0.0,0.0,0.0,0.0,0.0,-4.0023,0.0,0.0,0.0,0.0,0.0,0.0,0.0,0.0,0.0,0.0,0.0,0.0,0.0,0.0,0.0,0.0,0.0,0.0,0.0,0.0,0.0,0.0,0.0,0.0,0.0,0.0,0.0,0.0,0.0,0.0,0.0,0.0,0.0,0.0,0.0,0.0,0.0,0.0,-1.6697,-1.7592,-1.9072,-2.0309,-2.1171,-2.1744,-2.2889,0.0,0.0,0.0,0.0,0.0,0.0,0.0,0.0,0.0,0.0,0.0,0.0,0.0,0.0,0.0,0.0,0.0,0.0,0.0,0.0,0.0,0.0,0.0,0.0,0.0,0.0,0.0,0.0,0.0,0.0,0.0,0.0,0.0,0.0,0.0,0.0,0.0,0.0,0.0,0.0,0.0,0.0,0.0,0.0,0.0,0.0,0.0,0.0,0.0,0.0,0.0,0.0,0.0,0.0,0.0,0.0,0.0,0.0,0.0,0.0,0.0,0.0,0.0,-3.8946,-3.8833,-3.9022,-3.8803,-3.8815,-3.9049,-3.932,-3.9698,-4.0101,-4.0101,0.0,0.0,0.0,0.0,0.0,0.0,0.0,0.0,0.0,0.0,0.0,0.0,0.0,0.0,0.0,0.0,0.0,0.0,0.0,0.0,0.0,0.0,-0.1262,-0.1995,-0.2788,0.0,0.0,0.0,0.0,0.0,0.0,0.0,0.0,-1.4049,-1.566,-1.6405,-1.7872,-1.8916,-1.9614,-2.0957,-2.162,-2.1744,-2.2889,-2.4072,-2.5262,0.0,0.0,0.0,0.0,0.0,0.0,0.0,0.0,0.0,0.0,0.0,0.0,0.0,0.0,0.0,0.0,0.0,0.0,0.0,0.0,0.0,0.0,0.0,0.0,0.0,0.0,0.0,0.0,0.0,0.0,0.0,0.0,0.0,0.0,0.0,0.0,0.0,0.0,0.0,0.0,0.0,-3.4111,-3.3876,0.0,0.0,0.0,0.0,0.0,0.0,0.0,0.0,0.0,0.0,0.0,0.0,0.0,-3.7399,-3.7602,-3.8247,-3.867,-3.8822,-3.8735,-3.8719,-3.8747,-3.8723,-3.8719,-3.8747,-3.8807,0.0,-4.0101,-4.0101,0.0,0.0,0.0,0.0,0.0,0.0,0.0,0.0,0.0,0.0,0.0,0.0,0.0,0.0,0.0,0.0,0.0,0.0,0.0,0.0,0.0,0.0,-0.2189,-0.334,-0.4138,-0.5061,0.0,0.0,0.0,0.0,0.0,0.0,-1.333,-1.4811,-1.6148,-1.7364,-1.8693,-1.9653,-2.0288,-2.1246,-2.1889,-2.2304,-2.3442,-2.4271,-2.4816,-2.5806,0.0,0.0,0.0,0.0,0.0,0.0,0.0,0.0,0.0,0.0,0.0,0.0,0.0,0.0,0.0,0.0,0.0,0.0,0.0,0.0,0.0,0.0,0.0,0.0,0.0,0.0,0.0,0.0,0.0,0.0,0.0,0.0,0.0,0.0,0.0,0.0,0.0,0.0,0.0,-3.5477,-3.5343,-3.523,-3.5302,-3.5329,0.0,0.0,0.0,0.0,0.0,0.0,0.0,0.0,0.0,-3.6617,-3.7201,-3.7731,-3.8175,-3.8524,-3.8707,-3.8707,-3.8707,-3.8707,-3.8707,-3.8707,-3.8707,-3.8707,-3.8707,-3.9008,-3.9541,-3.9541,-3.9724,-4.0014,0.0,0.0,0.0,0.0,-4.02,-4.0109,0.0,0.0,0.0,0.0,0.0,0.0,0.0,0.0,0.0,0.0,0.0,0.0,-0.1254,-0.2207,-0.3272,-0.4556,-0.5348,-0.6237,-0.7264,0.0,0.0,0.0,0.0,-1.2584,-1.4443,-1.5475,-1.6824,-1.8503,-1.9295,-2.0034,-2.0703,-2.1395,-2.2074,-2.2739,-2.3758,-2.4266,-2.4471,-2.5392,-2.6019,-2.637,0.0,0.0,0.0,0.0,0.0,0.0,0.0,0.0,0.0,0.0,0.0,0.0,0.0,0.0,0.0,0.0,0.0,0.0,0.0,0.0,0.0,0.0,0.0,0.0,0.0,0.0,0.0,0.0,0.0,0.0,0.0,0.0,0.0,0.0,0.0,0.0,0.0,-3.6436,-3.6303,-3.6303,-3.6303,-3.6303,0.0,0.0,0.0,0.0,0.0,0.0,-3.6413,-3.652,-3.6901,-3.758,-3.7744,-3.8083,-3.8689,-3.8707,-3.8707,-3.8707,-3.8707,-3.8707,-3.8707,-3.8707,-3.8707,-3.8707,-3.8707,-3.88,-3.9013,-3.9072,-3.9289,-3.9634,-3.9865,-3.9881,-3.9757,-4.0016,-4.0053,-3.9964,0.0,0.0,0.0,0.0,0.0,0.0,0.0,0.0,0.0,0.0,0.0,-0.1282,-0.205,-0.3429,-0.4594,-0.5385,-0.6114,-0.6585,0.0,0.0,-0.8257,-0.9702,-1.099,-1.2366,-1.3803,-1.6006,-1.7951,-1.9621,-1.9675,-2.0034,-2.0703,-2.1395,-2.2074,-2.2718,-2.3368,-2.3921,-2.443,-2.4992,-2.5542,-2.6033,-2.6033,0.0,0.0,0.0,0.0,0.0,0.0,0.0,0.0,0.0,0.0,0.0,0.0,0.0,0.0,0.0,0.0,0.0,0.0,0.0,0.0,0.0,0.0,0.0,0.0,0.0,0.0,0.0,0.0,0.0,0.0,0.0,0.0,0.0,0.0,0.0,0.0,0.0,0.0,-3.6303,-3.6303,0.0,0.0,0.0,0.0,-3.6303,-3.6303,-3.6401,-3.6665,-3.7155,-3.7567,-3.7872,-3.836,-3.867,-3.8707,-3.8707,-3.8707,-3.8707,-3.8707,-3.8707,-3.8707,-3.8707,-3.8707,-3.8707,-3.8707,-3.8707,-3.875,-3.8999,-3.9289,-3.9603,-3.961,-3.9814,-4.0081,-4.0096,-3.9903,-3.9629,0.0,0.0,0.0,0.0,0.0,0.0,0.0,0.0,0.0,-0.0168,-0.0782,-0.1754,-0.3429,-0.4515,-0.5585,-0.6821,-0.7576,-0.8389,-0.9255,0.0,-0.9829,-1.1692,-1.2173,-1.3363,-1.5421,-1.6608,-1.7688,-1.8664,-1.9365,-2.0094,-2.083,-2.1436,-2.2263,-2.3302,-2.349,-2.3724,-2.3921,-2.4471,-2.4992,-2.5521,-2.587,-2.6522,0.0,0.0,0.0,0.0,0.0,0.0,0.0,0.0,0.0,0.0,0.0,0.0,0.0,0.0,0.0,0.0,0.0,0.0,0.0,0.0,0.0,0.0,0.0,0.0,0.0,0.0,0.0,0.0,0.0,0.0,0.0,0.0,0.0,0.0,0.0,0.0,0.0,-3.7845,-3.7845,0.0,-3.7845,-3.7845,-3.7845,-3.7845,-3.7845,-3.7894,-3.7977,-3.8172,-3.8315,-3.8415,-3.8611,-3.8707,-3.8707,-3.8707,-3.8707,-3.8707,-3.8707,-3.8707,-3.8707,-3.8707,-3.8707,-3.8707,-3.8707,-3.8707,-3.8707,-3.8803,-3.8913,-3.9041,-3.9212,-3.9253,-3.922,-3.9391,-3.9381,-3.9286,0.0,0.0,0.0,0.0,0.0,0.0,0.0,0.0,0.0,-0.0894,-0.1312,-0.2308,-0.4529,-0.5423,-0.6462,-0.7955,-0.8513,-0.9169,-1.0057,0.0,-1.0744,-1.2145,-1.2812,-1.4333,-1.6922,-1.7131,-1.758,-1.8384,-1.927,-2.0104,-2.0905,-2.146,-2.2383,-2.3595,-2.3595,-2.3595,-2.3638,-2.4163,-2.4697,-2.524,-2.5781,-2.6522,-2.7317,0.0,0.0,0.0,0.0,0.0,0.0,0.0,0.0,0.0,0.0,0.0,0.0,0.0,0.0,0.0,0.0,0.0,0.0,0.0,0.0,0.0,0.0,0.0,0.0,0.0,0.0,0.0,0.0,0.0,0.0,0.0,0.0,0.0,0.0,0.0,-3.8707,-3.8707,-3.8707,-3.8707,-3.8707,-3.8546,-3.8433,-3.8433,-3.8285,-3.8185,-3.8185,-3.8334,-3.8433,-3.8433,-3.8611,-3.8707,-3.8707,-3.8707,-3.8707,-3.8707,-3.8707,-3.8707,-3.8707,-3.8707,-3.8707,-3.8707,-3.8707,-3.8707,-3.8707,-3.8707,-3.8707,-3.8726,-3.8888,-3.8906,-3.8862,-3.9036,-3.9102,-3.9091,0.0,0.0,0.0,0.0,0.0,0.0,0.0,0.0,0.0,-0.095,-0.1758,-0.3053,-0.5283,-0.618,-0.7182,-0.8672,-0.8811,-0.8837,-0.8837,-1.0048,0.0,-1.0819,-1.2767,-1.5172,-1.7995,-1.7501,-1.7763,-1.8889,-1.9443,-2.0133,-2.0905,-2.1475,-2.2398,-2.3595,-2.3595,-2.3595,-2.3659,-2.4199,-2.4716,-2.5278,-2.5797,-2.6522,-2.7288,0.0,0.0,0.0,0.0,0.0,0.0,0.0,0.0,0.0,0.0,0.0,0.0,0.0,0.0,0.0,0.0,0.0,0.0,0.0,0.0,0.0,0.0,0.0,0.0,0.0,0.0,0.0,0.0,0.0,0.0,0.0,0.0,0.0,-3.8707,-3.8707,-3.8707,-3.8707,-3.8707,-3.8692,-3.8692,-3.82,-3.7893,-3.7876,-3.7451,-3.7209,-3.721,-3.7649,-3.7893,-3.7911,-3.8433,-3.8707,-3.8707,-3.8707,-3.8707,-3.8707,-3.8707,-3.8707,-3.8707,-3.8707,-3.8707,-3.8707,-3.8707,-3.8707,-3.8707,-3.8707,-3.8707,-3.8707,-3.8707,-3.8869,-3.9102,-3.9102,-3.9102,-3.905,0.0,0.0,0.0,0.0,0.0,0.0,0.0,0.0,0.0,-0.1703,-0.2063,-0.3249,-0.5995,-0.647,-0.7182,-0.8672,-0.9228,-0.9535,-0.9535,0.0,-1.049,-1.1424,-1.375,-1.5796,-1.7406,-1.7284,-1.7766,-1.8907,-1.9526,-2.021,-2.092,-2.1954,-2.2853,-2.3595,-2.3595,-2.3815,-2.422,-2.4752,-2.5297,-2.5781,-2.5943,-2.6367,-2.6975,0.0,0.0,0.0,0.0,0.0,0.0,0.0,0.0,0.0,0.0,0.0,0.0,0.0,0.0,0.0,0.0,0.0,0.0,0.0,0.0,0.0,0.0,0.0,0.0,0.0,0.0,0.0,0.0,0.0,0.0,0.0,0.0,-3.8707,-3.8707,-3.8707,-3.8707,-3.8707,-3.8707,-3.8546,-3.8167,-3.798,-3.7755,-3.7415,-3.7267,-3.7341,-3.7685,-3.7825,-3.8082,-3.8465,-3.8627,-3.8707,-3.8707,-3.8707,-3.8707,-3.8707,-3.8707,-3.8707,-3.8707,-3.8707,-3.8707,-3.8707,-3.8707,-3.8707,-3.8707,-3.8707,-3.8707,-3.8707,-3.8707,-3.8744,-3.8814,-3.8814,-3.8814,-3.8799,0.0,0.0,0.0,0.0,0.0,0.0,0.0,0.0,0.0,0.0,-0.2202,-0.3335,-0.6281,-0.6588,-0.7182,-0.8672,-0.9169,-0.9392,-0.9377,0.0,-1.143,-1.3243,-1.4975,-1.6397,-1.7551,-1.7794,-1.8243,-1.8896,-1.9807,-2.0458,-2.092,-2.2147,-2.3032,-2.3595,-2.3837,-2.4116,-2.445,-2.5221,-2.5707,-2.6031,-2.6209,-2.6453,-2.6809,-2.7776,-2.8749,-2.976,-3.1,-3.2162,-3.3164,-3.3634,0.0,0.0,0.0,0.0,0.0,0.0,0.0,0.0,0.0,0.0,0.0,0.0,0.0,0.0,0.0,0.0,0.0,0.0,0.0,0.0,0.0,0.0,0.0,0.0,-3.8707,-3.8707,-3.8707,-3.8707,-3.8707,-3.8707,-3.8496,-3.8251,-3.7929,-3.7506,-3.7249,-3.7192,-3.6786,-3.6845,-3.7578,-3.7614,-3.7843,-3.835,-3.8578,-3.8707,-3.8707,-3.8707,-3.8707,-3.8707,-3.8707,-3.8707,-3.8707,-3.8707,-3.8707,-3.8707,-3.8707,-3.8707,-3.8707,-3.8707,-3.8707,0.0,0.0,0.0,0.0,0.0,-3.8707,-3.8707,0.0,0.0,0.0,0.0,0.0,0.0,0.0,0.0,0.0,0.0,0.0,-0.3279,-0.6172,-0.6561,-0.7155,-0.8553,-0.8811,-0.898,0.0,-1.0885,-1.2988,-1.5375,-1.6203,-1.706,-1.8072,-1.8636,-1.896,-1.9098,-2.0186,-2.0848,-2.1139,-2.2272,-2.3092,-2.3616,-2.4158,-2.443,-2.4572,-2.5577,-2.6031,-2.612,-2.6623,-2.6826,-2.6911,-2.7638,-2.8953,-3.0397,-3.0765,-3.2121,-3.3694,-3.3361,0.0,0.0,0.0,0.0,0.0,0.0,0.0,0.0,0.0,0.0,0.0,0.0,0.0,0.0,0.0,0.0,0.0,0.0,0.0,0.0,0.0,0.0,0.0,0.0,-3.8707,-3.8707,-3.8707,-3.8707,-3.8707,-3.8707,-3.8234,-3.7876,-3.7825,-3.702,-3.6643,-3.6981,-3.6249,-3.6207,-3.7135,0.0,0.0,0.0,0.0,-3.8707,-3.8707,-3.8707,-3.8707,-3.8707,-3.8707,-3.8707,-3.8707,-3.8707,-3.8707,-3.8707,-3.8707,-3.8707,-3.8707,-3.8707,-3.8707,-3.8707,-3.8707,-3.8707,-3.8707,-3.8707,-3.8707,-3.8707,0.0,0.0,0.0,0.0,0.0,0.0,0.0,0.0,0.0,-0.1111,-0.1836,-0.3086,-0.5456,-0.6253,-0.695,-0.7844,-0.8956,-1.0034,-1.1072,-1.2493,-1.3762,-1.4758,-1.6717,-1.7862,-1.8104,-1.8636,-1.9394,-2.0356,-2.07,-2.1375,-2.2364,-2.3074,-2.349,-2.3616,-2.4158,-2.4652,-2.5086,-2.5726,-2.6227,-2.6623,-2.7299,-2.7587,-2.7672,-2.8467,-2.9539,-3.0766,-3.1789,-3.265,-3.3346,-3.3592,-3.3734,-3.3807,-3.3807,0.0,0.0,0.0,0.0,0.0,0.0,0.0,0.0,0.0,0.0,0.0,0.0,0.0,0.0,0.0,0.0,0.0,0.0,0.0,0.0,-3.8707,-3.8707,-3.8707,-3.8707,-3.8707,-3.8707,-3.8707,-3.8234,-3.7755,-3.736,-3.7154,-3.6744,-3.5968,-3.6522,-3.6981,-3.7173,-3.7559,-3.8003,-3.853,-3.8643,-3.8707,-3.8707,-3.8707,-3.8707,-3.8707,0.0,0.0,-3.8707,-3.8707,-3.8707,-3.8707,-3.8707,-3.8707,-3.8707,-3.8707,-3.8707,-3.8707,-3.8707,-3.8707,-3.8707,-3.8707,-3.8707,-3.8707,0.0,0.0,0.0,0.0,0.0,0.0,0.0,0.0,0.0,0.0,-0.1756,-0.2892,-0.4761,-0.562,-0.6352,-0.709,-0.8434,-1.0217,-1.2552,-1.3324,-1.425,-1.5492,-1.72,-1.8092,-1.8104,-1.8891,-1.9764,-2.07,-2.1107,-2.1786,-2.2703,-2.331,-2.373,-2.4012,-2.4287,-2.4851,-2.5615,-2.5888,-2.6279,-2.6759,-2.7503,-2.8043,-2.8484,-2.9262,-3.0033,-3.082,-3.1795,-3.2598,-3.3229,-3.3419,-3.362,-3.3862,-3.427,-3.5086,-3.6086,0.0,0.0,0.0,0.0,0.0,0.0,0.0,0.0,0.0,0.0,0.0,0.0,0.0,0.0,-3.8855,0.0,0.0,-3.8707,-3.8707,-3.8707,-3.8707,-3.8707,-3.8465,-3.83,-3.83,-3.786,-3.736,-3.6862,-3.6563,-3.6291,-3.6028,-3.6249,-3.6634,-3.7164,-3.7411,-3.7775,-3.8282,-3.8563,-3.8707,-3.8707,-3.8707,-3.8707,-3.8707,-3.8707,-3.8707,-3.8707,-3.8707,-3.8707,-3.8707,-3.8707,-3.8707,-3.8707,-3.8707,-3.8707,-3.8707,-3.8707,-3.8707,-3.8707,-3.8707,-3.8707,-3.8707,0.0,0.0,0.0,0.0,0.0,0.0,0.0,0.0,0.0,0.0,-0.1451,-0.2504,-0.3822,-0.4761,-0.576,0.0,-0.8164,-1.0259,-1.3474,-1.3813,-1.4713,-1.6568,-1.7583,-1.814,-1.8249,-1.9194,-2.0091,-2.0897,-2.1446,-2.2099,-2.2882,-2.337,-2.39,-2.441,-2.4511,-2.5105,-2.6013,-2.6103,-2.6433,-2.6979,-2.774,-2.8518,-2.9297,-3.0119,-3.0618,-3.1029,-3.1795,-3.2565,-3.3214,-3.3288,-3.3646,-3.4156,-3.4802,-3.5701,-3.6705,-3.7566,-3.839,0.0,0.0,0.0,0.0,0.0,0.0,0.0,0.0,0.0,-3.9346,-3.8822,-3.8707,-3.8707,-3.8707,-3.8707,-3.8707,-3.8707,-3.8707,-3.8707,-3.8707,-3.8251,-3.7877,-3.7772,-3.7341,-3.6865,-3.6437,-3.6028,-3.5898,-3.6224,-3.6045,-3.6246,-3.7004,-3.714,-3.7381,-3.7744,-3.8187,-3.8404,-3.8404,-3.8493,-3.853,-3.8563,-3.8637,-3.8707,-3.8707,-3.8707,-3.8707,-3.8707,-3.8707,-3.8707,-3.8707,-3.8707,-3.8707,-3.8707,-3.8707,-3.8707,-3.8707,-3.8707,-3.8707,-3.8707,0.0,0.0,0.0,0.0,0.0,0.0,0.0,0.0,0.0,0.0,0.0,0.0,0.0,0.0,0.0,-0.8244,-0.9143,-1.0764,-1.3522,-1.4272,-1.5358,-1.7132,-1.7782,-1.8324,-1.8789,-1.9403,-2.0318,-2.1595,-2.166,-2.2323,-2.349,-2.3565,-2.39,-2.443,-2.491,-2.543,-2.6031,-2.6436,-2.7029,-2.7756,-2.8535,-2.9313,-3.0095,-3.119,-3.1649,-3.1811,-3.2709,-3.3105,-3.3258,-3.3606,-3.4243,-3.4876,-3.4968,-3.6101,-3.7382,-3.7515,0.0,-3.8859,-3.9432,-3.9599,-3.9599,-3.9599,-3.9401,-3.9186,0.0,0.0,-3.9063,-3.8762,-3.8707,-3.8707,-3.8707,-3.8707,-3.8707,-3.8707,-3.8707,-3.8707,-3.8707,-3.8251,-3.7737,-3.7323,-3.6823,-3.6457,-3.6412,-3.635,-3.6139,-3.5717,-3.6519,-3.6855,-3.6501,-3.6949,-3.7223,-3.7277,-3.7348,-3.7366,-3.7366,-3.7793,-3.7992,-3.7992,-3.8475,-3.8707,-3.8707,-3.8707,-3.8707,-3.8707,-3.8707,-3.8707,-3.8707,-3.8707,-3.8707,-3.8707,-3.8707,-3.8707,-3.8707,-3.8707,-3.8707,-3.8707,0.0,0.0,0.0,0.0,0.0,0.0,0.0,0.0,0.0,0.0,0.0,0.0,0.0,0.0,0.0,-0.8397,-0.8969,-1.0595,-1.4066,-1.4541,-1.5492,-1.7235,-1.7821,-1.8347,-1.8887,-1.9804,-2.0755,-2.1693,-2.2085,-2.2742,-2.3595,-2.3595,-2.4053,-2.4871,-2.4756,-2.5357,-2.6435,-2.6782,-2.7274,-2.7908,-2.9144,-2.982,-3.0251,-3.1672,-3.2213,-3.2281,-3.2968,-3.3199,0.0,0.0,-3.4325,-3.5096,-3.5591,-3.656,-3.7584,-3.8046,-3.8542,0.0,-3.9244,-3.9302,-3.9302,0.0,-3.9199,-3.9112,-3.9112,-3.9112,-3.9022,-3.8747,-3.8707,-3.8707,-3.8707,-3.8707,-3.8707,0.0,-3.8707,-3.8578,-3.8283,-3.7808,-3.7304,-3.6803,-3.6249,-3.5941,-3.5941,-3.5941,-3.5832,-3.5622,-3.6019,-3.6177,-3.5947,-3.6444,-3.6744,-3.6744,-3.7048,-3.7191,-3.7191,-3.7388,-3.7488,-3.7491,-3.7992,-3.8224,-3.8242,-3.8563,-3.8707,-3.8707,-3.8707,-3.8707,-3.8707,-3.8707,-3.8707,-3.8707,-3.8707,-3.8707,-3.8707,-3.8707,-3.8707,-3.8707,0.0,0.0,0.0,0.0,0.0,0.0,0.0,0.0,0.0,0.0,0.0,0.0,0.0,0.0,-0.4761,-0.8377,-0.8692,-1.0466,-1.466,-1.4914,-1.5706,-1.7433,-1.8023,-1.8491,-1.8891,-2.024,-2.1256,-2.1889,-2.2568,-2.3218,-2.3816,-2.3661,-2.4163,-2.5182,-2.4776,-2.5379,-2.6725,-2.7133,-2.7622,-2.8264,-2.9583,-3.0207,-3.0561,-3.1951,-3.2501,-3.2583,-3.3151,-3.3506,0.0,0.0,-3.4821,-3.5807,-3.6431,-3.7165,-3.7936,-3.8524,-3.8898,-3.9112,-3.9112,-3.9112,0.0,-3.9013,-3.8985,-3.8985,-3.8985,-3.8985,-3.8933,-3.875,-3.8707,-3.8707,-3.8707,-3.8707,-3.8707,-3.8707,-3.8707,-3.8562,-3.8183,-3.7685,-3.721,-3.6684,-3.6147,-3.5776,-3.5605,-3.56,-3.56,-3.56,-3.56,-3.56,-3.56,-3.596,-3.6197,-3.6197,-3.6576,-3.6757,-3.6757,-3.7046,-3.713,-3.6985,-3.761,-3.7846,-3.7723,-3.8099,-3.8368,-3.8475,-3.8475,-3.8563,-3.8707,-3.8707,-3.8707,-3.8707,-3.8707,-3.8707,-3.8707,-3.8707,-3.8707,-3.8707,0.0,0.0,0.0,0.0,0.0,0.0,0.0,0.0,0.0,0.0,0.0,0.0,0.0,0.0,-0.4761,-0.8377,-0.8692,-1.0625,-1.5189,-1.5471,-1.625,-1.8003,-1.8588,-1.8891,-1.8905,-2.0597,-2.1774,-2.238,-2.3058,-2.3711,-2.4349,-2.3853,-2.4163,-2.5202,-2.5182,-2.5746,-2.6742,-2.7468,-2.8246,-2.9027,-2.9786,-3.0531,-3.1257,-3.2161,-3.2501,-3.2616,-3.3476,0.0,-3.4954,-3.4954,-3.6064,-3.7437,-3.7456,-3.801,0.0,-3.8689,-3.8898,-3.9112,-3.9112,0.0,-3.9036,-3.8792,-3.8704,-3.8704,-3.8704,-3.8704,-3.8723,-3.8707,-3.8707,-3.8707,-3.8707,-3.8707,-3.8707,-3.8707,-3.8707,-3.8692,-3.8692,-3.8216,-3.7702,-3.7229,-3.6702,-3.6177,0.0,-3.56,-3.56,-3.56,-3.56,-3.56,-3.56,-3.5616,-3.5616,-3.5616,-3.5656,-3.5656,-3.5656,-3.6684,-3.6944,-3.6433,-3.7448,-3.7664,-3.7223,-3.7241,-3.7491,-3.7918,-3.7918,-3.8224,-3.8707,-3.8707,-3.8707,-3.8707,-3.8707,-3.8707,-3.8707,-3.8707,-3.8707,-3.8707,0.0,0.0,0.0,0.0,0.0,0.0,0.0,0.0,0.0,0.0,0.0,0.0,0.0,0.0,0.0,0.0,-0.8692,-1.0466,-1.4695,-1.5314,-1.6287,-1.8014,-1.8617,-1.9269,-2.0092,-2.1409,-2.2418,-2.3062,-2.4092,-2.4714,-2.4909,-2.4374,-2.4709,-2.5707,-2.5354,-2.6026,-2.7469,-2.8264,-2.9025,-2.9786,-3.0531,-3.097,-3.1308,-3.2179,-3.2501,-3.2669,0.0,0.0,-3.5004,-3.5004,-3.6119,-3.7492,-3.7492,-3.8046,-3.8735,-3.8909,-3.9022,-3.9112,-3.9112,0.0,-3.9036,-3.8777,-3.8707,-3.8707,-3.8707,-3.8707,-3.8707,-3.8707,-3.8707,-3.8707,-3.8707,-3.8707,-3.8707,-3.8707,-3.8399,-3.8167,-3.8167,-3.7755,-3.7248,-3.6724,-3.6519,0.0,0.0,0.0,0.0,-3.56,-3.56,-3.56,-3.56,-3.56,-3.56,-3.56,-3.56,-3.5763,-3.6124,-3.6486,-3.6582,-3.6399,-3.6738,-3.7012,-3.7204,-3.7204,-3.7294,-3.7444,-3.7439,-3.7705,-3.8135,-3.783,-3.7885,-3.8135,-3.783,-3.7885,-3.8169,-3.8169,-3.8386,-3.8707,0.0,0.0,0.0,0.0,0.0,0.0,0.0,0.0,0.0,0.0,0.0,0.0,0.0,0.0,0.0,0.0,0.0,-1.0569,-1.4977,-1.5584,-1.6558,-1.8314,-1.8901,-1.9671,-2.0676,-2.2002,-2.3106,-2.3966,-2.4996,-2.5492,-2.5475,-2.4939,-2.5157,-2.5995,-2.5929,-2.6587,-2.7874,-2.8941,-2.9746,-3.0388,-3.1121,-3.1507,-3.1732,-3.2467,-3.2923,0.0,0.0,-3.5371,-3.5885,-3.5885,-3.6798,-3.7933,-3.7933,-3.8285,-3.8747,-3.9022,-3.9036,-3.8971,-3.9072,-3.9036,-3.8923,-3.8732,-3.8707,-3.8707,-3.8707,-3.8707,-3.8707,-3.8707,-3.8707,-3.8707,-3.8707,-3.8707,-3.8707,-3.8707,-3.8399,-3.8183,-3.8183,-3.7751,-3.7256,-3.6766,-3.6512,-3.6187,0.0,0.0,0.0,-3.56,-3.56,-3.56,-3.56,-3.56,-3.56,-3.56,-3.56,-3.5853,-3.6395,-3.6409,-3.6394,-3.6399,-3.6395,-3.6486,-3.6627,-3.6627,-3.6718,-3.6898,-3.6913,-3.7184,-3.7632,-3.731,-3.7392,-3.7632,-3.7327,-3.7506,-3.79,-3.7897,-3.8242,-3.8707,0.0,0.0,0.0,0.0,0.0,0.0,0.0,0.0,0.0,0.0,0.0,0.0,0.0,0.0,0.0,0.0,0.0,0.0,-1.5935,-1.6331,-1.7142,-1.8833,-1.9403,-2.0047,-2.0775,-2.237,-2.3809,-2.5063,-2.5698,-2.6034,-2.6017,-2.5507,-2.5542,-2.6082,-2.6827,-2.7414,-2.7959,-2.9484,-3.0374,-3.082,-3.153,-3.2074,-3.255,-3.3083,0.0,0.0,0.0,-3.6156,-3.7492,-3.7492,-3.8028,-3.8707,-3.8707,-3.8707,-3.8747,-3.8994,-3.8894,-3.8747,-3.8994,-3.888,-3.8707,-3.8707,-3.8707,-3.8707,-3.8707,-3.8707,-3.8707,-3.8707,-3.8707,-3.8707,0.0,0.0,-3.8707,-3.8707,-3.8692,-3.8658,-3.8692,-3.8227,-3.7695,0.0,0.0,0.0,0.0,0.0,0.0,-3.56,0.0,-3.56,-3.56,-3.56,-3.56,-3.56,-3.56,-3.5853,-3.6395,-3.6399,-3.6399,-3.6393,-3.6372,-3.6107,-3.56,-3.56,-3.587,-3.6356,-3.6356,-3.6667,-3.7151,-3.713,-3.7128,-3.7154,-3.7137,-3.7427,-3.7858,-3.7858,-3.8224,-3.8707,0.0,0.0,0.0,0.0,0.0,0.0,0.0,0.0,0.0,0.0,0.0,0.0,0.0,0.0,0.0,0.0,0.0,0.0,-1.5448,-1.6873,-1.7978,-1.8873,-1.9403,-2.0418,-2.1934,-2.2772,-2.4048,-2.5749,-2.627,-2.6522,-2.6505,-2.6285,-2.6301,-2.6555,-2.7538,-2.8254,-2.8791,-3.002,-3.0922,-3.1548,0.0,-3.2074,-3.2621,0.0,0.0,0.0,0.0,0.0,0.0,0.0,0.0,0.0,0.0,-3.8707,-3.8704,-3.8773,-3.8747,-3.8704,-3.8773,-3.8747,-3.8707,-3.8707,-3.8707,-3.8707,-3.8707,-3.8707,-3.8707,-3.8707,-3.8707,-3.8707,0.0,0.0,0.0,-3.8707,-3.8366,0.0,-3.8643,-3.7945,0.0,-3.7202,0.0,-3.6182,-3.5647,-3.56,0.0,0.0,-3.56,-3.56,-3.56,-3.56,-3.56,-3.56,-3.56,-3.5853,-3.6395,-3.6392,-3.6404,-3.6413,-3.5998,-3.5746,-3.56,-3.56,-3.5673,-3.5797,-3.5797,-3.6124,-3.6564,-3.6169,-3.6242,-3.6576,-3.6158,-3.6576,-3.7369,-3.7375,-3.7937,-3.8707,0.0,0.0,0.0,0.0,0.0,0.0,0.0,0.0,0.0,0.0,0.0,0.0,0.0,0.0,0.0,0.0,0.0,0.0,0.0,-1.7196,-1.8366,-1.9205,-1.9822,-2.097,-2.2706,-2.3332,-2.4513,-2.632,-2.6556,-2.6691,-2.6708,-2.6786,-2.69,-2.7022,-2.8486,-2.9267,-2.9609,-3.0699,0.0,0.0,0.0,0.0,0.0,0.0,0.0,0.0,0.0,0.0,0.0,0.0,0.0,-3.8707,-3.8707,-3.8707,-3.8707,-3.8707,0.0,-3.8707,-3.8707,-3.8707,-3.8707,-3.8707,-3.8707,-3.8707,-3.8707,-3.8707,-3.8707,-3.8707,-3.8707,0.0,-3.8707,-3.8707,0.0,0.0,0.0,0.0,-3.8658,-3.7828,-3.7201,0.0,-3.6517,0.0,-3.5627,-3.56,-3.56,0.0,-3.56,-3.56,-3.56,-3.56,-3.56,-3.56,-3.56,-3.5746,-3.6051,-3.652,-3.6512,-3.6037,-3.5985,-3.5836,-3.56,-3.56,-3.56,-3.56,0.0,-3.5763,-3.6044,-3.5994,-3.6122,-3.6378,-3.6067,-3.6593,-3.7477,-3.7268,-3.7848,-3.8707,0.0,0.0,0.0,0.0,0.0,0.0,0.0,0.0,0.0,0.0,0.0,0.0,0.0,0.0,0.0,0.0,0.0,0.0,0.0,0.0,0.0,0.0,-2.0466,-2.1595,-2.3307,-2.3972,-2.5079,-2.6691,-2.6691,-2.6741,-2.6806,-2.7201,-2.7439,-2.7618,-2.9531,-3.0358,0.0,0.0,0.0,0.0,0.0,0.0,0.0,0.0,0.0,0.0,0.0,0.0,0.0,0.0,-3.8707,-3.8707,-3.8707,-3.8707,-3.8707,-3.8707,-3.8707,-3.8707,-3.8707,-3.8707,-3.8707,-3.8707,-3.8707,-3.8707,-3.8707,-3.8707,-3.8707,-3.8707,0.0,-3.8707,-3.8707,-3.8707,-3.8707,-3.8707,0.0,-3.8689,-3.86,-3.7793,-3.7161,-3.7097,-3.6214,-3.56,-3.56,-3.56,-3.56,-3.56,-3.56,-3.56,-3.56,-3.56,-3.56,-3.56,-3.56,-3.56,-3.56,-3.652,-3.652,-3.56,-3.6067,-3.6051,-3.56,-3.56,-3.56,-3.56,-3.5677,-3.5655,-3.5655,-3.6245,-3.6457,-3.6427,-3.6479,-3.708,-3.7858,-3.7446,-3.7885,-3.8707,0.0,0.0,0.0,0.0,0.0,0.0,0.0,0.0,0.0,0.0,-0.1478,0.0,0.0,0.0,0.0,0.0,0.0,0.0,0.0,0.0,0.0,0.0,-2.1067,-2.2209,-2.3981,-2.4555,-2.5464,-2.6691,-2.6691,-2.6883,-2.7204,-2.7612,-2.8155,-2.8856,-3.0469,-3.1191,-3.1239,-3.2046,0.0,0.0,0.0,0.0,0.0,0.0,0.0,0.0,0.0,0.0,0.0,0.0,-3.8707,-3.8707,-3.8707,-3.8707,-3.8707,-3.8707,-3.8707,-3.8707,-3.8707,-3.8707,-3.8707,-3.8707,-3.8707,-3.8707,-3.8707,-3.8707,0.0,0.0,-3.8707,-3.8707,-3.8707,-3.8707,-3.8707,-3.8707,-3.8707,-3.8563,-3.8099,-3.7561,-3.7036,0.0,-3.5977,-3.56,-3.56,-3.56,0.0,0.0,-3.56,-3.56,-3.56,-3.56,-3.56,-3.56,-3.56,-3.56,-3.56,-3.578,-3.578,-3.56,-3.569,-3.569,-3.56,-3.56,-3.56,-3.5627,-3.6065,0.0,-3.5672,-3.6656,-3.6791,-3.6436,-3.6882,-3.7403,-3.7875,-3.7804,-3.8169,-3.8707,0.0,0.0,0.0,0.0,0.0,0.0,0.0,0.0,0.0,-0.095,-0.173,-0.2613,0.0,0.0,0.0,0.0,0.0,0.0,0.0,0.0,0.0,0.0,0.0,0.0,0.0,-2.5067,-2.59,-2.6691,0.0,-2.711,-2.7321,-2.8312,-2.8979,-2.9437,-3.1232,-3.1901,-3.1762,-3.2534,-3.2999,-3.322,-3.34,-3.4108,0.0,0.0,0.0,0.0,0.0,0.0,0.0,0.0,-3.8707,-3.8707,-3.8707,-3.8707,-3.8707,-3.8707,-3.8707,-3.8707,-3.8707,-3.8707,-3.8707,-3.8707,-3.8707,-3.8707,-3.8707,0.0,0.0,0.0,-3.8707,-3.8707,-3.8707,-3.8707,0.0,-3.8331,-3.8279,-3.8099,-3.7616,-3.7111,0.0,-3.6422,-3.5943,-3.56,0.0,-3.56,-3.56,-3.56,-3.56,-3.56,-3.56,-3.56,-3.56,-3.56,-3.56,-3.56,-3.56,-3.56,-3.56,-3.56,-3.56,-3.56,-3.56,-3.56,-3.56,-3.5605,-3.5878,-3.583,-3.565,-3.646,-3.68,-3.6803,-3.6783,-3.7404,-3.8237,-3.7725,-3.8044,-3.8707,0.0,0.0,0.0,0.0,0.0,0.0,0.0,0.0699,-0.0504,-0.1229,-0.1981,-0.3377,-0.5846,-0.7664,-0.9518,0.0,0.0,0.0,0.0,0.0,0.0,0.0,0.0,0.0,0.0,0.0,0.0,-2.6691,-2.7012,0.0,0.0,0.0,0.0,0.0,-3.1624,-3.2242,-3.2154,-3.2772,-3.3124,0.0,0.0,-3.4682,0.0,0.0,0.0,0.0,0.0,0.0,0.0,0.0,-3.8707,-3.8707,-3.8707,-3.8707,-3.8707,-3.8707,-3.8707,-3.8707,-3.8707,-3.8707,-3.8707,-3.8707,-3.8707,-3.8707,-3.8707,-3.8707,0.0,0.0,-3.8707,-3.8707,-3.8707,-3.8707,-3.8563,0.0,-3.7976,-3.7746,-3.7263,-3.6753,-3.6356,0.0,-3.5853,0.0,-3.56,-3.56,0.0,-3.56,-3.56,-3.56,-3.56,-3.56,-3.56,-3.56,-3.56,-3.56,-3.56,-3.56,-3.56,-3.56,-3.56,-3.56,-3.56,-3.56,-3.56,-3.56,-3.5717,-3.5694,-3.5667,-3.6291,-3.6756,-3.6999,-3.6699,-3.736,-3.8424,-3.7635,-3.7918,-3.8707,0.0,0.0,0.0,0.0,0.0,0.0,0.0,-0.0056,-0.1257,-0.2009,-0.2788,-0.458,-0.8026,-0.8567,-0.9508,0.0,0.0,0.0,0.0,0.0,0.0,0.0,0.0,0.0,0.0,0.0,0.0,-2.6691,-2.6742,0.0,0.0,0.0,0.0,0.0,0.0,-3.1802,-3.2458,-3.254,0.0,0.0,0.0,0.0,0.0,0.0,0.0,0.0,0.0,0.0,0.0,0.0,0.0,-3.8707,-3.8707,-3.8707,-3.8707,-3.8707,0.0,0.0,-3.8707,-3.8707,-3.8707,-3.8707,-3.8707,-3.8707,-3.8707,0.0,0.0,-3.8707,-3.8707,-3.8707,-3.8707,-3.8707,-3.8689,-3.8618,0.0,-3.7737,-3.7266,-3.6727,-3.6214,-3.5746,0.0,0.0,-3.56,-3.56,-3.56,-3.56,-3.56,-3.56,-3.56,-3.56,-3.56,-3.56,-3.56,-3.56,-3.56,-3.56,-3.56,-3.56,-3.56,-3.56,-3.56,-3.56,-3.56,-3.5622,-3.6118,-3.6054,0.0,-3.6686,-3.687,-3.6521,-3.6947,-3.747,-3.7961,-3.7872,-3.8206,-3.8707,0.0,0.0,0.0,0.0,0.0,0.0,0.0,-0.0446,-0.1535,-0.2702,-0.3874,-0.5658,-0.8409,-0.9786,-1.1317,0.0,0.0,0.0,0.0,0.0,0.0,0.0,0.0,0.0,0.0,0.0,-2.6691,-2.6691,-2.7385,0.0,0.0,0.0,0.0,0.0,0.0,-3.2472,-3.2516,-3.28,0.0,0.0,0.0,0.0,0.0,0.0,0.0,0.0,0.0,0.0,0.0,0.0,0.0,0.0,-3.8707,-3.8707,0.0,0.0,-3.8449,-3.858,-3.7965,-3.7998,-3.8216,-3.8216,-3.8216,-3.83,-3.8627,0.0,-3.8707,-3.8707,-3.8707,-3.8707,-3.8707,-3.8707,-3.8493,0.0,0.0,0.0,-3.6341,0.0,-3.5853,-3.5616,-3.56,0.0,0.0,0.0,-3.56,-3.56,-3.56,-3.56,-3.56,-3.56,-3.56,-3.56,-3.56,-3.56,-3.56,-3.56,-3.56,-3.56,-3.56,-3.56,-3.56,-3.56,-3.56,-3.5622,-3.5827,-3.5805,0.0,-3.6075,-3.6294,-3.6394,-3.629,-3.6929,-3.7858,-3.7572,-3.7992,-3.8707,0.0,0.0,0.0,0.0,0.0,0.0,-0.0223,-0.1143,-0.2284,-0.374,-0.4981,-0.6673,-0.9053,-1.088,-1.2842,-1.5051,0.0,0.0,0.0,0.0,0.0,0.0,0.0,0.0,0.0,0.0,-2.6809,-2.7029,-2.7844,-2.8459,0.0,0.0,-3.1069,-3.1317,0.0,0.0,0.0,0.0,0.0,0.0,0.0,0.0,0.0,0.0,0.0,0.0,0.0,0.0,0.0,0.0,0.0,0.0,0.0,0.0,0.0,0.0,-3.8283,-3.8318,-3.7614,-3.7542,-3.772,-3.7877,-3.7893,-3.8048,0.0,0.0,-3.8707,-3.8707,-3.8707,-3.8637,-3.8493,-3.8456,-3.8187,0.0,0.0,-3.6695,-3.5934,-3.569,-3.56,0.0,0.0,-3.56,0.0,-3.56,-3.56,-3.56,-3.56,-3.56,-3.56,-3.56,-3.56,-3.56,-3.56,-3.56,-3.56,-3.56,-3.56,-3.56,-3.56,-3.56,-3.56,-3.56,-3.56,-3.56,-3.56,-3.56,0.0,-3.56,-3.5836,-3.6124,-3.5763,-3.6356,-3.7425,-3.7089,-3.7598,-3.8456,0.0,0.0,0.0,0.0,0.0,0.0,0.0,-0.2343,-0.377,-0.5182,-0.6089,-0.7662,-1.0479,-1.1803,-1.3566,-1.6253,0.0,0.0,0.0,0.0,0.0,0.0,0.0,0.0,0.0,0.0,-2.7063,-2.7793,-2.7793,-2.8573,-3.0074,-3.009,-3.0491,-3.119,0.0,0.0,0.0,0.0,0.0,0.0,0.0,0.0,0.0,0.0,0.0,0.0,0.0,0.0,0.0,0.0,0.0,0.0,0.0,-3.8707,-3.8707,0.0,-3.8316,-3.7911,-3.7911,-3.756,-3.7323,-3.7772,-3.7893,-3.8048,0.0,-3.8707,-3.8707,-3.8707,-3.8707,-3.853,-3.801,-3.7918,-3.7741,-3.7293,0.0,0.0,-3.6395,-3.5943,0.0,0.0,0.0,-3.56,-3.56,-3.56,-3.56,-3.56,-3.56,0.0,-3.56,-3.56,-3.56,-3.56,-3.56,-3.56,-3.56,-3.56,-3.56,-3.56,-3.56,-3.56,-3.56,-3.56,-3.56,-3.56,-3.56,-3.56,0.0,-3.56,-3.56,-3.56,-3.56,-3.5943,-3.6412,-3.6411,-3.7043,-3.7918,0.0,0.0,0.0,0.0,0.0,0.0,0.0,-0.3417,-0.4587,-0.604,-0.7676,-0.9544,-1.1719,-1.3516,-1.5545,-1.8004,0.0,0.0,0.0,0.0,0.0,0.0,0.0,0.0,0.0,0.0,-2.7572,-2.7793,-2.8859,-2.9618,-3.0107,-3.0631,-3.0962,-3.1207,-3.1489,-3.1929,0.0,0.0,0.0,0.0,0.0,0.0,0.0,0.0,0.0,0.0,0.0,0.0,0.0,0.0,0.0,0.0,0.0,0.0,0.0,-3.8707,-3.8578,-3.8218,-3.7173,-3.7039,-3.7152,-3.6923,-3.6865,-3.7116,-3.7964,-3.8154,-3.8259,-3.863,-3.8404,-3.8099,-3.7937,-3.7634,-3.7252,-3.6735,-3.65,0.0,0.0,0.0,0.0,-3.56,-3.56,-3.56,0.0,0.0,-3.56,-3.56,-3.56,-3.56,-3.56,-3.56,-3.56,-3.56,-3.56,-3.56,-3.56,-3.56,-3.56,-3.56,-3.56,-3.56,-3.56,-3.56,-3.56,-3.56,-3.56,-3.56,-3.56,-3.56,-3.56,-3.56,-3.56,-3.5943,-3.6394,-3.6392,-3.7053,-3.7899,0.0,0.0,0.0,0.0,0.0,0.0,0.0,-0.435,-0.5487,-0.7334,-0.8964,-1.0757,-1.2828,-1.4862,-1.6972,-1.9182,0.0,0.0,0.0,0.0,0.0,0.0,0.0,0.0,0.0,-2.7216,-2.7981,-2.8314,-2.9513,-3.0247,-3.0544,-3.0999,-3.119,-3.1227,-3.1752,-3.227,0.0,0.0,0.0,0.0,0.0,0.0,-3.6416,0.0,0.0,0.0,0.0,0.0,0.0,0.0,0.0,0.0,0.0,0.0,0.0,0.0,-3.8135,-3.7912,-3.6962,-3.6803,-3.6823,-3.6478,-3.6395,0.0,-3.7667,-3.7754,-3.7788,-3.8277,-3.7992,-3.758,-3.7366,-3.7098,-3.6711,-3.6177,-3.6107,-3.5977,0.0,0.0,0.0,-3.56,0.0,0.0,0.0,-3.56,-3.56,-3.56,-3.56,-3.56,-3.56,-3.56,-3.56,-3.56,-3.56,-3.56,-3.56,-3.56,-3.56,-3.56,-3.56,-3.56,-3.56,-3.56,-3.56,-3.56,-3.56,-3.56,0.0,-3.56,-3.56,-3.56,-3.56,-3.5797,-3.6107,-3.6107,-3.6757,-3.765,0.0,0.0,0.0,0.0,0.0,0.0,0.0,0.0,0.0,0.0,-0.9984,-1.1457,-1.3934,-1.5886,-1.7855,0.0,0.0,0.0,0.0,0.0,0.0,0.0,0.0,0.0,0.0,-2.7324,-2.833,-2.9204,-2.9864,-3.0544,-3.119,-3.119,-3.1244,-3.1295,-3.199,-3.2361,-3.2559,-3.3963,-3.4979,-3.5627,-3.6139,-3.6333,0.0,0.0,0.0,0.0,0.0,0.0,0.0,0.0,0.0,0.0,0.0,0.0,0.0,0.0,0.0,0.0,0.0,-3.6783,-3.6374,0.0,0.0,0.0,-3.756,-3.747,0.0,-3.7742,-3.7468,-3.698,-3.6499,-3.6375,-3.6183,-3.5688,-3.56,-3.56,0.0,-3.56,0.0,0.0,-3.56,0.0,-3.56,-3.56,-3.56,-3.56,-3.56,-3.56,-3.56,-3.56,-3.56,-3.56,-3.56,-3.56,-3.56,-3.56,-3.56,-3.56,-3.56,-3.56,-3.56,-3.56,-3.56,0.0,-3.56,-3.56,-3.56,-3.56,-3.56,-3.56,-3.56,-3.56,-3.56,-3.56,-3.6288,-3.7197,0.0,0.0,0.0,0.0,0.0,0.0,0.0,0.0,0.0,0.0,-1.0958,-1.2769,-1.5955,-1.6732,-1.8151,0.0,0.0,0.0,0.0,0.0,0.0,0.0,0.0,0.0,0.0,-2.7938,-2.8993,-2.9204,-3.0387,-3.1033,-3.119,-3.119,-3.1506,-3.2066,-3.2206,-3.2934,-3.4035,-3.4958,-3.543,-3.5622,-3.5739,-3.5805,0.0,0.0,0.0,0.0,-3.5832,-3.5876,0.0,0.0,0.0,0.0,0.0,0.0,0.0,0.0,-3.7209,-3.7097,-3.6704,0.0,-3.6308,-3.5898,-3.5805,-3.5972,0.0,-3.6684,-3.6748,-3.7261,-3.695,-3.6551,-3.6426,-3.6067,-3.5753,-3.5621,-3.56,-3.56,-3.56,0.0,0.0,-3.56,-3.56,-3.56,-3.56,-3.56,-3.56,-3.56,-3.56,-3.56,-3.56,-3.56,-3.56,-3.56,-3.56,-3.56,-3.56,-3.56,-3.56,-3.56,-3.56,-3.56,-3.56,-3.56,-3.56,-3.56,-3.56,-3.56,-3.56,-3.56,-3.56,-3.56,-3.56,-3.56,-3.56,-3.56,-3.6288,-3.7197,0.0,0.0,0.0,0.0,0.0,0.0,0.0,0.0,0.0,0.0,0.0,0.0,0.0,0.0,0.0,0.0,0.0,0.0,0.0,0.0,0.0,0.0,0.0,0.0,-2.7146,-2.8506,-2.9362,-2.9708,-3.0718,-3.119,-3.1207,-3.156,-3.1918,-3.2328,-3.3012,-3.3946,-3.5043,-3.5419,-3.56,-3.56,-3.56,0.0,0.0,0.0,0.0,0.0,-3.56,-3.56,0.0,-3.5941,-3.6032,-3.6075,0.0,0.0,0.0,0.0,-3.646,-3.6399,-3.6118,-3.6197,-3.6267,-3.5744,-3.56,-3.5751,-3.6277,0.0,-3.619,0.0,0.0,0.0,-3.6034,-3.5797,-3.56,0.0,-3.56,0.0,0.0,0.0,-3.5493,-3.5166,-3.5403,-3.56,0.0,-3.56,-3.56,-3.56,-3.56,-3.56,-3.56,-3.56,-3.56,-3.56,-3.56,-3.56,-3.56,-3.56,-3.56,-3.56,-3.56,-3.56,-3.56,-3.56,-3.56,-3.56,-3.56,-3.56,-3.56,-3.56,-3.56,-3.56,-3.56,-3.56,-3.5616,-3.587,-3.6486,-3.7239,0.0,0.0,0.0,0.0,0.0,0.0,0.0,0.0,0.0,0.0,0.0,0.0,0.0,0.0,0.0,0.0,0.0,0.0,0.0,0.0,0.0,0.0,0.0,-2.6855,-2.8152,-2.8887,-2.9574,-3.029,-3.0911,-3.1261,-3.1385,-3.1998,-3.2428,-3.2712,-3.4052,-3.5026,-3.56,-3.56,-3.56,-3.56,-3.56,0.0,0.0,0.0,0.0,0.0,0.0,0.0,0.0,-3.56,-3.56,-3.56,-3.56,0.0,0.0,0.0,0.0,0.0,-3.56,-3.5925,-3.6177,-3.5705,-3.56,-3.5707,-3.6158,0.0,0.0,0.0,0.0,0.0,0.0,-3.56,0.0,0.0,0.0,0.0,-3.4824,-3.5247,-3.5392,-3.4818,-3.524,0.0,-3.56,-3.56,-3.56,-3.56,-3.56,-3.56,-3.56,-3.56,-3.56,-3.56,-3.56,-3.56,-3.56,-3.56,-3.56,-3.56,-3.56,-3.56,-3.56,-3.56,-3.56,-3.56,0.0,0.0,-3.56,-3.56,-3.56,-3.56,-3.56,-3.5667,-3.579,-3.6229,-3.6769,-3.7391,0.0,0.0,0.0,0.0,0.0,0.0,0.0,0.0,0.0,0.0,0.0,0.0,0.0,0.0,0.0,0.0,0.0,0.0,0.0,0.0,0.0,0.0,-2.6773,-2.6864,-2.7604,-2.8778,-2.9673,-3.0303,-3.0915,-3.1506,-3.2139,-3.2244,-3.2974,-3.4197,-3.506,-3.5493,-3.56,-3.56,-3.56,-3.56,-3.56,0.0,0.0,0.0,0.0,0.0,0.0,0.0,0.0,-3.56,-3.56,-3.56,-3.56,0.0,0.0,0.0,0.0,0.0,-3.56,-3.5655,-3.5705,-3.5605,-3.56,-3.5616,-3.569,0.0,0.0,0.0,0.0,0.0,0.0,-3.56,-3.56,0.0,0.0,-3.5566,0.0,0.0,-3.5577,-3.5463,0.0,-3.56,-3.56,-3.56,-3.56,-3.56,-3.56,-3.56,-3.56,-3.56,-3.56,-3.56,-3.56,-3.56,-3.56,-3.56,-3.56,-3.56,-3.56,-3.56,-3.56,-3.56,-3.56,-3.56,0.0,-3.56,-3.56,-3.56,-3.56,-3.56,-3.56,-3.5876,-3.6291,-3.6367,-3.6992,-3.7864,0.0,0.0,0.0,0.0,0.0,0.0,0.0,0.0,0.0,0.0,0.0,0.0,0.0,0.0,0.0,0.0,0.0,0.0,0.0,0.0,0.0,-2.7449,-2.727,-2.7573,-2.8514,-2.9419,-3.0024,-3.0291,-3.131,-3.1964,-3.2332,-3.3113,-3.4069,-3.5116,-3.5436,-3.56,-3.56,-3.56,-3.56,-3.56,0.0,0.0,0.0,0.0,0.0,0.0,0.0,0.0,0.0,0.0,-3.56,-3.56,-3.56,0.0,0.0,0.0,0.0,0.0,-3.56,-3.56,-3.56,-3.56,-3.56,-3.56,0.0,0.0,0.0,0.0,0.0,0.0,0.0,0.0,-3.56,-3.56,0.0,-3.5346,-3.4628,-3.4823,-3.4931,0.0,0.0,-3.5206,-3.5566,-3.56,-3.56,-3.56,-3.56,-3.56,-3.56,-3.56,-3.56,-3.56,-3.56,-3.56,-3.56,-3.56,-3.56,-3.56,-3.56,-3.56,-3.56,-3.56,-3.56,-3.56,0.0,-3.56,-3.56,-3.56,-3.56,-3.5644,-3.592,-3.6194,-3.6464,-3.7004,-3.7678,-3.8374,0.0,0.0,0.0,0.0,0.0,0.0,0.0,0.0,0.0,0.0,0.0,0.0,0.0,0.0,0.0,0.0,0.0,0.0,0.0,0.0,-2.6937,-2.7697,-2.7765,-2.8374,-2.9583,-2.9927,-3.0306,-3.0771,-3.1805,-3.2497,-3.2839,-3.416,-3.506,-3.56,-3.56,-3.56,-3.56,-3.56,-3.56,-3.56,0.0,0.0,0.0,0.0,0.0,0.0,0.0,0.0,0.0,0.0,0.0,0.0,0.0,0.0,0.0,-3.56,-3.56,-3.56,-3.56,-3.56,-3.56,-3.56,0.0,0.0,0.0,0.0,0.0,0.0,0.0,0.0,0.0,-3.56,0.0,-3.56,-3.5476,-3.5004,-3.3979,-3.427,-3.442,-3.3915,-3.4432,-3.5043,-3.5566,-3.56,-3.56,-3.56,-3.56,-3.56,-3.56,-3.56,-3.56,-3.56,-3.56,-3.56,-3.56,-3.56,-3.56,-3.56,-3.56,-3.56,-3.56,-3.56,-3.56,-3.56,-3.56,-3.56,-3.56,-3.56,-3.56,-3.565,-3.6203,-3.6533,-3.6847,-3.7749,-3.8349,-3.8707,0.0,0.0,0.0,0.0,0.0,0.0,0.0,0.0,0.0,0.0,0.0,0.0,0.0,0.0,0.0,0.0,0.0,0.0,0.0,0.0,-2.7148,-2.8373,-2.8443,-2.8998,-3.0206,-2.9721,-3.0341,-3.2156,-3.2244,-3.3002,-3.4343,-3.5138,-3.5566,-3.56,-3.56,-3.56,-3.56,-3.56,-3.56,-3.56,-3.56,0.0,0.0,0.0,0.0,0.0,0.0,0.0,0.0,0.0,0.0,0.0,0.0,0.0,-3.56,-3.56,-3.56,-3.56,-3.56,-3.56,-3.56,-3.56,-3.56,0.0,-3.56,-3.56,0.0,-3.56,0.0,0.0,0.0,-3.56,-3.56,-3.56,-3.5077,-3.4628,-3.4538,0.0,-3.4597,-3.4537,-3.5136,-3.5566,-3.56,-3.56,-3.56,-3.56,-3.56,-3.56,-3.56,-3.56,-3.56,-3.56,-3.56,-3.56,-3.56,-3.56,-3.56,-3.56,-3.56,-3.56,-3.56,-3.56,-3.56,-3.56,-3.56,-3.56,-3.56,-3.56,-3.56,-3.565,-3.6203,-3.6964,-3.7858,-3.8428,-3.8655,-3.8707,0.0,0.0,0.0,0.0,0.0,0.0,0.0,0.0,0.0,0.0,0.0,0.0,0.0,0.0,0.0,0.0,0.0,0.0,0.0,0.0,-2.7616,-2.8451,-2.8514,-2.9273,-3.0933,-3.0754,-3.1016,-3.1735,-3.3034,-3.4199,-3.5183,-3.5476,-3.56,-3.56,-3.56,-3.56,-3.56,-3.56,-3.56,-3.56,-3.56,-3.56,0.0,0.0,0.0,0.0,0.0,0.0,0.0,0.0,-3.56,-3.56,-3.56,-3.56,-3.56,-3.56,-3.56,-3.56,-3.56,-3.56,-3.56,-3.56,-3.56,0.0,0.0,-3.56,-3.56,-3.56,-3.56,0.0,0.0,0.0,-3.5329,-3.4482,-3.4482,-3.4442,-3.4026,-3.3985,-3.3973,-3.3968,-3.4208,-3.4522,-3.4941,-3.4968,-3.4987,-3.4981,-3.5362,-3.5407,-3.4988,-3.5362,-3.56,-3.56,-3.56,-3.56,-3.56,-3.56,-3.56,-3.56,-3.56,-3.56,-3.56,-3.56,-3.56,-3.56,-3.56,-3.56,-3.56,-3.56,-3.56,-3.5694,-3.6563,-3.7323,-3.7963,-3.8496,-3.8707,-3.8707,0.0,0.0,0.0,0.0,0.0,0.0,0.0,0.0,0.0,0.0,0.0,0.0,0.0,0.0,0.0,0.0,0.0,0.0,-2.6911,-2.7345,-2.7775,-2.8189,-2.8396,-2.9328,-3.1081,-3.1533,-3.1947,-3.2381,-3.4049,-3.5116,-3.56,-3.56,-3.56,-3.56,-3.56,-3.56,-3.56,-3.5362,-3.5407,-3.556,-3.5138,-3.5207,0.0,0.0,0.0,0.0,0.0,0.0,0.0,0.0,-3.56,-3.56,0.0,-3.56,-3.56,-3.56,-3.56,-3.56,-3.56,-3.56,-3.56,-3.56,0.0,0.0,-3.5329,-3.5296,-3.5296,-3.5296,-3.5296,-3.515,-3.4684,0.0,0.0,0.0,-3.382,-3.3822,-3.3354,-3.3277,-3.3284,-3.3297,-3.3461,-3.377,-3.4243,-3.4481,-3.4595,-3.4592,-3.523,-3.5385,-3.4941,-3.5362,-3.56,-3.56,-3.56,-3.56,-3.56,-3.56,-3.56,-3.56,-3.56,-3.56,-3.56,-3.56,-3.56,-3.56,-3.56,-3.56,-3.56,-3.56,-3.5694,-3.5941,-3.6845,-3.7488,-3.7963,-3.8496,-3.8707,-3.8707,0.0,0.0,0.0,0.0,0.0,0.0,0.0,0.0,0.0,0.0,0.0,0.0,0.0,0.0,0.0,0.0,0.0,0.0,-2.7555,-2.76,-2.76,-2.76,-2.8198,-2.9132,-3.0468,-3.1839,-3.3161,-3.4522,-3.524,-3.56,-3.56,-3.56,-3.56,-3.56,-3.56,-3.56,-3.5554,-3.4894,-3.4965,-3.547,-3.4137,-3.4399,-3.5515,0.0,0.0,0.0,0.0,0.0,0.0,0.0,-3.56,-3.56,0.0,0.0,0.0,-3.56,-3.56,-3.5583,-3.56,-3.56,-3.5583,0.0,0.0,0.0,-3.4734,-3.4605,-3.4605,-3.4589,-3.4611,-3.4611,-3.4566,-3.4046,0.0,-3.3584,-3.3035,-3.2591,-3.2591,-3.2599,-3.2595,-3.2595,-3.3182,-3.3591,-3.3591,-3.4202,-3.4595,-3.4592,-3.5207,-3.56,-3.56,-3.56,-3.56,-3.56,-3.56,-3.56,-3.56,-3.56,-3.56,-3.56,-3.56,-3.56,-3.56,-3.56,-3.56,-3.56,-3.56,-3.56,-3.56,-3.56,-3.592,-3.6437,-3.6999,-3.7488,-3.7963,-3.8496,-3.8707,-3.8707,0.0,0.0,0.0,0.0,0.0,0.0,0.0,0.0,0.0,0.0,0.0,0.0,0.0,0.0,0.0,0.0,0.0,0.0,-2.7585,-2.76,-2.76,-2.76,-2.9083,-3.0132,-3.0555,-3.2813,-3.4405,-3.5256,-3.5493,-3.56,-3.56,-3.56,-3.56,-3.56,-3.56,-3.5344,-3.4877,-3.4673,-3.4431,-3.4178,-3.3761,-3.3836,-3.4211,0.0,0.0,0.0,0.0,0.0,0.0,0.0,0.0,0.0,-3.56,0.0,-3.56,-3.56,-3.5256,-3.4987,-3.5476,-3.5256,0.0,-3.5493,0.0,0.0,0.0,-3.4275,0.0,0.0,-3.427,-3.4319,-3.3372,-3.3426,0.0,-3.2288,-3.2402,-3.2591,-3.2591,-3.2613,-3.2613,-3.2613,-3.2791,-3.2907,-3.2893,-3.3492,-3.391,-3.3887,-3.4958,-3.5385,-3.4918,-3.5339,-3.56,-3.56,-3.56,-3.56,-3.56,-3.56,-3.56,-3.56,-3.56,-3.56,-3.56,-3.56,-3.56,-3.56,-3.56,-3.56,-3.56,-3.56,-3.5694,-3.5941,-3.6845,-3.7303,-3.7506,-3.8385,-3.8707,-3.8781,0.0,0.0,0.0,0.0,0.0,0.0,0.0,0.0,0.0,0.0,-2.1176,-2.2445,0.0,0.0,0.0,0.0,0.0,0.0,0.0,-2.76,-2.7836,-2.8379,-2.9494,-3.049,-3.1345,-3.3478,-3.4806,-3.5206,-3.5476,-3.56,-3.5583,-3.5329,-3.5329,-3.5577,-3.5028,-3.4739,-3.4587,-3.4027,-3.3735,-3.3556,-3.2997,-3.3103,-3.3633,0.0,0.0,0.0,0.0,0.0,0.0,0.0,0.0,0.0,-3.56,0.0,-3.56,-3.56,-3.5313,-3.5092,-3.5498,-3.53,0.0,-3.5166,-3.4897,-3.4362,-3.3412,0.0,0.0,0.0,-3.3515,-3.3569,-3.2756,-3.271,0.0,-3.1643,-3.1865,-3.2161,-3.2161,-3.2161,-3.2161,-3.2161,-3.2161,-3.2167,-3.2164,-3.3029,-3.3582,-3.3582,-3.484,-3.5407,-3.5028,-3.5385,-3.56,-3.56,-3.56,-3.56,-3.56,-3.56,-3.56,-3.56,-3.56,-3.56,-3.56,-3.56,-3.56,-3.56,-3.56,-3.56,-3.56,-3.56,-3.5717,-3.5989,-3.6865,-3.7304,-3.7632,-3.8763,-3.9184,-3.9294,0.0,0.0,0.0,0.0,0.0,0.0,0.0,0.0,0.0,0.0,-2.2737,-2.4042,0.0,0.0,0.0,0.0,0.0,0.0,0.0,0.0,-2.8157,-2.9438,-2.9557,-3.0533,-3.2575,-3.3846,-3.4531,-3.4611,-3.5256,-3.5583,-3.5493,-3.488,-3.4874,-3.5364,-3.4136,-3.3908,-3.4347,-3.3118,-3.2922,-3.3313,-3.202,-3.2312,-3.3521,-3.3582,0.0,0.0,0.0,0.0,0.0,0.0,0.0,0.0,-3.56,-3.56,-3.5583,-3.5526,-3.5509,-3.5502,-3.5511,0.0,0.0,-3.4745,-3.4507,0.0,-3.2785,-3.2502,-3.2481,-3.2505,0.0,-3.2576,-3.2502,-3.1939,-3.1511,-3.1511,-3.1511,-3.1511,-3.1511,-3.1511,-3.1511,-3.1511,-3.1511,-3.1524,-3.1582,-3.2826,-3.3633,-3.3684,-3.4887,-3.56,-3.56,-3.56,-3.56,-3.56,-3.56,-3.56,-3.56,-3.56,-3.56,-3.56,-3.56,-3.56,-3.56,-3.56,-3.56,-3.56,-3.56,-3.56,-3.56,-3.565,-3.5963,-3.6457,-3.7057,-3.756,-3.8161,-3.9445,-3.9937,-4.012,0.0,0.0,0.0,0.0,0.0,0.0,0.0,0.0,0.0,0.0,0.0,0.0,0.0,0.0,0.0,0.0,0.0,0.0,0.0,0.0,-2.7961,-2.8773,-2.9766,-3.1249,-3.3307,-3.3666,-3.4053,-3.4611,-3.5256,-3.5329,-3.4807,-3.4684,-3.439,-3.4023,-3.3736,-3.3377,-3.3005,-3.2729,-3.2355,-3.1923,-3.1611,-3.2035,-3.2868,-3.3391,-3.4012,0.0,0.0,0.0,0.0,0.0,0.0,0.0,-3.56,-3.56,-3.5493,-3.497,-3.4807,-3.4824,-3.4814,-3.4835,0.0,0.0,-3.3815,-3.2804,-3.192,-3.1732,-3.1727,-3.1741,-3.2203,-3.2428,-3.185,-3.1599,-3.1511,-3.1511,-3.1511,-3.1511,-3.1511,-3.1511,-3.1511,-3.1511,-3.1511,-3.171,-3.2299,-3.3103,-3.3811,-3.4358,-3.5138,-3.56,-3.56,-3.56,-3.56,-3.56,-3.56,-3.56,-3.56,-3.56,-3.56,-3.56,-3.56,-3.56,-3.56,-3.56,-3.56,-3.56,-3.56,-3.56,-3.5627,-3.6054,-3.6308,-3.6498,-3.7415,-3.8203,-3.8937,-3.9646,-4.0304,-4.0965,0.0,0.0,0.0,0.0,0.0,0.0,0.0,0.0,0.0,0.0,0.0,0.0,0.0,0.0,0.0,0.0,0.0,0.0,0.0,0.0,-2.8508,-2.9472,-3.0778,-3.2013,-3.3098,-3.3448,-3.3761,-3.4125,-3.479,-3.4953,-3.4589,-3.4276,-3.3915,-3.356,-3.2891,-3.2601,-3.259,-3.2233,-3.1853,-3.1511,-3.1511,-3.171,-3.216,-3.2855,-3.3354,-3.3738,-3.4379,0.0,0.0,0.0,0.0,0.0,0.0,0.0,-3.4987,-3.4303,-3.4118,-3.419,-3.4512,0.0,0.0,-3.3718,0.0,-3.1983,-3.1584,-3.1511,-3.1511,-3.1511,-3.1806,-3.1954,-3.1569,-3.1511,-3.1511,-3.1511,-3.1511,-3.1511,-3.1511,-3.1511,-3.1511,-3.1511,-3.1511,-3.1796,-3.2547,-3.3224,-3.3887,-3.4552,-3.523,-3.56,-3.56,-3.56,-3.56,-3.56,-3.56,-3.56,-3.56,-3.56,-3.56,-3.56,-3.56,-3.56,-3.56,-3.56,-3.56,-3.56,-3.56,-3.5739,-3.5989,-3.627,-3.6684,-3.7209,-3.8115,-3.8897,-3.9607,-4.0645,-4.1313,-4.1791,0.0,0.0,0.0,0.0,0.0,0.0,0.0,0.0,0.0,0.0,0.0,0.0,0.0,0.0,0.0,0.0,0.0,0.0,0.0,0.0,0.0,-3.0453,-3.1732,-3.2517,-3.2784,-3.3209,-3.3534,-3.3768,-3.4217,-3.4365,-3.4228,-3.3681,-3.3366,-3.3188,-3.2013,-3.185,-3.2368,-3.1776,-3.1511,-3.1511,-3.1511,-3.1668,-3.1923,-3.2403,-3.2837,-3.3224,-3.4117,-3.4575,-3.4813,-3.5142,0.0,0.0,0.0,0.0,-3.4292,-3.3625,-3.3508,-3.3724,-3.4274,0.0,-3.3439,-3.2774,-3.2068,0.0,-3.1511,-3.1511,-3.1511,-3.1511,-3.1511,-3.1511,-3.1511,-3.1511,-3.1511,-3.1511,-3.1511,-3.1511,-3.1511,-3.1511,-3.1511,-3.1511,-3.1511,-3.1796,-3.2547,-3.3224,-3.3887,-3.4552,-3.523,-3.56,-3.56,-3.56,-3.56,-3.56,-3.56,-3.56,-3.56,-3.56,-3.56,-3.56,-3.56,-3.56,-3.56,-3.56,-3.56,-3.56,-3.56,-3.5898,-3.6395,-3.6498,-3.7167,-3.8181,-3.8936,-3.968,-4.0469,-4.1809,-4.2396,-4.2598,0.0,0.0,0.0,0.0,0.0,0.0,0.0,0.0,0.0,0.0,-2.5006,-2.5716,0.0,0.0,0.0,0.0,0.0,0.0,0.0,0.0,0.0,-3.0483,-3.1231,-3.222,-3.3456,-3.299,-3.33,-3.4466,-3.3973,-3.3441,-3.2862,-3.2778,-3.2384,-3.1776,-3.1584,-3.1569,-3.1643,-3.1525,-3.1511,-3.1511,-3.1511,-3.2228,-3.3266,-3.277,-3.3673,-3.5084,-3.409,-3.4471,-3.5301,-3.4225,-3.4253,0.0,0.0,0.0,-3.3591,-3.2921,-3.3144,-3.3633,0.0,0.0,-3.3456,0.0,-3.2031,-3.1511,0.0,0.0,-3.1511,0.0,-3.1511,-3.1511,-3.1511,-3.1511,-3.1511,-3.1511,-3.1511,-3.1511,-3.1511,-3.1511,-3.1511,-3.1511,-3.1511,-3.1796,-3.2547,-3.3224,-3.3887,-3.4552,-3.523,-3.56,-3.56,-3.56,-3.56,-3.56,-3.56,-3.56,-3.56,-3.56,-3.56,-3.56,-3.56,-3.56,-3.56,-3.56,-3.56,-3.56,-3.56,-3.5898,-3.6437,-3.6902,-3.7825,-3.901,-3.9581,-4.0677,-4.2011,-4.2213,-4.2745,-4.3368,0.0,0.0,0.0,0.0,0.0,0.0,0.0,0.0,0.0,0.0,0.0,-2.5674,0.0,0.0,0.0,0.0,0.0,0.0,0.0,0.0,0.0,-3.104,-3.1348,-3.1983,-3.3023,-3.2755,-3.2898,-3.3461,-3.3184,-3.2666,-3.1983,-3.1983,-3.1806,-3.1511,-3.1511,-3.1511,-3.1511,-3.1511,-3.1511,-3.1525,-3.1939,-3.2235,-3.2484,-3.2968,-3.3218,-3.3342,-3.3531,-3.3744,-3.3899,-3.3667,-3.381,-3.3994,-3.3682,0.0,0.0,0.0,-3.2804,0.0,-3.3045,-3.3045,-3.2861,0.0,-3.1751,-3.1511,-3.1511,0.0,-3.1511,-3.1511,-3.1511,-3.1511,-3.1511,-3.1511,-3.1511,-3.1511,-3.1511,-3.1511,-3.1511,-3.1511,-3.1511,-3.1511,-3.1511,-3.1796,-3.2547,-3.3224,-3.3887,-3.4552,-3.523,-3.56,-3.56,-3.56,-3.56,-3.56,-3.56,-3.56,-3.56,-3.56,-3.56,-3.56,-3.56,-3.56,-3.56,-3.56,-3.56,-3.56,-3.56,-3.6075,-3.6862,-3.7097,-3.8133,-3.9621,-4.0313,-4.1277,-4.2359,-4.28,-4.3185,-4.3515,0.0,0.0,0.0,0.0,0.0,0.0,0.0,0.0,0.0,0.0,0.0,0.0,0.0,0.0,0.0,0.0,0.0,0.0,0.0,0.0,0.0,-3.1496,-3.1511,-3.185,-3.2576,-3.2414,-3.2408,-3.2591,-3.2412,-3.2028,-3.1511,-3.1511,-3.1511,-3.1511,-3.1511,-3.1511,-3.1511,-3.1511,-3.1599,-3.1806,-3.2161,-3.2315,-3.2361,-3.3077,-3.3003,-3.2671,-3.354,-3.3514,-3.3187,0.0,-3.3741,-3.3606,-3.3606,-3.3157,0.0,0.0,0.0,0.0,0.0,0.0,-3.2412,-3.168,-3.1511,-3.1511,0.0,0.0,-3.1511,0.0,-3.1511,-3.1511,-3.1511,-3.1511,-3.1511,-3.1511,-3.1511,-3.1511,-3.1511,-3.1511,-3.1511,-3.1511,-3.1511,-3.1726,-3.2272,-3.3119,-3.3811,-3.4309,-3.5121,-3.56,-3.56,-3.56,-3.56,-3.56,-3.56,-3.56,-3.56,-3.56,-3.56,-3.56,-3.56,-3.56,-3.56,-3.56,-3.56,-3.56,-3.56,-3.6207,-3.7227,-3.7422,-3.8564,-4.0286,-4.1093,-4.1901,-4.2671,-4.3277,-4.3515,-4.3515,0.0,0.0,0.0,0.0,0.0,0.0,0.0,0.0,0.0,0.0,0.0,0.0,0.0,-2.674,-2.76,-2.76,0.0,0.0,0.0,0.0,0.0,-3.1511,-3.1511,0.0,-3.2576,-3.1905,-3.189,-3.2591,-3.1909,-3.1525,-3.1511,-3.1511,-3.1511,-3.1511,-3.1511,-3.1511,-3.1511,-3.1511,-3.1909,-3.2502,-3.1806,-3.2696,-3.4316,-3.3116,-3.3794,-3.5305,-3.4752,0.0,0.0,0.0,0.0,0.0,0.0,-3.3157,-3.2729,0.0,0.0,0.0,0.0,-3.2081,0.0,-3.168,0.0,0.0,0.0,0.0,0.0,-3.1511,-3.1511,-3.1511,-3.1511,-3.1511,-3.1511,-3.1511,-3.1511,-3.1511,-3.1511,-3.1511,-3.1511,-3.1511,-3.1511,-3.1511,-3.1553,-3.2799,-3.3608,-3.3633,-3.4864,-3.56,-3.56,-3.56,-3.56,-3.56,-3.56,-3.56,-3.56,-3.56,-3.56,-3.56,-3.56,-3.56,-3.56,-3.56,-3.56,-3.56,-3.56,-3.6207,-3.7262,-3.8026,-3.9391,-4.1113,-4.1919,-4.2727,-4.3441,-4.3478,-4.3515,-4.3515,0.0,0.0,0.0,0.0,0.0,0.0,0.0,0.0,0.0,0.0,0.0,0.0,0.0,-2.5597,-2.6384,-2.6851,-2.8102,0.0,0.0,0.0,0.0,-3.1511,-3.1511,-3.1628,-3.188,-3.1643,-3.1643,-3.188,-3.1643,-3.1511,-3.1511,-3.1511,-3.1511,-3.1511,-3.1511,-3.1511,-3.1511,-3.1511,0.0,0.0,0.0,0.0,0.0,0.0,0.0,0.0,0.0,0.0,0.0,0.0,0.0,0.0,0.0,0.0,0.0,0.0,0.0,0.0,0.0,0.0,0.0,-3.1567,-3.1511,-3.1511,-3.1511,-3.1511,-3.1511,-3.1511,-3.1511,-3.1511,-3.1511,-3.1511,-3.1511,-3.1511,-3.1511,-3.1511,-3.1511,-3.1511,-3.1511,-3.1511,-3.1511,-3.1511,-3.1511,-3.2394,-3.296,-3.296,-3.4186,-3.4965,-3.4965,-3.5362,-3.56,-3.56,-3.56,-3.56,-3.56,-3.56,-3.56,-3.56,-3.56,-3.56,-3.5622,-3.5963,-3.6118,-3.6156,-3.7023,-3.7619,-3.8009,-3.8615,-4.0039,-4.1901,-4.2194,-4.2782,-4.3515,-4.3515,-4.3515,-4.3515,0.0,0.0,0.0,0.0,0.0,0.0,0.0,0.0,0.0,0.0,0.0,0.0,0.0,0.0,-2.571,-2.6442,-2.8394,-2.9598,-2.9599,-3.0786,-3.1511,-3.1511,-3.1511,-3.1511,-3.1511,-3.1511,-3.1511,-3.1511,-3.1511,-3.1511,-3.1511,-3.1511,-3.1511,-3.1511,-3.1511,-3.1511,0.0,0.0,0.0,-3.1949,0.0,0.0,-3.343,0.0,0.0,0.0,0.0,0.0,0.0,0.0,0.0,0.0,0.0,0.0,0.0,0.0,0.0,0.0,-3.2299,0.0,0.0,0.0,0.0,-3.1511,-3.1511,0.0,-3.1511,-3.1511,-3.1511,-3.1511,-3.1511,-3.1511,-3.1511,-3.1511,-3.1511,-3.1511,-3.1511,-3.1511,-3.1511,-3.1511,-3.1511,-3.1511,-3.1511,-3.2176,-3.2586,-3.2586,-3.3836,0.0,-3.46,-3.523,-3.56,-3.56,-3.56,-3.56,-3.56,-3.56,-3.56,-3.56,-3.56,-3.56,-3.5622,-3.6172,-3.6559,-3.6877,-3.8087,-3.8628,-3.8702,-3.9554,-4.085,-4.2323,-4.2598,-4.302,-4.3515,-4.3515,-4.3515,-4.3515,0.0,0.0,0.0,0.0,0.0,0.0,0.0,0.0,0.0,-2.1846,0.0,0.0,0.0,0.0,0.0,-2.6381,-2.8339,-2.9535,-2.9565,-3.0761,-3.1496,-3.1511,0.0,0.0,0.0,-3.1511,-3.1511,-3.1511,-3.1511,-3.1511,-3.1511,-3.1511,-3.1511,-3.1511,-3.1511,-3.1511,-3.1511,0.0,-3.1924,-3.2576,0.0,-3.3419,-3.4555,0.0,0.0,0.0,-3.56,-3.5166,0.0,-3.5386,0.0,0.0,0.0,0.0,0.0,0.0,0.0,0.0,0.0,0.0,0.0,0.0,0.0,0.0,-3.1511,0.0,-3.1511,-3.1511,-3.1511,-3.1511,-3.1511,-3.1511,-3.1511,-3.1511,-3.1511,-3.1511,-3.1511,-3.1511,-3.1511,-3.1511,-3.1511,-3.1511,-3.1511,-3.2148,-3.2559,-3.2559,-3.3811,-3.4576,-3.4576,-3.523,-3.56,-3.56,-3.56,-3.56,-3.56,-3.56,-3.56,-3.56,-3.56,-3.56,-3.5605,-3.6153,-3.6853,-3.7647,-3.8667,-3.912,-3.93,-4.0872,-4.185,-4.2415,-4.3185,-4.3515,-4.3515,-4.3515,-4.3515,-4.3515,0.0,0.0,0.0,0.0,0.0,0.0,0.0,0.0,-2.0942,0.0,0.0,0.0,-2.1618,-2.2847,-2.3983,-2.485,-2.6701,-2.8118,-2.8685,-2.9929,-3.0893,-3.1452,0.0,0.0,0.0,-3.1511,-3.1511,-3.1511,-3.1511,-3.1511,-3.1511,-3.1511,-3.1511,0.0,-3.1511,-3.1511,-3.1511,-3.1511,0.0,-3.188,-3.2918,-3.3541,0.0,0.0,0.0,0.0,0.0,-3.5493,-3.5346,0.0,-3.5493,-3.5256,0.0,0.0,0.0,0.0,0.0,0.0,-3.1697,0.0,0.0,0.0,0.0,0.0,-3.1511,-3.1511,-3.1511,-3.1511,-3.1511,-3.1511,-3.1511,-3.1511,-3.1511,-3.1511,-3.1511,-3.1511,-3.1511,-3.1511,-3.1511,-3.1511,-3.1511,-3.1511,-3.1511,-3.1682,-3.1796,0.0,-3.3103,-3.3887,-3.3887,-3.4958,-3.56,-3.56,-3.56,-3.56,-3.56,-3.56,-3.56,-3.56,-3.56,-3.56,-3.5639,-3.6149,-3.6817,-3.7604,-3.8862,-3.9923,-4.0817,-4.1721,-4.2514,-4.3185,-4.3423,-4.3515,-4.3515,-4.3515,-4.3515,-4.3515,0.0,0.0,0.0,0.0,0.0,0.0,0.0,0.0,-2.0042,0.0,0.0,0.0,-2.1112,-2.2573,-2.3745,-2.4259,-2.6087,-2.74,-2.7868,-2.9065,-3.0133,-3.0966,0.0,0.0,0.0,-3.1511,-3.1511,-3.1511,-3.1511,-3.1511,-3.1511,-3.1511,0.0,0.0,0.0,0.0,0.0,0.0,0.0,0.0,-3.3023,0.0,0.0,-3.5077,-3.5419,0.0,0.0,0.0,-3.524,-3.5509,-3.56,0.0,0.0,0.0,0.0,0.0,0.0,0.0,0.0,0.0,0.0,0.0,0.0,0.0,-3.1511,-3.1511,-3.1511,0.0,-3.1511,-3.1511,-3.1511,-3.1511,-3.1511,-3.1511,-3.1511,-3.1511,-3.1511,-3.1511,-3.1511,-3.1511,-3.1511,-3.1511,-3.1511,-3.1768,-3.1951,-3.1951,-3.3245,-3.4137,-3.4423,-3.5178,-3.56,-3.56,-3.56,-3.56,-3.56,-3.56,-3.56,-3.56,-3.56,-3.56,-3.5639,-3.6471,-3.7292,-3.8092,-3.9636,-4.093,-4.1991,-4.2555,-4.3075,-4.3515,-4.3515,-4.3515,-4.3515,-4.3515,-4.3515,-4.3515,0.0,0.0,0.0,0.0,0.0,0.0,0.0,0.0,0.0,0.0,-1.9822,-2.0631,-2.1541,-2.288,-2.3833,-2.403,-2.5678,-2.6818,-2.7062,-2.8142,0.0,0.0,0.0,0.0,0.0,0.0,0.0,-3.1378,-3.1452,-3.1511,-3.1511,-3.1511,0.0,0.0,0.0,0.0,0.0,0.0,0.0,-3.1732,-3.3083,-3.3657,0.0,0.0,-3.5176,-3.4768,-3.5301,-3.5166,-3.4807,-3.5403,-3.5554,0.0,0.0,0.0,0.0,0.0,-3.2148,0.0,0.0,0.0,0.0,0.0,-3.1511,0.0,-3.1511,-3.1511,-3.1511,-3.1511,-3.1511,-3.1511,-3.1511,-3.1511,-3.1511,-3.1511,-3.1511,-3.1511,-3.1511,-3.1511,-3.1524,-3.1611,-3.1611,-3.1668,-3.1739,-3.2327,-3.2722,-3.2722,-3.3887,-3.4894,-3.556,-3.56,-3.56,-3.56,-3.56,-3.56,-3.56,-3.56,-3.56,-3.56,-3.56,-3.565,-3.5757,-3.69,-3.7927,-3.8925,-4.0511,-4.1785,-4.275,-4.3214,-4.3444,-4.3515,-4.3515,-4.3515,-4.3515,-4.3515,-4.3515,-4.3515,0.0,0.0,0.0,0.0,0.0,0.0,0.0,0.0,0.0,-1.8158,-1.8391,-1.8834,-1.9716,-2.0104,-2.0847,-2.2249,-2.3108,-2.4362,-2.6183,-2.693,0.0,0.0,0.0,0.0,0.0,0.0,0.0,0.0,-3.1172,-3.1511,-3.1511,0.0,0.0,0.0,0.0,0.0,0.0,0.0,0.0,-3.2443,-3.3262,0.0,-3.4441,-3.4701,-3.5054,-3.534,-3.4939,-3.5065,-3.5419,-3.5566,-3.5245,-3.4757,0.0,0.0,0.0,-3.2788,0.0,0.0,0.0,0.0,0.0,0.0,-3.1511,0.0,-3.1511,-3.1511,-3.1511,-3.1511,-3.1511,-3.1511,-3.1511,-3.1511,-3.1511,-3.1511,-3.1511,-3.1511,-3.1511,-3.1511,-3.171,-3.2299,-3.2382,-3.2598,-3.3156,-3.3313,-3.3417,-3.3417,-3.4161,-3.4894,-3.556,-3.56,-3.56,-3.56,-3.56,-3.56,-3.56,-3.56,-3.56,-3.56,-3.56,-3.5943,-3.6575,-3.6814,-3.7906,-3.9614,-3.9953,-4.1085,-4.2711,-4.2826,-4.3124,-4.3515,-4.3515,-4.3515,-4.3515,-4.3515,-4.3515,-4.3515,0.0,0.0,0.0,0.0,0.0,0.0,0.0,0.0,0.0,-1.7862,-1.8378,-1.8802,-1.9263,-1.9684,0.0,0.0,0.0,0.0,0.0,0.0,0.0,0.0,0.0,0.0,0.0,0.0,0.0,0.0,0.0,0.0,0.0,0.0,0.0,0.0,0.0,0.0,0.0,0.0,-3.1939,-3.2661,-3.3335,0.0,-3.4168,-3.4848,-3.4889,-3.465,-3.4987,-3.5315,-3.56,-3.56,-3.5389,0.0,-3.4721,-3.4358,-3.3912,0.0,-3.2586,-3.2437,0.0,0.0,0.0,-3.1511,0.0,0.0,0.0,-3.1511,-3.1511,-3.1511,-3.1511,-3.1511,-3.1511,-3.1511,-3.1511,-3.1511,-3.1511,-3.1511,-3.1511,-3.1511,-3.164,-3.2007,-3.2382,-3.2749,-3.3066,-3.371,-3.4235,-3.4568,-3.4911,-3.5253,-3.5577,-3.56,-3.56,-3.56,-3.56,-3.56,-3.56,-3.56,-3.56,-3.56,-3.6011,-3.64,-3.6829,-3.7543,-3.8462,-3.9448,-4.0396,-4.1333,-4.2302,-4.2865,-4.325,-4.3515,-4.3515,-4.3515,-4.3515,-4.3515,-4.3515,-4.357,-1.0535,0.0,0.0,0.0,0.0,0.0,0.0,0.0,0.0,-1.7862,-1.8778,-1.9285,0.0,0.0,0.0,0.0,0.0,0.0,0.0,0.0,0.0,0.0,0.0,-2.7863,0.0,0.0,0.0,0.0,0.0,0.0,0.0,0.0,0.0,0.0,0.0,0.0,0.0,0.0,0.0,-3.2658,0.0,-3.3568,-3.3923,-3.499,-3.4822,-3.4125,-3.5223,-3.56,-3.56,-3.56,-3.5515,-3.5339,-3.4918,-3.4712,0.0,0.0,0.0,0.0,0.0,0.0,0.0,0.0,0.0,-3.1511,0.0,0.0,0.0,-3.1511,0.0,0.0,0.0,0.0,0.0,0.0,0.0,0.0,0.0,-3.1809,0.0,-3.1879,-3.2422,-3.2895,-3.3145,-3.4161,-3.5028,-3.5577,-3.56,-3.56,-3.56,-3.56,-3.56,-3.56,-3.56,-3.56,-3.56,-3.56,-3.56,-3.56,-3.6417,-3.688,-3.7066,-3.8379,-3.9129,-3.9435,-4.0979,-4.175,-4.2041,-4.2977,-4.341,-4.3515,-4.3515,-4.3515,-4.3515,-4.3515,-4.3606,-4.3809,-0.9636,-1.0676,0.0,0.0,0.0,0.0,0.0,0.0,0.0,0.0,0.0,0.0,0.0,0.0,0.0,0.0,0.0,0.0,-2.5691,0.0,0.0,0.0,0.0,0.0,-2.7851,0.0,0.0,0.0,0.0,0.0,0.0,0.0,0.0,0.0,-3.1511,0.0,0.0,0.0,-3.1939,0.0,-3.268,-3.3427,0.0,-3.4661,-3.5002,-3.5403,-3.5566,-3.56,-3.56,0.0,-3.5207,-3.4807,0.0,-3.5075,-3.4576,-3.4431,0.0,0.0,0.0,0.0,0.0,0.0,-3.1511,0.0,-3.1511,0.0,-3.1511,-3.1511,0.0,0.0,0.0,0.0,0.0,0.0,0.0,0.0,-3.2492,-3.2986,-3.3349,-3.3349,-3.3443,-3.3937,-3.5138,-3.5402,-3.5515,-3.56,-3.56,-3.56,-3.56,-3.56,-3.56,-3.56,-3.56,-3.56,-3.56,-3.56,-3.56,-3.56,-3.6417,-3.7127,-3.7804,-3.8616,-3.961,-4.0706,-4.0915,-4.1599,-4.2616,-4.275,-4.3069,-4.3515,-4.3515,-4.3515,-4.3515,-4.3515,-4.3956,-4.458,-0.9175,-1.0375,0.0,0.0,0.0,0.0,0.0,0.0,0.0,0.0,0.0,0.0,0.0,0.0,0.0,0.0,0.0,-2.3817,0.0,0.0,0.0,0.0,0.0,0.0,0.0,0.0,0.0,0.0,-2.9463,0.0,0.0,0.0,0.0,0.0,-3.1511,0.0,-3.1511,0.0,-3.1942,0.0,0.0,0.0,0.0,-3.4603,-3.5024,-3.56,-3.56,-3.56,-3.56,0.0,-3.5407,0.0,0.0,0.0,0.0,0.0,0.0,0.0,0.0,0.0,0.0,0.0,0.0,0.0,-3.1511,0.0,-3.1511,0.0,0.0,0.0,0.0,0.0,0.0,0.0,-3.241,0.0,0.0,0.0,-3.3582,0.0,0.0,0.0,-3.5515,-3.56,-3.56,-3.56,-3.56,-3.56,-3.56,-3.56,-3.56,-3.56,-3.56,-3.56,-3.56,-3.56,-3.5819,-3.6299,-3.7077,-3.7821,-3.8565,-3.9317,-3.994,-4.0449,-4.0756,-4.138,-4.2203,-4.2557,-4.3014,-4.3515,-4.3515,-4.3515,-4.357,-4.4011,-4.4415,-4.4819,-0.835,0.0,0.0,0.0,0.0,0.0,0.0,0.0,0.0,0.0,0.0,0.0,-1.7304,-1.8956,0.0,0.0,-2.2713,-2.4142,0.0,0.0,-2.6487,0.0,0.0,0.0,0.0,0.0,0.0,0.0,0.0,0.0,0.0,0.0,0.0,0.0,0.0,-3.1511,-3.1511,0.0,-3.1821,-3.235,-3.3045,-3.3843,-3.4624,-3.48,-3.5192,-3.56,-3.56,-3.56,-3.56,-3.56,-3.5362,0.0,-3.4688,0.0,0.0,0.0,0.0,0.0,-3.2132,0.0,0.0,0.0,0.0,0.0,0.0,0.0,0.0,0.0,0.0,0.0,0.0,0.0,0.0,0.0,0.0,-3.3039,0.0,-3.3912,0.0,0.0,0.0,0.0,0.0,-3.56,-3.56,-3.56,-3.56,-3.56,-3.56,-3.56,-3.56,-3.56,-3.56,-3.56,-3.56,-3.56,-3.6011,-3.6812,-3.755,-3.8294,-3.9022,-3.9774,-4.0096,-4.0121,-4.0504,-4.1105,-4.1814,-4.2264,-4.2865,-4.3533,-4.3736,-4.3828,-4.3901,-4.4488,-4.4966,-4.5517,-0.6785,-0.837,0.0,0.0,0.0,0.0,0.0,0.0,0.0,0.0,0.0,0.0,0.0,0.0,0.0,0.0,0.0,-2.6298,-2.7062,0.0,-2.801,0.0,0.0,-2.6857,0.0,0.0,0.0,0.0,0.0,0.0,0.0,0.0,0.0,0.0,-3.1511,-3.1511,-3.1511,-3.1511,-3.1496,-3.1611,-3.2355,-3.3427,-3.4655,0.0,-3.5577,-3.56,-3.56,0.0,0.0,-3.56,-3.4728,0.0,0.0,0.0,0.0,0.0,0.0,0.0,0.0,0.0,0.0,-3.1511,0.0,0.0,0.0,0.0,-3.1511,0.0,0.0,0.0,0.0,0.0,0.0,0.0,0.0,0.0,0.0,0.0,0.0,0.0,0.0,0.0,0.0,-3.56,-3.56,-3.56,-3.56,-3.56,-3.56,-3.56,-3.56,-3.56,-3.56,-3.56,-3.56,-3.56,-3.6011,-3.6812,-3.755,-3.8294,-3.9022,-3.9774,-4.0096,-4.0096,-4.0121,-4.0767,-4.181,-4.1832,-4.2503,-4.3588,-4.436,-4.4672,-4.4654,-4.4691,-4.5682,-4.7021,0.0,0.0,0.0,0.0,0.0,0.0,0.0,-1.331,0.0,0.0,-1.6924,0.0,0.0,-2.0809,-2.2013,0.0,0.0,-2.5348,-2.5586,-2.6432,0.0,0.0,0.0,-2.6889,0.0,0.0,0.0,0.0,0.0,0.0,0.0,0.0,0.0,0.0,0.0,-3.1511,0.0,0.0,0.0,0.0,0.0,-3.4186,-3.4624,0.0,-3.5207,-3.56,-3.56,-3.56,0.0,-3.5075,-3.464,-3.4161,-3.3479,-3.3443,-3.3401,-3.2473,-3.2571,-3.2788,0.0,0.0,-3.1511,-3.1511,0.0,0.0,0.0,0.0,0.0,0.0,0.0,0.0,0.0,0.0,0.0,0.0,0.0,0.0,0.0,0.0,0.0,0.0,0.0,0.0,0.0,0.0,-3.56,-3.56,-3.56,-3.56,-3.56,-3.56,-3.56,-3.56,-3.56,-3.56,-3.56,-3.6129,-3.6772,-3.7533,-3.8278,-3.9005,-3.974,-3.9994,-4.0096,-4.0096,-4.0096,-4.0521,-4.1246,-4.1643,-4.2588,-4.3831,-4.4455,-4.5351,-4.6287,-4.6287,-4.6636,-4.7186,-0.5463,0.0,0.0,0.0,0.0,0.0,0.0,0.0,0.0,0.0,-1.6905,0.0,-1.9576,0.0,-2.1973,0.0,-2.3774,-2.5016,-2.5514,-2.6413,0.0,-2.8584,-2.7817,0.0,0.0,0.0,0.0,0.0,0.0,-2.7864,0.0,0.0,0.0,0.0,0.0,-3.1511,-3.1511,-3.1511,-3.1938,0.0,0.0,-3.4544,0.0,0.0,-3.5028,-3.56,0.0,-3.56,-3.5492,-3.4847,-3.46,-3.4358,-3.3013,-3.3066,-3.3323,-3.1923,-3.2007,-3.2437,-3.1697,-3.1511,0.0,-3.1511,-3.1511,0.0,-3.1511,0.0,-3.1511,0.0,0.0,0.0,0.0,0.0,0.0,0.0,0.0,0.0,0.0,-3.5184,0.0,0.0,0.0,0.0,0.0,-3.56,-3.56,-3.56,-3.56,-3.56,-3.56,-3.56,-3.56,-3.56,-3.56,-3.56,-3.56,-3.64,-3.7161,-3.7922,-3.865,-3.9402,-4.0096,-4.0096,-4.0096,-4.0096,-4.0096,-4.0417,-4.0943,-4.1628,-4.2708,-4.3998,-4.4888,-4.601,-4.7094,-4.7094,-4.7278,-4.759,-0.3813,0.0,0.0,0.0,-0.9728,0.0,0.0,0.0,-1.4347,0.0,-1.7383,-1.8708,-2.0547,-2.1446,-2.2175,-2.2716,-2.4022,-2.5403,-2.6746,-2.7383,0.0,0.0,-2.9425,-2.9378,-3.022,0.0,0.0,0.0,0.0,0.0,0.0,0.0,0.0,0.0,-3.1511,0.0,-3.1511,-3.1539,-3.1979,-3.2722,-3.3339,-3.4374,-3.5492,-3.4894,-3.5052,-3.56,-3.56,-3.56,-3.5492,-3.4847,-3.4576,-3.4333,-3.3013,-3.3013,-3.3219,-3.1894,-3.2007,-3.2382,-3.1697,-3.1511,-3.1511,-3.1511,-3.1511,0.0,0.0,0.0,-3.1511,0.0,0.0,0.0,0.0,0.0,0.0,0.0,0.0,0.0,0.0,0.0,0.0,0.0,0.0,0.0,0.0,-3.56,-3.56,-3.56,-3.56,-3.56,0.0,-3.56,-3.56,-3.56,-3.56,-3.5616,-3.565,-3.6451,-3.7212,-3.7973,-3.87,-3.9436,-4.0096,-4.0096,-4.0096,-4.0096,-4.0096,-4.0392,-4.0926,-4.1786,-4.2837,-4.4083,-4.5637,-4.6632,-4.7168,-4.7168,-4.7626,-4.8306,-0.368,-0.4933,-0.5926,0.0,-0.8323,-0.9933,0.0,0.0,0.0,0.0,-1.8856,-2.0557,-2.2267,-2.2653,-2.304,-2.362,-2.4352,0.0,0.0,0.0,0.0,-2.836,-2.8781,-2.9103,-2.932,-2.8252,-2.7696,-2.7696,0.0,0.0,-2.9,0.0,0.0,0.0,0.0,0.0,-3.1539,-3.2092,-3.2707,-3.3365,-3.3531,-3.4112,-3.4894,0.0,-3.5447,-3.56,-3.56,-3.56,-3.5492,-3.4847,-3.426,-3.371,-3.2868,-3.2355,-3.1964,-3.1611,-3.164,-3.1739,-3.1553,-3.1511,-3.1511,-3.1511,-3.1511,-3.1511,0.0,0.0,0.0,0.0,0.0,0.0,0.0,0.0,0.0,0.0,0.0,0.0,0.0,0.0,0.0,-3.56,0.0,0.0,-3.56,-3.56,-3.56,-3.56,-3.56,-3.56,-3.56,0.0,-3.56,-3.56,-3.56,-3.5893,-3.6508,-3.7229,-3.799,-3.8717,-3.9486,-3.9926,-4.0096,-4.0096,-4.0096,-4.0096,-4.0096,-4.0179,-4.0419,-4.2084,-4.3297,-4.4307,-4.6156,-4.7328,-4.7975,-4.7975,-4.8122,-4.8306,-0.308,0.0,0.0,-0.6091,0.0,0.0,-1.0605,-1.2401,0.0,-1.6841,-1.8458,0.0,-2.1739,-2.2511,-2.3306,-2.4272,-2.4825,0.0,-2.5962,0.0,0.0,-2.7694,-2.8906,-2.957,-2.958,-2.9103,0.0,-2.8256,0.0,0.0,-2.8428,0.0,0.0,0.0,0.0,-3.1172,-3.1568,-3.2616,-3.3251,-3.3644,-3.4241,-3.4704,0.0,-3.547,-3.56,-3.56,-3.56,-3.56,-3.5492,-3.4847,-3.4358,-3.3862,-3.2879,-3.2327,-3.1938,-3.1582,-3.1511,-3.1511,-3.1511,-3.1511,-3.1511,-3.1511,-3.1511,-3.1511,-3.1511,-3.1511,-3.1511,0.0,-3.1511,-3.1511,0.0,0.0,0.0,0.0,0.0,0.0,0.0,0.0,0.0,0.0,-3.56,0.0,-3.56,-3.56,-3.56,-3.56,-3.56,-3.56,0.0,0.0,-3.56,-3.56,-3.56,-3.5994,-3.6795,-3.7533,-3.8278,-3.9005,-3.9757,-4.0096,-4.0096,-4.0096,-4.0096,-4.0096,-4.0096,-4.0282,-4.0714,-4.2421,-4.3594,-4.4466,-4.6452,-4.7671,-4.8306,-4.8306,-4.8306,-4.8306,-0.2401,0.0,0.0,0.0,0.0,0.0,0.0,-1.2663,0.0,-1.6346,0.0,-1.8744,-2.0402,-2.1853,-2.3264,-2.4672,0.0,-2.5856,-2.6449,-2.7263,-2.7683,-2.7706,-2.9373,-3.0318,-3.0294,-3.0293,-2.9871,0.0,0.0,0.0,0.0,0.0,0.0,0.0,0.0,0.0,0.0,-3.2982,-3.3603,-3.3979,-3.5044,-3.5509,-3.56,-3.56,-3.56,-3.56,-3.56,-3.56,-3.5515,-3.4918,-3.46,-3.426,-3.3093,-3.2614,-3.2327,-3.1697,-3.1511,-3.1511,-3.1511,-3.1511,-3.1511,-3.1511,-3.1511,-3.1511,-3.1511,-3.1511,-3.1511,-3.1511,-3.1511,-3.1511,0.0,0.0,0.0,0.0,0.0,0.0,0.0,0.0,0.0,0.0,0.0,0.0,-3.56,-3.56,-3.56,-3.56,-3.56,0.0,0.0,0.0,-3.56,-3.56,-3.5701,-3.6146,-3.6948,-3.7686,-3.8413,-3.914,-3.9791,-4.0096,-4.0096,-4.0096,-4.0096,-4.0113,-4.0214,-4.0595,-4.1323,-4.2829,-4.393,-4.4841,-4.6664,-4.7715,-4.8191,-4.8267,-4.8306,-4.8306,-0.2628,0.0,0.0,0.0,0.0,-1.104,-1.2825,-1.4106,-1.5529,-1.7402,-1.8462,-1.9716,-2.1446,-2.2273,-2.3281,-2.4695,-2.5301,0.0,0.0,0.0,0.0,-2.7708,-2.9348,-3.0318,-3.0294,-3.0293,-2.9871,0.0,0.0,0.0,0.0,0.0,0.0,0.0,0.0,0.0,-3.3216,-3.2908,0.0,-3.5231,-3.4903,-3.5121,-3.56,-3.56,-3.56,-3.56,-3.56,-3.56,-3.5577,-3.547,-3.4704,-3.3735,-3.3495,-3.2625,-3.1668,-3.1539,-3.1511,-3.1511,-3.1511,-3.1511,-3.1511,-3.1511,-3.1511,-3.1511,-3.1511,-3.1511,-3.1511,-3.1511,-3.1511,-3.1511,-3.1511,0.0,0.0,0.0,0.0,0.0,0.0,0.0,0.0,0.0,0.0,-3.56,0.0,0.0,-3.56,-3.56,-3.56,0.0,0.0,0.0,-3.56,0.0,-3.6231,0.0,0.0,0.0,-3.9174,-3.991,-4.0045,-4.0096,-4.0096,-4.0096,-4.0096,-4.013,-4.073,-4.1085,-4.1357,-4.3398,-4.4925,-4.6141,-4.7052,-4.7449,-4.7614,-4.8132,-4.8306,-4.8306,0.0,0.0,0.0,0.0,0.0,0.0,0.0,-1.5327,-1.6738,-1.7176,-1.7614,-1.8684,-2.0687,-2.1824,-2.3197,-2.5043,-2.5743,-2.6204,-2.6483,-2.6857,-2.7263,-2.7683,-2.8932,-2.9854,-3.0294,-3.0703,-3.0293,-2.8987,0.0,0.0,0.0,0.0,0.0,0.0,0.0,-3.1872,0.0,0.0,0.0,-3.4607,-3.4985,-3.5297,-3.56,-3.56,-3.56,-3.56,-3.56,-3.56,-3.5538,-3.5207,-3.464,-3.4012,-3.3287,-3.2625,-3.2007,-3.1611,-3.1511,-3.1511,-3.1511,-3.1511,-3.1511,-3.1511,-3.1511,-3.1511,-3.1511,-3.1511,-3.1511,-3.1511,-3.1511,-3.1511,-3.1511,-3.1511,0.0,0.0,0.0,0.0,0.0,0.0,0.0,0.0,0.0,0.0,0.0,0.0,0.0,0.0,0.0,0.0,0.0,0.0,-3.5785,0.0,0.0,0.0,-3.8464,0.0,-3.9385,-4.0096,-4.0096,-4.0096,-4.0096,-4.0096,-4.0096,-4.0146,-4.0882,-4.1424,-4.1907,-4.3756,-4.5267,-4.643,-4.6756,-4.7088,-4.747,-4.8075,-4.8306,-4.8306,0.0,-0.4192,0.0,0.0,-1.067,0.0,-1.3778,-1.6236,-1.7716,-1.6991,-1.6888,-1.7758,-2.0041,-2.1429,-2.311,-2.5403,-2.6143,-2.6499,-2.6499,-2.6665,-2.713,-2.7937,-2.8615,-2.9479,-3.0513,-3.101,-3.0615,0.0,0.0,0.0,0.0,0.0,0.0,0.0,0.0,0.0,0.0,0.0,-3.3682,-3.392,-3.5129,-3.56,-3.56,-3.56,-3.56,-3.56,-3.56,-3.5509,-3.5304,-3.4776,-3.4503,-3.4186,-3.2986,-3.2492,-3.2244,-3.1668,-3.1511,-3.1511,-3.1511,-3.1511,-3.1511,-3.1511,-3.1511,-3.1511,-3.1511,-3.1511,-3.1511,-3.1511,-3.1511,-3.1511,-3.1511,-3.1511,0.0,0.0,0.0,0.0,0.0,0.0,0.0,0.0,0.0,0.0,-3.56,0.0,0.0,0.0,0.0,0.0,-3.56,0.0,0.0,0.0,0.0,-3.7675,-3.8988,0.0,-3.9537,-4.0096,-4.0096,-4.0096,-4.0096,-4.0096,-4.0197,-4.0383,-4.1102,-4.1948,-4.2861,-4.4107,-4.5169,-4.6039,-4.6143,-4.6618,-4.7259,-4.7879,-4.8191,-4.8306,0.0,0.0,0.0,0.0,0.0,0.0,-1.49,-1.6727,-1.7974,-1.7862,-1.7872,-1.8741,-2.1029,-2.1823,-2.3124,-2.5393,-2.614,-2.6499,-2.6499,-2.719,-2.7984,-2.8858,-2.8979,-2.9747,-3.1335,-3.0746,-3.0352,0.0,0.0,-2.8541,0.0,0.0,0.0,0.0,0.0,0.0,0.0,-3.3286,-3.3937,-3.4562,-3.5296,-3.56,-3.56,-3.56,-3.56,-3.56,-3.56,-3.5198,-3.4676,-3.4625,-3.4186,-3.3572,-3.2841,-3.2148,-3.1582,-3.1524,-3.1511,-3.1511,-3.1511,-3.1511,-3.1511,-3.1511,-3.1511,-3.1511,-3.1511,-3.1511,-3.1511,-3.1511,-3.1511,-3.1511,-3.1511,-3.1511,-3.1739,0.0,0.0,0.0,0.0,0.0,-3.5515,-3.56,0.0,0.0,0.0,-3.56,0.0,0.0,-3.56,0.0,0.0,0.0,0.0,-3.6778,-3.7449,-3.8176,-3.8988,-3.9673,-4.0028,-4.0096,-4.0096,-4.0096,-4.0096,-4.0096,-4.0468,-4.1136,-4.188,-4.3041,-4.4412,-4.4547,-4.4682,-4.4814,-4.5372,-4.5965,-4.6571,-4.7237,-4.7818,-4.8306,0.0,0.0,0.0,0.0,0.0,0.0,0.0,-1.6332,-1.743,-1.8247,-1.8378,-1.925,-2.1621,-2.232,-2.3572,-2.5926,-2.635,-2.6499,-2.6499,-2.7263,-2.8099,-2.8969,-2.9504,-3.0301,-3.1475,-3.1188,-3.0776,0.0,0.0,0.0,0.0,0.0,0.0,0.0,0.0,-3.1924,-3.2651,-3.3322,-3.398,-3.4645,-3.5329,-3.56,-3.56,-3.56,-3.56,-3.56,-3.56,-3.5435,-3.5128,-3.4748,-3.4152,-3.3495,-3.2815,-3.241,-3.2064,-3.164,-3.1511,-3.1511,-3.1511,-3.1511,-3.1511,-3.1511,-3.1511,-3.1511,-3.1511,-3.1511,-3.1511,-3.1511,-3.1511,-3.1511,-3.1511,-3.1511,-3.1739,-3.2492,0.0,0.0,0.0,0.0,0.0,-3.56,0.0,-3.56,0.0,-3.56,0.0,0.0,0.0,0.0,0.0,0.0,0.0,-3.7432,0.0,-3.8903,-3.9656,-3.996,-4.0096,-4.0096,-4.0096,-4.0096,-4.0096,-4.0096,-4.0756,-4.1897,-4.2642,-4.3572,-4.4615,-4.4615,-4.4615,-4.4654,-4.5267,-4.5648,-4.5989,-4.7017,-4.7551,-4.7797,-0.6436,0.0,-0.918,0.0,-1.2013,-1.32,-1.494,-1.5992,-1.7073,-1.8422,-1.8706,-1.9742,-2.215,-2.2696,-2.389,-2.6296,-2.6499,-2.6499,-2.6499,-2.7503,-2.8224,-2.8597,-2.9697,0.0,-3.1124,-3.117,-3.0966,-3.0629,-2.9813,0.0,0.0,0.0,0.0,0.0,-3.1246,-3.1924,-3.2634,-3.3313,-3.4,-3.4645,-3.5329,-3.56,-3.56,-3.56,-3.56,-3.56,-3.56,-3.5476,-3.5262,-3.4977,-3.4184,-3.3209,-3.2749,-3.2465,-3.216,-3.1668,-3.1511,-3.1511,-3.1511,-3.1511,-3.1511,-3.1511,-3.1511,-3.1511,-3.1511,-3.1511,-3.1511,-3.1511,-3.1511,-3.1511,-3.1511,-3.1511,-3.1668,-3.2203,0.0,0.0,0.0,-3.5052,0.0,0.0,-3.56,-3.56,-3.56,-3.56,0.0,0.0,0.0,0.0,0.0,0.0,0.0,0.0,0.0,0.0,-4.0096,-4.0096,-4.0096,-4.0096,-4.0096,-4.0096,-4.0113,-4.0553,-4.1424,-4.2675,-4.342,-4.4079,-4.4615,-4.4615,-4.4615,-4.4654,-4.5062,-4.5346,-4.5597,-4.6519,-4.7084,-4.7449,-0.7492,-0.9352,-1.1098,-1.2083,-1.3058,-1.4044,-1.5046,-1.5982,-1.7073,-1.8422,-1.8981,-2.0209,-2.2616,-2.289,-2.389,-2.6296,-2.6499,-2.6499,-2.6499,-2.8057,-2.8595,0.0,0.0,-3.0308,-3.0294,-3.0308,-3.0688,-3.1496,0.0,0.0,-3.0289,0.0,-3.0717,-3.1496,-3.1511,-3.1924,-3.2629,-3.3332,-3.3996,-3.4645,-3.5329,-3.56,-3.56,-3.56,-3.56,-3.56,-3.56,-3.5166,-3.4718,-3.5363,-3.4252,-3.2614,-3.2586,-3.2092,-3.1496,-3.1511,-3.1511,-3.1511,-3.1511,-3.1511,-3.1511,-3.1511,-3.1511,-3.1511,-3.1511,-3.1511,-3.1511,-3.1511,-3.1511,-3.1511,-3.1511,-3.1511,-3.1511,-3.1496,0.0,0.0,0.0,-3.4752,0.0,-3.56,-3.56,-3.56,-3.56,-3.56,0.0,0.0,0.0,0.0,0.0,0.0,0.0,-3.7889,-3.8616,0.0,-4.0096,-4.0096,-4.0096,-4.0096,-4.0096,-4.0096,-4.0146,-4.1619,-4.2675,-4.3426,-4.4231,-4.4598,-4.4615,-4.4615,-4.4615,-4.4615,-4.4598,-4.4988,-4.5511,-4.5537,-4.6329,-4.7406,-0.8576,-0.9879,-1.1135,-1.212,-1.2553,-1.3314,-1.4956,-1.5675,-1.677,-1.8795,-1.9455,-2.0646,-2.3067,-2.331,-2.4171,0.0,-2.6499,-2.6499,0.0,-2.8057,-2.8608,-2.7736,-2.9907,-3.0865,-3.0323,-3.0835,-3.1231,-3.1511,0.0,0.0,0.0,-3.0852,-3.1246,-3.1511,-3.2013,-3.2635,-3.3343,-3.399,-3.4684,-3.5313,-3.5509,-3.56,-3.56,-3.56,-3.56,-3.56,-3.56,-3.5476,-3.5233,-3.4994,-3.4192,-3.3198,-3.2752,-3.2092,-3.1511,-3.1511,-3.1511,-3.1511,-3.1511,-3.1511,-3.1511,-3.1511,-3.1511,-3.1511,-3.1511,-3.1511,-3.1511,-3.1511,-3.1511,-3.1511,-3.1511,-3.1511,-3.1511,-3.1511,-3.2299,0.0,-3.2922,0.0,-3.4399,-3.4871,-3.4918,-3.5098,-3.5577,-3.56,0.0,0.0,0.0,0.0,0.0,0.0,0.0,0.0,-3.9385,0.0,-4.0096,-4.0096,-4.0096,-4.0096,-4.0096,-4.0367,-4.0899,-4.2388,-4.32,-4.3426,-4.4248,-4.4615,-4.4615,-4.4615,-4.4615,-4.4615,-4.4615,-4.472,-4.4934,-4.5346,-4.5775,-4.6231,-0.918,-1.0417,-1.1577,-1.2194,-1.2305,-1.3014,-1.5099,-1.5631,-1.6711,-1.9215,-1.9741,-2.0819,-2.3235,-2.3483,0.0,-2.6321,-2.6499,-2.6499,-2.6499,-2.8057,-2.8608,-2.7736,-3.0155,-3.1129,-3.0308,-3.1099,0.0,-3.1511,-3.101,-3.0746,-3.0761,-3.1246,-3.1511,-3.1525,-3.2279,-3.2977,-3.3641,-3.4325,-3.4824,-3.524,-3.5493,-3.5436,-3.524,-3.5493,-3.56,-3.56,-3.56,-3.56,-3.5492,-3.484,-3.4133,-3.3486,-3.2826,-3.2092,-3.1511,-3.1511,-3.1511,-3.1511,-3.1511,-3.1511,-3.1511,-3.1511,-3.1511,-3.1511,-3.1511,-3.1511,-3.1511,-3.1511,-3.1511,-3.1511,-3.1511,-3.1511,-3.1511,-3.1511,-3.212,-3.2586,-3.2586,0.0,-3.3836,0.0,0.0,0.0,0.0,-3.56,-3.56,0.0,0.0,0.0,0.0,0.0,-3.8244,-3.8971,-3.9723,-4.0096,-4.0096,-4.0096,-4.0096,-4.0096,-4.0383,-4.0899,-4.1644,-4.2861,-4.3572,-4.3876,-4.4395,-4.4615,-4.4615,-4.4615,-4.4615,-4.4615,-4.4615,-4.4615,-4.4654,-4.5025,-4.5294,-4.5667,-0.928,-1.0863,-1.2214,0.0,-1.2305,-1.3101,-1.545,-1.5848,-1.683,-1.9534,-1.9936,-2.0868,-2.3235,-2.3483,-2.4323,-2.6321,0.0,0.0,-2.6593,-2.8105,-2.8654,-2.7836,-3.0155,-3.1132,-3.0308,-3.1099,-3.1511,-3.1511,-3.1511,-3.1511,-3.1511,-3.1511,-3.1511,-3.1525,-3.2279,-3.2934,-3.3589,-3.4303,-3.4611,-3.4662,-3.5328,-3.5227,-3.4734,-3.5346,-3.56,-3.56,-3.56,-3.56,-3.5475,-3.4775,-3.4126,-3.3453,-3.2749,-3.2064,-3.1511,-3.1511,-3.1511,-3.1511,-3.1511,-3.1511,-3.1511,-3.1511,-3.1511,-3.1511,-3.1511,-3.1511,-3.1511,-3.1511,-3.1511,-3.1511,-3.1511,-3.1511,-3.1511,-3.1511,-3.2092,-3.2504,-3.2504,-3.3119,-3.3786,0.0,0.0,0.0,-3.5538,-3.56,-3.5616,0.0,0.0,0.0,0.0,0.0,-3.8311,-3.9039,-3.974,-4.0096,-4.0096,-4.0096,-4.013,-4.0197,-4.0916,-4.166,-4.2388,-4.3149,-4.3893,-4.4615,-4.4615,-4.4615,-4.4615,-4.4615,-4.4615,-4.4615,-4.4615,-4.4615,-4.4615,-4.4615,-4.4978,-4.5624,0.0,0.0,-1.1399,-1.219,-1.2509,-1.3395,-1.5487,-1.6283,-1.7407,-1.9628,-2.0197,-2.1229,-2.3285,-2.3483,-2.4323,-2.6321,-2.6499,-2.6772,-2.7383,-2.842,-2.8907,-2.8698,-3.0483,-3.1131,-3.0308,-3.1099,-3.1511,-3.1511,-3.1511,-3.1511,-3.1511,-3.1511,-3.1511,-3.1525,-3.2279,-3.2682,-3.2906,-3.4108,-3.4611,-3.4649,-3.5338,-3.5509,-3.5386,-3.5526,-3.56,-3.56,-3.56,-3.56,-3.5431,-3.4236,-3.3732,-3.3396,-3.2165,-3.164,-3.1511,-3.1511,-3.1511,-3.1511,-3.1511,-3.1511,-3.1511,-3.1511,-3.1511,-3.1511,-3.1511,-3.1511,-3.1511,-3.1511,-3.1511,-3.1511,-3.1511,-3.1511,-3.1511,-3.1511,-3.164,-3.1768,-3.1768,-3.2367,-3.3093,0.0,-3.4284,-3.4854,-3.5538,-3.56,-3.5836,0.0,0.0,-3.7371,-3.8667,-3.8734,-3.9073,-3.9825,-4.0011,-4.0096,-4.0096,-4.0096,-4.0383,-4.095,-4.1677,-4.2439,-4.3183,-4.3961,-4.4429,-4.4615,-4.4615,-4.4615,-4.4615,-4.4615,-4.4615,-4.4615,-4.4615,-4.4615,-4.4615,-4.4615,-4.5038,-4.5756,-0.9194,-1.0484,-1.1677,-1.2214,-1.2977,-1.4119,-1.5803,-1.6974,-1.8237,-1.9984,-2.0819,-2.1818,-2.3335,-2.392,-2.4824,-2.6368,-2.6499,-2.6844,-2.7636,-2.8158,-2.8761,-2.9566,-3.0483,-3.0908,-3.0835,-3.1289,-3.1511,-3.1511,-3.1511,-3.1511,-3.1511,-3.1511,-3.1511,-3.1525,-3.2279,-3.2604,-3.2676,-3.4046,-3.4414,-3.4246,-3.5225,-3.5424,-3.5166,-3.5493,-3.56,-3.56,-3.56,-3.56,-3.5403,-3.4052,-3.3802,-3.3756,-3.2028,-3.1732,-3.1939,-3.1599,-3.1511,-3.1511,-3.1511,-3.1511,-3.1511,-3.1511,-3.1511,-3.1511,-3.1511,-3.1511,-3.1511,-3.1511,-3.1511,-3.1511,-3.1511,-3.1511,-3.1511,-3.1511,-3.1511,-3.1511,-3.1511,-3.1853,-3.2477,-3.3479,-3.3912,-3.452,-3.5509,-3.5943,-3.6315,-3.6778,-3.7422,0.0,-3.8954,-3.9334,-3.969,-4.0096,-4.0096,-4.0096,-4.0096,-4.0434,-4.0798,-4.1221,-4.2303,-4.3014,-4.3426,-4.4215,-4.4615,-4.4615,-4.4615,-4.4615,-4.4615,-4.4615,-4.4615,-4.4615,-4.4615,-4.4615,-4.4615,-4.4615,-4.506,-4.5821,-0.9305,-1.0905,-1.2331,-1.2381,-1.3525,-1.4904,-1.6286,-1.7669,-1.9079,-2.0401,-2.1432,-2.2387,-2.3384,-2.4398,-2.5399,-2.6427,-2.6595,-2.7033,-2.7851,-2.7917,-2.8668,-3.0425,-3.047,-3.0805,-3.1496,-3.1511,-3.1511,-3.1511,-3.1511,-3.1511,-3.1511,-3.1511,-3.1511,-3.1525,-3.2146,-3.2428,-3.2517,-3.3862,-3.4112,-3.3712,-3.506,-3.5256,-3.4807,-3.5386,-3.56,-3.56,-3.56,-3.56,-3.5403,-3.418,-3.4129,-3.4249,-3.2287,-3.2118,-3.2443,-3.1717,-3.1511,-3.1511,-3.1511,-3.1511,-3.1511,-3.1511,-3.1511,-3.1511,-3.1511,-3.1511,-3.1511,-3.1511,-3.1511,-3.1511,-3.1511,-3.1511,-3.1511,-3.1511,-3.1511,-3.1511,-3.1511,0.0,-3.2104,-3.3313,-3.3633,-3.4235,-3.549,-3.6337,-3.6897,-3.7134,-3.8278,-3.9039,-3.9157,-3.9757,-4.0096,-4.0096,-4.0096,-4.0096,-4.0096,-4.0832,-4.1271,-4.139,-4.276,-4.3443,-4.3606,-4.4282,-4.4615,-4.4615,-4.4615,-4.4615,-4.4615,-4.4615,-4.4615,-4.4615,-4.4615,-4.4615,-4.4615,-4.4733,-4.5229,-4.5974,-0.93,-1.0905,-1.2384,-1.2674,-1.3839,-1.5204,-1.6599,-1.8009,-1.9329,-2.045,-2.1419,-2.2364,-2.3396,-2.4421,-2.5399,-2.6427,-2.7137,-2.79,-2.8731,-2.8792,-2.9563,-3.1224,-3.1313,-3.1378,-3.1511,-3.1511,-3.1511,-3.1511,-3.1511,-3.1511,-3.1511,-3.1511,-3.1511,-3.1511,-3.1628,-3.1658,-3.1776,-3.3157,-3.371,-3.3712,-3.506,-3.5526,-3.5476,-3.5566,-3.56,-3.56,-3.56,-3.56,-3.5493,-3.4718,-3.4515,-3.4335,-3.2893,-3.252,-3.2443,-3.1717,-3.1511,-3.1511,-3.1511,-3.1511,-3.1511,-3.1511,-3.1511,-3.1511,-3.1511,-3.1511,-3.1511,-3.1511,-3.1511,-3.1511,-3.1511,-3.1511,-3.1511,-3.1511,-3.1511,-3.1511,-3.1511,0.0,-3.252,-3.2749,-3.3761,-3.4774,-3.5596,-3.635,-3.732,-3.8548,-3.8853,-3.9259,-3.991,-4.0045,-4.0096,-4.0096,-4.0096,-4.0096,-4.0096,-4.0832,-4.1508,-4.2134,-4.2997,-4.3775,-4.4429,-4.4547,-4.4615,-4.4615,-4.4615,-4.4615,-4.4615,-4.4615,-4.4615,-4.4615,-4.4615,-4.4615,-4.4682,-4.5297,-4.5991,-4.6718,-0.9311,-1.1057,-1.2621,-1.2765,-1.4518,-1.615,-1.679,-1.8581,-2.0207,-2.1216,-2.2216,-2.3203,-2.4186,-2.5223,-2.5977,-2.644,-2.7236,-2.8062,-2.8939,-2.8995,-2.9751,-3.1438,-3.1086,-3.104,-3.1496,-3.1511,-3.1511,-3.1511,-3.1511,-3.1511,-3.1511,-3.1511,-3.1511,-3.1511,-3.1511,-3.171,-3.215,-3.3163,-3.3804,-3.4232,-3.5205,-3.56,-3.56,-3.56,-3.56,-3.56,-3.56,-3.56,-3.5493,-3.4824,-3.4842,-3.4904,-3.3565,-3.3147,-3.3008,-3.2294,-3.1806,-3.1511,-3.1511,-3.1511,-3.1511,-3.1511,-3.1511,-3.1511,-3.1511,-3.1511,-3.1511,-3.1511,-3.1511,-3.1511,-3.1511,-3.1511,-3.1511,-3.1511,-3.1511,0.0,-3.1511,-3.1796,-3.2132,-3.2559,-3.3804,-3.4928,-3.5622,-3.7073,-3.8261,-3.8937,-3.9385,-3.974,-4.0079,-4.0096,-4.0096,-4.0096,-4.0096,-4.0299,-4.0679,-4.1424,-4.2151,-4.2912,-4.3673,-4.4231,-4.4615,-4.4615,-4.4615,-4.4615,-4.4615,-4.4615,-4.4615,-4.4615,-4.4615,-4.4615,-4.4615,-4.4615,-4.4699,-4.5432,-4.616,-4.6904,-0.9365,-1.1251,-1.2943,-1.3319,-1.5328,-1.7007,-1.7327,-1.9221,-2.0931,-2.1871,-2.2893,-2.3872,-2.4904,-2.5899,-2.6577,-2.6765,-2.7538,-2.8379,-2.9256,-2.949,-3.0162,-3.1437,-3.0908,-3.0878,-3.1496,-3.1511,-3.1511,-3.1511,-3.1511,-3.1511,-3.1511,-3.1511,-3.1511,-3.1511,-3.1511,-3.191,-3.2656,-3.3319,-3.4002,-3.466,-3.5321,-3.56,-3.56,-3.56,-3.56,-3.56,-3.56,-3.56,-3.5509,-3.5004,-3.5166,-3.5403,-3.4214,-3.3721,-3.345,-3.2806,-3.2072,-3.1511,-3.1511,-3.1511,-3.1511,-3.1511,-3.1511,-3.1511,-3.1511,-3.1511,-3.1511,-3.1511,-3.1511,-3.1511,-3.1511,-3.1511,-3.1511,-3.1511,0.0,-3.1511,-3.1511,-3.1511,-3.1771,-3.2486,-3.3666,-3.4819,-3.5862,-3.7636,-3.8865,-3.9225,-3.9791,-4.0096,-4.0096,-4.0096,-4.0096,-4.0096,-4.0282,-4.0629,-4.1204,-4.21,-4.2844,-4.3392,-4.4215,-4.4615,-4.4615,-4.4615,-4.4615,-4.4615,-4.4615,-4.4615,-4.4615,-4.4615,-4.4615,-4.4615,-4.4615,-4.4716,-4.4942,-4.5686,-4.6413,-4.7158,-0.9637,-1.1343,-1.3294,-1.4852,-1.6109,-1.7336,-1.8638,-1.9855,-2.0924,-2.1893,-2.2877,-2.3877,-2.4885,-2.5888,-2.6786,-2.7558,-2.8406,-2.9265,-3.0152,-3.0896,-3.1378,-3.1496,-3.1437,-3.1437,-3.1511,-3.1511,-3.1511,-3.1511,-3.1511,-3.1511,-3.1511,-3.1511,-3.1511,-3.1511,-3.1511,-3.191,-3.2652,-3.331,-3.399,-3.466,-3.5321,-3.56,-3.56,-3.56,-3.56,-3.56,-3.56,-3.56,-3.5583,-3.5526,-3.5566,-3.5476,-3.4734,-3.4101,-3.3481,-3.2817,-3.2072,-3.1511,-3.1511,-3.1511,-3.1511,-3.1511,-3.1511,-3.1511,-3.1511,-3.1511,-3.1511,-3.1511,-3.1511,-3.1511,-3.1511,-3.1511,-3.1511,-3.1511,0.0,0.0,-3.1511,-3.1511,-3.1764,-3.2421,-3.3165,-3.4422,-3.6529,-3.7426,-3.8465,-3.991,-4.0079,-4.0096,-4.0096,-4.0096,-4.0096,-4.0096,-4.0747,-4.1153,-4.1204,-4.2625,-4.3341,-4.3392,-4.4215,-4.4615,-4.4615,-4.4615,-4.4615,-4.4615,-4.4615,-4.4615,-4.4615,-4.4615,-4.4615,-4.4615,-4.4615,-4.501,-4.572,-4.6447,-4.7192,-4.7906,-0.9693,-1.1641,-1.3728,-1.506,-1.6316,-1.7582,-1.8829,-2.0391,-2.1811,-2.2813,-2.3818,-2.4791,-2.5818,-2.6714,-2.7352,-2.7662,-2.8989,-2.9955,-3.028,-3.1058,-3.1511,-3.1511,-3.1511,-3.1511,-3.1511,-3.1511,-3.1511,-3.1511,-3.1511,-3.1511,-3.1511,-3.1511,-3.1511,-3.1524,-3.1979,-3.2586,-3.3261,-3.3932,-3.4622,-3.5245,-3.5487,-3.56,-3.56,-3.56,-3.56,-3.56,-3.56,-3.56,-3.56,-3.56,-3.56,-3.5566,-3.5313,-3.4774,-3.4024,-3.2931,-3.2412,-3.2072,-3.1628,-3.1511,-3.1511,-3.1511,-3.1511,-3.1511,-3.1511,-3.1511,-3.1511,-3.1511,-3.1511,-3.1511,-3.1511,-3.1511,-3.1511,-3.1511,0.0,-3.1511,-3.1511,-3.1854,-3.2198,-3.2452,-3.3872,-3.5136,-3.5956,-3.7105,-3.822,-3.9272,-3.9342,-3.9584,-4.007,-4.0096,-4.0316,-4.0764,-4.1491,-4.188,-4.188,-4.2895,-4.3656,-4.4147,-4.4462,-4.4615,-4.4615,-4.4615,-4.4615,-4.4615,-4.4615,-4.4615,-4.4615,-4.4615,-4.4615,-4.4615,-4.4615,-4.5043,-4.5788,-4.6532,-4.7276,-4.799,-1.0365,-1.2444,-1.4503,-1.5715,-1.6968,-1.8301,-1.9728,-2.1104,-2.2478,-2.3818,-2.4564,-2.5464,-2.6735,-2.7367,-2.7941,-2.8474,-2.962,-3.0413,-3.0658,-3.119,-3.1511,-3.1511,-3.1511,-3.1511,-3.1511,-3.1511,-3.1622,-3.185,-3.1845,-3.1862,-3.1862,-3.1851,-3.1853,-3.1881,-3.2382,-3.3093,-3.3937,-3.4406,-3.5005,-3.56,-3.56,-3.56,-3.5616,-3.5893,-3.5994,-3.6011,-3.6243,-3.6305,-3.6322,-3.6322,-3.6322,-3.6322,-3.6322,-3.569,-3.4724,-3.3587,-3.2956,-3.2502,-3.1983,-3.1673,-3.1511,-3.1511,-3.1511,-3.1511,-3.1511,-3.1511,-3.1511,-3.1511,-3.1511,-3.1511,-3.1511,-3.1511,-3.1511,-3.1511,-3.1676,-3.181,-3.1809,-3.2378,-3.2901,-3.3095,-3.4395,-3.543,-3.5857,-3.6847,-3.7847,-3.8827,-3.8908,-3.9262,-4.0045,-4.0333,-4.0679,-4.1187,-4.2134,-4.2642,-4.2642,-4.3403,-4.4045,-4.4615,-4.4615,-4.4615,-4.4615,-4.4615,-4.4615,-4.4615,-4.4615,-4.4615,-4.4615,-4.4615,-4.4615,-4.4632,-4.4869,-4.5399,-4.6126,-4.687,-4.7614,-4.8342,-1.1776,-1.3838,-1.5725,-1.7074,-1.823,-1.9689,-2.1687,-2.2,-2.2739,-2.4743,-2.5004,-2.5697,-2.7491,-2.7722,-2.8399,-3.0147,-3.031,-3.0651,-3.1439,-3.1511,-3.1511,-3.1511,-3.1511,-3.1511,-3.1511,-3.1496,-3.1863,-3.2596,-3.2599,-3.2596,-3.2596,-3.2606,-3.2629,-3.2629,-3.2614,-3.3365,-3.46,-3.4616,-3.5005,-3.5616,-3.5616,-3.5616,-3.5701,-3.6485,-3.6812,-3.6903,-3.7647,-3.79,-3.7894,-3.7894,-3.7894,-3.7894,-3.7894,-3.6899,-3.56,-3.4897,-3.3716,-3.262,-3.2635,-3.2087,-3.1511,-3.1511,-3.1511,-3.1511,-3.1511,-3.1511,-3.1511,-3.1511,-3.1511,-3.1511,-3.1525,-3.1525,-3.1511,-3.1525,-3.2065,-3.2512,-3.2512,-3.3095,-3.3739,-3.4429,-3.4503,-3.5058,-3.6461,-3.6569,-3.7247,-3.8772,-3.8908,-3.9262,-4.0062,-4.0798,-4.1221,-4.1221,-4.2632,-4.3392,-4.3392,-4.4198,-4.4615,-4.4615,-4.4615,-4.4615,-4.4615,-4.4615,-4.4615,-4.4615,-4.4615,-4.4615,-4.4615,-4.4615,-4.4615,-4.4682,-4.5415,-4.616,-4.6887,-4.7648,-4.8376,-4.9001,-1.1846,-1.396,-1.5952,-1.7115,-1.823,-1.9689,-2.1687,-2.259,-2.3514,-2.4826,-2.5616,-2.6483,-2.7571,-2.8256,-2.9054,-3.0195,-3.0832,-3.1235,-3.1482,-3.1511,-3.1511,-3.1511,-3.1511,-3.1511,-3.1511,-3.2004,-3.2377,-3.2615,-3.3061,-3.331,-3.3302,-3.3297,-3.3287,-3.3313,-3.3786,-3.4235,-3.4673,-3.5689,-3.6255,-3.6485,-3.7009,-3.7229,-3.7222,-3.7483,-3.7567,-3.7601,-3.7835,-3.7899,-3.7902,-3.7902,-3.7905,-3.7915,-3.7915,-3.7599,-3.7105,-3.6372,-3.5874,-3.5439,-3.4958,-3.4313,-3.3381,-3.188,-3.1511,-3.1511,-3.1511,-3.1511,-3.1511,-3.1511,-3.1511,-3.1649,-3.2105,-3.2193,-3.2348,-3.2823,-3.3063,-3.32,-3.32,-3.3769,-3.4294,-3.4488,-3.4906,-3.5362,-3.5799,-3.5831,-3.6477,-3.7991,-3.9129,-4.0069,-4.0832,-4.1085,-4.1677,-4.2699,-4.3156,-4.3673,-4.4231,-4.4496,-4.4615,-4.4615,-4.4615,-4.4615,-4.4615,-4.4615,-4.4615,-4.4615,-4.4615,-4.4615,-4.4615,-4.4615,-4.4919,-4.5399,-4.5618,-4.6481,-4.7614,-4.7804,-4.8376,-4.9001,-1.3115,-1.5061,-1.6683,-1.7779,-1.9207,-2.072,-2.2366,-2.3452,-2.4576,-2.5881,-2.6607,-2.7417,-2.8588,-2.9202,-2.9851,-3.0715,-3.1234,-3.1511,-3.1511,-3.1511,-3.1638,-3.1916,-3.1921,-3.1938,-3.1938,-3.262,-3.3125,-3.3403,-3.381,-3.4007,-3.3987,-3.3987,-3.4133,-3.4434,-3.4857,-3.5372,-3.5969,-3.6868,-3.7229,-3.7263,-3.7719,-3.7905,-3.7939,-3.8227,-3.8345,-3.8379,-3.8667,-3.8768,-3.8768,-3.8768,-3.8756,-3.8765,-3.8765,-3.8564,-3.8246,-3.7797,-3.7273,-3.6707,-3.6319,-3.545,-3.4391,-3.3096,-3.2511,-3.2294,-3.2294,-3.2294,-3.2299,-3.2287,-3.2285,-3.2415,-3.282,-3.2884,-3.3016,-3.3434,-3.3737,-3.3888,-3.3888,-3.4457,-3.4891,-3.4891,-3.525,-3.5504,-3.5504,-3.5504,-3.6148,-3.7677,-3.9232,-4.0438,-4.1161,-4.1762,-4.2462,-4.3358,-4.3724,-4.4096,-4.4615,-4.4615,-4.4615,-4.4615,-4.4615,-4.4615,-4.4615,-4.4615,-4.4615,-4.4615,-4.4615,-4.4615,-4.4615,-4.4615,-4.5026,-4.5737,-4.6024,-4.687,-4.7922,-4.824,-4.8629,-4.9001,-1.5043,-1.6642,-1.7827,-1.8948,-2.072,-2.2366,-2.3478,-2.448,-2.5755,-2.7458,-2.7769,-2.846,-3.0103,-3.0293,-3.0625,-3.1424,-3.1511,-3.1511,-3.1511,-3.1553,-3.189,-3.2574,-3.271,-3.2761,-3.2761,-3.3361,-3.4007,-3.46,-3.4664,-3.4721,-3.4811,-3.4811,-3.5184,-3.5894,-3.5894,-3.6652,-3.7905,-3.7973,-3.8007,-3.8007,-3.8075,-3.8108,-3.8176,-3.8836,-3.9089,-3.9174,-3.9859,-4.0096,-4.0096,-4.0096,-4.0096,-4.0096,-4.0096,-3.9632,-3.9101,-3.9101,-3.8146,-3.7078,-3.7078,-3.6074,-3.4989,-3.4967,-3.4316,-3.3658,-3.3523,-3.3508,-3.3501,-3.3495,-3.3492,-3.3519,-3.3572,-3.3593,-3.3596,-3.3663,-3.4173,-3.4593,-3.4593,-3.5115,-3.5504,-3.5504,-3.5504,-3.5504,-3.5504,-3.5619,-3.6305,-3.7786,-3.9343,-4.055,-4.1364,-4.2665,-4.3426,-4.3494,-4.4215,-4.4615,-4.4615,-4.4615,-4.4615,-4.4615,-4.4615,-4.4615,-4.4615,-4.4615,-4.4615,-4.4615,-4.4615,-4.4615,-4.4615,-4.4682,-4.5128,-4.5872,-4.6599,-4.7361,-4.8075,-4.8748,-4.9001,-4.9001,-1.5384,-1.7285,-1.8939,-1.9915,-2.1161,-2.259,-2.4409,-2.5426,-2.6417,-2.7557,-2.8298,-2.9129,-3.0178,-3.0297,-3.0613,-3.1424,-3.1511,-3.1511,-3.1511,-3.2035,-3.2422,-3.2594,-3.3617,-3.4161,-3.4161,-3.4317,-3.4462,-3.46,-3.5121,-3.5727,-3.6316,-3.6316,-3.672,-3.7403,-3.7403,-3.7617,-3.7939,-3.8514,-3.8751,-3.8802,-3.9402,-3.9622,-3.9656,-3.9808,-3.9859,-3.9893,-4.0045,-4.0096,-4.0096,-4.0096,-4.0096,-4.0096,-4.0096,-4.0003,-3.9876,-3.9876,-3.9632,-3.9396,-3.9396,-3.8271,-3.714,-3.7126,-3.6105,-3.4805,-3.375,-3.3507,-3.3485,-3.3495,-3.3512,-3.3659,-3.4194,-3.4297,-3.4455,-3.4996,-3.519,-3.528,-3.528,-3.5415,-3.5504,-3.5504,-3.5504,-3.5504,-3.5504,-3.66,-3.7694,-3.8603,-4.0084,-4.1536,-4.2851,-4.3223,-4.369,-4.4316,-4.4513,-4.4615,-4.4615,-4.4615,-4.4615,-4.4615,-4.4615,-4.4615,-4.4615,-4.4615,-4.4615,-4.4615,-4.4615,-4.4615,-4.4649,-4.5213,-4.5889,-4.6633,-4.7378,-4.8122,-4.8781,-4.8951,-4.9001,-4.9001,-1.6142,-1.8186,-1.9964,-2.0998,-2.2408,-2.394,-2.5403,-2.6395,-2.7439,-2.8766,-2.9348,-2.995,-3.0777,-3.0866,-3.1029,-3.1467,-3.1824,-3.2033,-3.2013,-3.2687,-3.3218,-3.353,-3.4219,-3.4759,-3.5075,-3.5075,-3.5075,-3.5075,-3.5801,-3.6383,-3.6812,-3.7144,-3.7719,-3.843,-3.843,-3.8616,-3.8971,-3.9343,-3.9512,-3.9571,-3.9943,-4.0096,-4.0096,-4.0096,-4.0096,-4.0096,-4.0096,-4.0096,-4.0096,-4.0096,-4.0096,-4.0096,-4.0096,-4.0096,-4.0096,-4.0096,-4.0096,-4.0096,-4.0096,-3.9228,-3.8322,-3.8326,-3.7436,-3.6216,-3.4782,-3.444,-3.444,-3.444,-3.4453,-3.4567,-3.4904,-3.4974,-3.5085,-3.5444,-3.5504,-3.5504,-3.5504,-3.5504,-3.5504,-3.5504,-3.5504,-3.5504,-3.5504,-3.6863,-3.806,-3.8843,-4.0654,-4.2204,-4.3341,-4.3775,-4.4164,-4.4598,-4.4615,-4.4615,-4.4615,-4.4615,-4.4615,-4.4615,-4.4615,-4.4615,-4.4615,-4.4615,-4.4615,-4.4615,-4.4615,-4.4818,-4.5145,-4.5551,-4.6346,-4.7361,-4.7767,-4.8359,-4.9001,-4.9001,-4.9001,-4.9001,-1.7382,-1.9358,-2.1064,-2.2317,-2.4024,-2.5533,-2.6404,-2.7439,-2.8652,-3.0103,-3.0419,-3.0777,-3.1438,-3.1511,-3.1553,-3.1697,-3.2244,-3.2648,-3.2761,-3.3389,-3.4023,-3.457,-3.4718,-3.5118,-3.5785,-3.5825,-3.5825,-3.5825,-3.6468,-3.6931,-3.7202,-3.7804,-3.8481,-3.9174,-3.9174,-3.9537,-4.0096,-4.0096,-4.0096,-4.0096,-4.0096,-4.0096,-4.0096,-4.0096,-4.0096,-4.0096,-4.0096,-4.0096,-4.0096,-4.0096,-4.0096,-4.0096,-4.0096,-4.0096,-4.0096,-4.0096,-4.0096,-4.0096,-4.0096,-3.9505,-3.889,-3.8893,-3.8355,-3.742,-3.6013,-3.5688,-3.5638,-3.5537,-3.5504,-3.5504,-3.5504,-3.5504,-3.5504,-3.5504,-3.5504,-3.5504,-3.5504,-3.5504,-3.5504,-3.5504,-3.5609,-3.5734,-3.5866,-3.7216,-3.8464,-3.942,-4.1349,-4.2817,-4.3578,-4.4231,-4.4615,-4.4615,-4.4615,-4.4615,-4.4615,-4.4615,-4.4615,-4.4615,-4.4615,-4.4615,-4.4615,-4.4615,-4.4615,-4.4615,-4.4615,-4.501,-4.572,-4.5838,-4.6701,-4.7906,-4.8024,-4.8477,-4.9001,-4.9001,-4.9001,-4.9001,-1.9575,-2.0959,-2.2392,-2.4264,-2.5426,-2.6438,-2.7378,-2.8894,-3.0042,-3.0269,-3.0896,-3.138,-3.1511,-3.1511,-3.1768,-3.241,-3.2532,-3.2868,-3.3437,-3.4096,-3.4511,-3.4589,-3.5174,-3.5836,-3.6626,-3.6643,-3.6643,-3.6643,-3.6745,-3.7455,-3.87,-3.8802,-3.9225,-3.996,-3.996,-4.0011,-4.0096,-4.0096,-4.0096,-4.0096,-4.0096,-4.0096,-4.0096,-4.0096,-4.0096,-4.0096,-4.0096,-4.0096,-4.0096,-4.0096,-4.0096,-4.0096,-4.0096,-4.0096,-4.0096,-4.0096,-4.0096,-4.0096,-4.0096,-3.9505,-3.8891,-3.8902,-3.8344,-3.7568,-3.6638,-3.6444,-3.6261,-3.5621,-3.5504,-3.5504,-3.5504,-3.5504,-3.5504,-3.5504,-3.5504,-3.5504,-3.5504,-3.5504,-3.5504,-3.5504,-3.6013,-3.6642,-3.734,-3.8731,-4.024,-4.1723,-4.2724,-4.3597,-4.4384,-4.4547,-4.4615,-4.4615,-4.4615,-4.4615,-4.4615,-4.4615,-4.4615,-4.4615,-4.4615,-4.4615,-4.4615,-4.4615,-4.4615,-4.4615,-4.4615,-4.501,-4.5754,-4.6397,-4.7141,-4.7939,-4.8612,-4.8917,-4.9001,-4.9001,-4.9001,-4.9001,-2.0004,-2.1721,-2.3294,-2.4755,-2.6146,-2.7385,-2.8298,-2.9473,-3.045,-3.0896,-3.1278,-3.1668,-3.2064,-3.2104,-3.2394,-3.3093,-3.3172,-3.3443,-3.4112,-3.48,-3.5161,-3.5161,-3.5874,-3.6434,-3.6795,-3.7195,-3.7618,-3.8024,-3.8024,-3.8345,-3.9005,-3.9436,-3.9791,-4.0096,-4.0096,-4.0096,-4.0096,-4.0096,-4.0096,-4.0096,-4.0096,-4.0096,-4.0096,-4.0096,-4.0096,-4.0096,-4.0096,-4.0096,-4.0096,-4.0096,-4.0096,-4.0096,-4.0096,-4.0096,-4.0096,-4.0096,-4.0096,-4.0096,-4.0096,-3.9834,-3.9581,-3.9581,-3.9326,-3.8749,-3.7537,-3.728,-3.6931,-3.575,-3.5504,-3.5504,-3.5504,-3.5504,-3.5504,-3.5504,-3.5504,-3.5504,-3.5504,-3.5504,-3.5639,-3.6013,-3.6312,-3.6763,-3.7463,-3.9345,-4.0821,-4.1511,-4.3139,-4.4215,-4.4581,-4.4615,-4.4615,-4.4615,-4.4615,-4.4615,-4.4615,-4.4615,-4.4615,-4.4615,-4.4615,-4.4615,-4.4615,-4.4615,-4.4615,-4.4632,-4.5026,-4.5635,-4.6363,-4.7107,-4.7868,-4.8562,-4.8883,-4.9001,-4.9001,-4.9001,-4.9001,-4.9001]},{"header":{"parameterUnit":"m.s-1","parameterCategory":1,"la1":30.6,"la2":28.766,"lo1":-90.7593,"lo2":-88.6598,"dy":0.0162,"dx":0.0183,"nx":116,"ny":114,"refTime":"2023-11-06T06:00:00:Z","depth":0,"parameterNumber":3,"parameterNumberName":"V-component_of_WINDS"},"data":[0.0,0.0,0.0,0.0,0.0,0.0,0.0,0.0,0.0,0.0,0.0,0.0,0.0,0.0,0.0,0.0,0.0,0.0,0.0,0.0,0.0,0.0,0.0,0.0,0.0,0.0,0.0,0.0,0.0,0.0,0.0,0.0,0.0,0.0,0.0,0.0,0.0,0.0,0.0,0.0,0.0,0.0,0.0,0.0,0.0,0.0,0.0,0.0,0.0,0.0,0.0,0.0,0.0,0.0,0.0,0.0,0.0,0.0,0.0,0.0,0.0,0.0,0.0,0.0,0.0,0.0,0.0,0.0,0.0,0.0,0.0,0.0,0.0,0.0,0.0,0.0,0.0,0.0,0.0,0.0,0.0,0.0,0.0,0.0,0.0,0.0,0.0,0.0,0.0,0.0,0.0,0.0,0.0,0.0,0.0,0.0,0.0,0.0,0.0,0.0,0.0,0.0,0.0,0.0,0.0,0.0,0.0,0.0,0.0,0.0,0.0,0.0,0.0,0.0,0.0,0.0,0.0,0.0,0.0,0.0,0.0,0.0,0.0,0.0,0.0,0.0,0.0,0.0,0.0,0.0,0.0,0.0,0.0,0.0,0.0,0.0,0.0,0.0,0.0,0.0,0.0,0.0,0.0,0.0,0.0,0.0,0.0,0.0,0.0,0.0,0.0,0.0,0.0,0.0,0.0,0.0,0.0,0.0,0.0,0.0,0.0,0.0,0.0,0.0,0.0,0.0,0.0,0.0,0.0,0.0,0.0,0.0,0.0,0.0,0.0,0.0,0.0,0.0,0.0,0.0,0.0,0.0,0.0,0.0,0.0,0.0,0.0,0.0,0.0,0.0,0.0,0.0,0.0,0.0,0.0,0.0,0.0,0.0,0.0,0.0,0.0,0.0,0.0,0.0,0.0,0.0,0.0,0.0,0.0,0.0,0.0,0.0,0.0,0.0,0.0,0.0,0.0,0.0,0.0,0.0,0.0,0.0,0.0,0.0,0.0,0.0,0.0,0.0,0.0,0.0,0.0,0.0,0.0,0.0,0.0,0.0,0.0,0.0,0.0,0.0,0.0,0.0,0.0,0.0,0.0,0.0,0.0,0.0,0.0,0.0,0.0,0.0,0.0,0.0,0.0,0.0,0.0,0.0,0.0,0.0,0.0,0.0,0.0,0.0,0.0,0.0,0.0,0.0,0.0,0.0,0.0,0.0,0.0,0.0,0.0,0.0,0.0,0.0,0.0,0.0,0.0,0.0,0.0,0.0,0.0,0.0,0.0,0.0,0.0,0.0,0.0,0.0,0.0,0.0,0.0,0.0,0.0,0.0,0.0,0.0,0.0,0.0,0.0,0.0,0.0,0.0,0.0,0.0,0.0,0.0,0.0,0.0,0.0,0.0,0.0,0.0,0.0,0.0,0.0,0.0,0.0,0.0,0.0,0.0,0.0,0.0,0.0,0.0,0.0,0.0,0.0,0.0,0.0,0.0,0.0,0.0,0.0,0.0,0.0,0.0,0.0,0.0,0.0,0.0,0.0,0.0,0.0,0.0,0.0,0.0,0.0,0.0,0.0,0.0,0.0,0.0,0.0,0.0,0.0,0.0,0.0,0.0,0.0,0.0,0.0,0.0,0.0,0.0,0.0,0.0,0.0,0.0,0.0,0.0,0.0,0.0,0.0,0.0,0.0,0.0,0.0,0.0,0.0,0.0,0.0,0.0,0.0,0.0,0.0,0.0,0.0,0.0,0.0,0.0,0.0,0.0,0.0,0.0,0.0,0.0,0.0,0.0,0.0,0.0,0.0,0.0,0.0,0.0,0.0,0.0,0.0,0.0,0.0,0.0,0.0,0.0,0.0,0.0,0.0,0.0,0.0,0.0,0.0,0.0,0.0,0.0,0.0,0.0,0.0,0.0,0.0,0.0,0.0,0.0,0.0,0.0,0.0,0.0,0.0,0.0,0.0,0.0,0.0,0.0,0.0,0.0,0.0,0.0,0.0,0.0,0.0,0.0,0.0,0.0,0.0,0.0,0.0,0.0,0.0,0.0,0.0,0.0,0.0,0.0,0.0,0.0,0.0,0.0,0.0,0.0,0.0,0.0,0.0,0.0,0.0,0.0,0.0,0.0,0.0,0.0,0.0,0.0,0.0,0.0,0.0,0.0,0.0,0.0,0.0,0.0,0.0,0.0,0.0,0.0,0.0,0.0,0.0,0.0,0.0,0.0,0.0,0.0,0.0,0.0,0.0,0.0,0.0,0.0,0.0,0.0,0.0,0.0,0.0,0.0,0.0,0.0,0.0,0.0,0.0,0.0,0.0,0.0,0.0,0.0,0.0,0.0,0.0,0.0,0.0,0.0,0.0,0.0,0.0,0.0,0.0,0.0,0.0,0.0,0.0,0.0,0.0,0.0,0.0,0.0,0.0,0.0,0.0,0.0,0.0,0.0,0.0,0.0,0.0,0.0,0.0,0.0,0.0,0.0,0.0,0.0,0.0,0.0,0.0,0.0,0.0,0.0,0.0,0.0,0.0,0.0,0.0,0.0,0.0,0.0,0.0,0.0,0.0,0.0,0.0,0.0,0.0,0.0,0.0,0.0,0.0,0.0,0.0,0.0,0.0,0.0,0.0,0.0,0.0,0.0,0.0,0.0,0.0,0.0,0.0,0.0,0.0,0.0,0.0,0.0,0.0,0.0,0.0,0.0,0.0,0.0,0.0,0.0,0.0,0.0,0.0,0.0,0.0,0.0,0.0,0.0,0.0,0.0,0.0,0.0,0.0,0.0,0.0,0.0,0.0,0.0,0.0,0.0,0.0,0.0,0.0,0.0,0.0,0.0,0.0,0.0,0.0,0.0,0.0,0.0,0.0,0.0,0.0,0.0,0.0,0.0,0.0,0.0,0.0,0.0,0.0,0.0,0.0,0.0,0.0,0.0,0.0,0.0,0.0,0.0,0.0,0.0,0.0,0.0,0.0,0.0,0.0,0.0,0.0,0.0,0.0,0.0,0.0,0.0,0.0,0.0,0.0,0.0,0.0,0.0,0.0,0.0,0.0,0.0,0.0,0.0,0.0,0.0,0.0,0.0,0.0,0.0,0.0,0.0,0.0,0.0,0.0,0.0,0.0,0.0,0.0,0.0,0.0,0.0,0.0,0.0,0.0,0.0,0.0,0.0,0.0,0.0,0.0,0.0,0.0,0.0,0.0,0.0,0.0,0.0,0.0,0.0,0.0,0.0,0.0,0.0,0.0,0.0,0.0,0.0,0.0,0.0,0.0,0.0,0.0,0.0,0.0,0.0,0.0,0.0,0.0,0.0,0.0,0.0,0.0,0.0,0.0,0.0,0.0,0.0,0.0,0.0,0.0,0.0,0.0,0.0,0.0,0.0,0.0,0.0,0.0,0.0,0.0,0.0,0.0,0.0,0.0,0.0,0.0,0.0,0.0,0.0,0.0,0.0,0.0,0.0,0.0,0.0,0.0,0.0,0.0,0.0,0.0,0.0,0.0,0.0,0.0,0.0,0.0,0.0,0.0,0.0,0.0,0.0,0.0,0.0,0.0,0.0,0.0,0.0,0.0,0.0,0.0,0.0,0.0,0.0,0.0,0.0,0.0,0.0,0.0,0.0,0.0,0.0,0.0,0.0,0.0,0.0,0.0,0.0,0.0,0.0,0.0,0.0,0.0,0.0,0.0,0.0,0.0,0.0,0.0,0.0,0.0,0.0,0.0,0.0,0.0,0.0,0.0,0.0,0.0,0.0,0.0,0.0,0.0,0.0,0.0,0.0,0.0,0.0,0.0,0.0,0.0,0.0,0.0,0.0,0.0,0.0,0.0,0.0,0.0,0.0,0.0,0.0,0.0,0.0,0.0,0.0,0.0,0.0,0.0,0.0,0.0,0.0,0.0,0.0,0.0,0.0,0.0,0.0,0.0,0.0,0.0,0.0,0.0,0.0,0.0,0.0,0.0,0.0,0.0,0.0,0.0,0.0,0.0,0.0,0.0,0.0,0.0,0.0,0.0,0.0,0.0,0.0,0.0,0.0,0.0,0.0,0.0,0.0,0.0,0.0,0.0,0.0,0.0,0.0,0.0,0.0,0.0,0.0,0.0,0.0,0.0,0.0,0.0,0.0,0.0,0.0,0.0,0.0,0.0,0.0,0.0,0.0,0.0,0.0,0.0,0.0,0.0,0.0,0.0,0.0,0.0,0.0,0.0,0.0,0.0,0.0,0.0,0.0,0.0,0.0,0.0,0.0,0.0,0.0,0.0,0.0,0.0,0.0,0.0,0.0,0.0,0.0,0.0,0.0,0.0,0.0,0.0,0.0,0.0,0.0,0.0,0.0,0.0,0.0,0.0,0.0,0.0,0.0,0.0,0.0,0.0,0.0,0.0,0.0,0.0,0.0,0.0,0.0,0.0,0.0,0.0,0.0,0.0,0.0,0.0,0.0,0.0,0.0,0.0,0.0,0.0,0.0,0.0,0.0,0.0,0.0,0.0,0.0,0.0,0.0,0.0,0.0,0.0,0.0,0.0,0.0,0.0,0.0,0.0,0.0,0.0,0.0,0.0,0.0,0.0,0.0,0.0,0.0,0.0,0.0,0.0,0.0,0.0,0.0,0.0,0.0,0.0,0.0,0.0,0.0,0.0,0.0,0.0,0.0,0.0,0.0,0.0,0.0,0.0,0.0,0.0,0.0,0.0,0.0,0.0,0.0,0.0,0.0,0.0,0.0,0.0,0.0,0.0,0.0,0.0,0.0,0.0,0.0,0.0,0.0,0.0,0.0,0.0,0.0,0.0,0.0,0.0,0.0,0.0,0.0,0.0,0.0,0.0,0.0,0.0,0.0,0.0,0.0,0.0,0.0,0.0,0.0,0.0,0.0,0.0,0.0,0.0,0.0,0.0,0.0,0.0,0.0,0.0,0.0,0.0,0.0,0.0,0.0,0.0,0.0,0.0,0.0,0.0,0.0,0.0,0.0,0.0,0.0,0.0,0.0,0.0,0.0,0.0,0.0,0.0,0.0,0.0,0.0,0.0,0.0,0.0,0.0,0.0,0.0,0.0,0.0,0.0,0.0,0.0,0.0,0.0,0.0,0.0,0.0,0.0,0.0,0.0,0.0,0.0,0.0,0.0,0.0,0.0,0.0,0.0,0.0,0.0,0.0,0.0,0.0,0.0,0.0,0.0,0.0,0.0,0.0,0.0,0.0,0.0,0.0,0.0,0.0,0.0,0.0,0.0,0.0,0.0,0.0,0.0,0.0,0.0,0.0,0.0,0.0,0.0,0.0,0.0,0.0,0.0,0.0,0.0,0.0,0.0,0.0,0.0,0.0,0.0,0.0,0.0,0.0,0.0,0.0,0.0,0.0,0.0,0.0,0.0,0.0,0.0,0.0,0.0,0.0,0.0,0.0,0.0,0.0,0.0,0.0,0.0,0.0,0.0,0.0,0.0,0.0,0.0,0.0,0.0,0.0,0.0,0.0,0.0,0.0,0.0,0.0,0.0,0.0,0.0,0.0,0.0,0.0,0.0,0.0,0.0,0.0,0.0,0.0,0.0,0.0,0.0,0.0,0.0,0.0,0.0,0.0,0.0,0.0,0.0,0.0,0.0,0.0,0.0,0.0,0.0,0.0,0.0,0.0,0.0,0.0,0.0,0.0,0.0,0.0,0.0,0.0,0.0,0.0,0.0,0.0,0.0,0.0,0.0,0.0,0.0,0.0,0.0,0.0,0.0,0.0,0.0,0.0,0.0,0.0,0.0,0.0,0.0,0.0,0.0,0.0,0.0,0.0,0.0,0.0,0.0,0.0,0.0,0.0,0.0,0.0,0.0,0.0,0.0,0.0,0.0,0.0,0.0,0.0,0.0,0.0,0.0,0.0,0.0,0.0,0.0,0.0,0.0,0.0,0.0,0.0,0.0,0.0,0.0,0.0,0.0,0.0,0.0,0.0,0.0,0.0,0.0,0.0,0.0,0.0,0.0,0.0,0.0,0.0,0.0,0.0,0.0,0.0,0.0,0.0,0.0,0.0,0.0,0.0,0.0,0.0,0.0,0.0,0.0,0.0,0.0,0.0,0.0,0.0,0.0,0.0,0.0,0.0,0.0,0.0,0.0,0.0,0.8886,0.0,0.0,0.0,0.0,0.0,0.0,0.0,0.0,0.0,0.0,0.0,0.0,0.0,0.0,0.0,0.0,0.0,0.0,0.0,0.0,0.0,0.0,0.0,0.0,0.0,0.0,0.0,0.0,0.0,0.0,0.0,0.0,0.0,0.0,0.0,0.0,0.0,0.0,0.0,1.9432,1.8541,1.7312,1.7874,1.8153,1.8193,0.0,0.0,0.0,0.0,0.0,0.0,0.0,0.0,0.0,0.0,0.0,0.0,0.0,0.0,0.0,0.0,0.0,0.0,0.0,0.0,0.0,0.0,0.0,0.0,0.0,0.0,0.0,0.0,0.0,0.0,0.0,0.0,0.0,0.0,0.0,0.0,0.0,0.0,0.0,0.0,0.0,0.0,0.0,0.0,0.0,0.0,0.0,0.0,0.0,0.0,0.0,0.0,0.0,0.0,0.0,0.0,0.0,0.0,0.0,0.0,0.0,0.0,0.0,0.0,0.0,0.0,0.0,0.0,0.0,0.0,0.0,0.9056,0.0,0.0,0.0,0.0,0.0,0.0,0.0,0.0,0.0,0.0,0.0,0.0,0.0,0.0,0.0,0.0,0.0,0.0,0.0,0.0,0.0,0.0,0.0,0.0,0.0,0.0,0.0,0.0,0.0,0.0,0.0,0.0,0.0,0.0,0.0,0.0,0.0,0.0,1.9335,1.8498,1.7173,1.7422,1.7765,1.8205,1.8004,0.0,0.0,0.0,0.0,0.0,0.0,0.0,0.0,0.0,0.0,0.0,0.0,0.0,0.0,0.0,0.0,0.0,0.0,0.0,0.0,0.0,0.0,0.0,0.0,0.0,0.0,0.0,0.0,0.0,0.0,0.0,0.0,0.0,0.0,0.0,0.0,0.0,0.0,0.0,0.0,0.0,0.0,0.0,0.0,0.0,0.0,0.0,0.0,0.0,0.0,0.0,0.0,0.0,0.0,0.0,0.0,0.0,0.0,0.0,0.0,0.0,0.0,0.0,1.3173,1.3561,1.2632,1.3646,1.3555,1.2547,1.1601,1.0313,0.889,0.889,0.0,0.0,0.0,0.0,0.0,0.0,0.0,0.0,0.0,0.0,0.0,0.0,0.0,0.0,0.0,0.0,0.0,0.0,0.0,0.0,0.0,0.0,2.5692,2.5704,2.5453,0.0,0.0,0.0,0.0,0.0,0.0,0.0,0.0,2.0585,1.9687,1.9507,1.8227,1.7258,1.6641,1.7624,1.8141,1.8205,1.8004,1.7772,1.7484,0.0,0.0,0.0,0.0,0.0,0.0,0.0,0.0,0.0,0.0,0.0,0.0,0.0,0.0,0.0,0.0,0.0,0.0,0.0,0.0,0.0,0.0,0.0,0.0,0.0,0.0,0.0,0.0,0.0,0.0,0.0,0.0,0.0,0.0,0.0,0.0,0.0,0.0,0.0,0.0,0.0,1.1124,1.1996,0.0,0.0,0.0,0.0,0.0,0.0,0.0,0.0,0.0,0.0,0.0,0.0,0.0,1.3106,1.3177,1.3638,1.3789,1.3652,1.3955,1.3997,1.3864,1.4046,1.3997,1.3864,1.3695,0.0,0.889,0.889,0.0,0.0,0.0,0.0,0.0,0.0,0.0,0.0,0.0,0.0,0.0,0.0,0.0,0.0,0.0,0.0,0.0,0.0,0.0,0.0,0.0,0.0,2.5668,2.5584,2.5407,2.5299,0.0,0.0,0.0,0.0,0.0,0.0,2.2295,2.1006,1.972,1.8418,1.7356,1.6897,1.7024,1.7827,1.8367,1.8632,1.8438,1.8289,1.8112,1.6599,0.0,0.0,0.0,0.0,0.0,0.0,0.0,0.0,0.0,0.0,0.0,0.0,0.0,0.0,0.0,0.0,0.0,0.0,0.0,0.0,0.0,0.0,0.0,0.0,0.0,0.0,0.0,0.0,0.0,0.0,0.0,0.0,0.0,0.0,0.0,0.0,0.0,0.0,0.0,1.1784,1.2299,1.2736,1.2415,1.2338,0.0,0.0,0.0,0.0,0.0,0.0,0.0,0.0,0.0,1.4102,1.377,1.3686,1.3895,1.4021,1.4088,1.4088,1.4088,1.4088,1.4088,1.4088,1.4088,1.4088,1.4088,1.2863,1.0826,1.0826,1.0135,0.9008,0.0,0.0,0.0,0.0,0.7088,0.7479,0.0,0.0,0.0,0.0,0.0,0.0,0.0,0.0,0.0,0.0,0.0,0.0,2.5536,2.5549,2.5494,2.5356,2.516,2.5015,2.5022,0.0,0.0,0.0,0.0,2.23,2.2293,2.1009,1.9354,1.733,1.6773,1.681,1.741,1.7953,1.8481,1.8995,1.8983,1.8874,1.8608,1.733,1.6337,1.5611,0.0,0.0,0.0,0.0,0.0,0.0,0.0,0.0,0.0,0.0,0.0,0.0,0.0,0.0,0.0,0.0,0.0,0.0,0.0,0.0,0.0,0.0,0.0,0.0,0.0,0.0,0.0,0.0,0.0,0.0,0.0,0.0,0.0,0.0,0.0,0.0,0.0,1.2724,1.3213,1.3213,1.3213,1.3213,0.0,0.0,0.0,0.0,0.0,0.0,1.3705,1.3473,1.3568,1.4097,1.3878,1.3861,1.4082,1.4088,1.4088,1.4088,1.4088,1.4088,1.4088,1.4088,1.4088,1.4088,1.4088,1.3597,1.2723,1.2413,1.1638,1.0481,0.9479,0.8978,0.8723,0.7552,0.7876,0.9226,0.0,0.0,0.0,0.0,0.0,0.0,0.0,0.0,0.0,0.0,0.0,2.5534,2.5347,2.5197,2.5091,2.4933,2.4523,2.4259,0.0,0.0,2.2456,2.2446,2.2346,2.231,2.2305,1.981,1.7873,1.6573,1.6509,1.681,1.741,1.7953,1.8481,1.902,1.9521,1.9371,1.8661,1.7868,1.7107,1.6425,1.6425,0.0,0.0,0.0,0.0,0.0,0.0,0.0,0.0,0.0,0.0,0.0,0.0,0.0,0.0,0.0,0.0,0.0,0.0,0.0,0.0,0.0,0.0,0.0,0.0,0.0,0.0,0.0,0.0,0.0,0.0,0.0,0.0,0.0,0.0,0.0,0.0,0.0,0.0,1.3213,1.3213,0.0,0.0,0.0,0.0,1.3213,1.3213,1.3791,1.514,1.417,1.4186,1.5542,1.4629,1.4075,1.4088,1.4088,1.4088,1.4088,1.4088,1.4088,1.4088,1.4088,1.4088,1.4088,1.4088,1.4088,1.3913,1.2766,1.1638,1.0519,0.9784,0.8554,0.7203,0.7115,0.9903,1.3163,0.0,0.0,0.0,0.0,0.0,0.0,0.0,0.0,0.0,2.5605,2.5593,2.5487,2.5197,2.4966,2.4809,2.47,2.4398,2.4192,2.4188,0.0,2.3156,2.234,2.2304,2.1129,1.8624,1.7654,1.7194,1.7215,1.6723,1.7162,1.8429,1.8268,1.8681,1.9509,1.971,1.9643,1.9371,1.8608,1.7868,1.7174,1.668,1.5584,0.0,0.0,0.0,0.0,0.0,0.0,0.0,0.0,0.0,0.0,0.0,0.0,0.0,0.0,0.0,0.0,0.0,0.0,0.0,0.0,0.0,0.0,0.0,0.0,0.0,0.0,0.0,0.0,0.0,0.0,0.0,0.0,0.0,0.0,0.0,0.0,0.0,1.3774,1.3774,0.0,1.3774,1.3774,1.3774,1.3774,1.3774,1.398,1.4483,1.413,1.4135,1.465,1.4292,1.4088,1.4088,1.4088,1.4088,1.4088,1.4088,1.4088,1.4088,1.4088,1.4088,1.4088,1.4088,1.4088,1.4088,1.3646,1.3209,1.2826,1.2552,1.2095,1.1246,0.8193,0.8146,0.9795,0.0,0.0,0.0,0.0,0.0,0.0,0.0,0.0,0.0,2.5609,2.5572,2.5423,2.5043,2.4845,2.4655,2.4482,2.4294,2.42,2.4205,0.0,2.3372,2.2962,2.253,2.11,1.8508,1.7586,1.7276,1.7598,1.6862,1.7361,1.8989,1.845,1.8781,1.9798,1.9798,1.9798,1.9747,1.9006,1.8274,1.755,1.6782,1.5584,1.4145,0.0,0.0,0.0,0.0,0.0,0.0,0.0,0.0,0.0,0.0,0.0,0.0,0.0,0.0,0.0,0.0,0.0,0.0,0.0,0.0,0.0,0.0,0.0,0.0,0.0,0.0,0.0,0.0,0.0,0.0,0.0,0.0,0.0,0.0,0.0,1.4088,1.4088,1.4088,1.4088,1.4088,1.4412,1.4657,1.4657,1.4985,1.5186,1.5186,1.4859,1.4657,1.4657,1.4292,1.4088,1.4088,1.4088,1.4088,1.4088,1.4088,1.4088,1.4088,1.4088,1.4088,1.4088,1.4088,1.4088,1.4088,1.4088,1.4088,1.4095,1.4106,1.4113,1.3714,1.0597,0.9478,0.9928,0.0,0.0,0.0,0.0,0.0,0.0,0.0,0.0,0.0,2.5607,2.5545,2.5324,2.4855,2.4788,2.4639,2.4237,2.4208,2.4198,2.4198,2.3041,0.0,2.4088,2.2914,2.223,2.2221,1.9695,1.8115,1.7575,1.6901,1.7386,1.8989,1.8463,1.8794,1.9798,1.9798,1.9798,1.9721,1.8992,1.8248,1.7495,1.6793,1.5584,1.4243,0.0,0.0,0.0,0.0,0.0,0.0,0.0,0.0,0.0,0.0,0.0,0.0,0.0,0.0,0.0,0.0,0.0,0.0,0.0,0.0,0.0,0.0,0.0,0.0,0.0,0.0,0.0,0.0,0.0,0.0,0.0,0.0,0.0,1.4088,1.4088,1.4088,1.4088,1.4088,1.413,1.413,1.5095,1.5696,1.5737,1.6723,1.7302,1.7253,1.6273,1.5696,1.5655,1.4657,1.4088,1.4088,1.4088,1.4088,1.4088,1.4088,1.4088,1.4088,1.4088,1.4088,1.4088,1.4088,1.4088,1.4088,1.4088,1.4088,1.4088,1.4088,1.4099,1.4087,1.4087,1.4087,1.4117,0.0,0.0,0.0,0.0,0.0,0.0,0.0,0.0,0.0,2.5549,2.5503,2.532,2.4853,2.4795,2.4639,2.4237,2.4198,2.4205,2.4205,0.0,2.3422,2.285,2.1275,2.04,2.0425,1.8945,1.7727,1.6801,1.7427,1.8157,1.9002,1.8834,1.9133,1.9798,1.9798,1.9501,1.8965,1.8232,1.7468,1.6782,1.6567,1.5921,1.5029,0.0,0.0,0.0,0.0,0.0,0.0,0.0,0.0,0.0,0.0,0.0,0.0,0.0,0.0,0.0,0.0,0.0,0.0,0.0,0.0,0.0,0.0,0.0,0.0,0.0,0.0,0.0,0.0,0.0,0.0,0.0,0.0,1.4088,1.4088,1.4088,1.4088,1.4088,1.4088,1.4412,1.5179,1.5538,1.6026,1.6805,1.7131,1.6968,1.6191,1.5861,1.5338,1.4573,1.425,1.4088,1.4088,1.4088,1.4088,1.4088,1.4088,1.4088,1.4088,1.4088,1.4088,1.4088,1.4088,1.4088,1.4088,1.4088,1.4088,1.4088,1.4088,1.4102,1.4079,1.4079,1.4079,1.4122,0.0,0.0,0.0,0.0,0.0,0.0,0.0,0.0,0.0,0.0,2.5491,2.5328,2.4843,2.4804,2.4639,2.4237,2.42,2.4073,2.3806,0.0,2.3305,2.1296,2.0238,1.9284,1.8374,1.7755,1.735,1.7164,1.764,1.826,1.9002,1.8999,1.9284,1.9798,1.9475,1.9097,1.8635,1.7578,1.6894,1.6464,1.6179,1.5777,1.54,1.5396,1.4648,1.368,1.4209,1.3404,1.2071,1.2035,0.0,0.0,0.0,0.0,0.0,0.0,0.0,0.0,0.0,0.0,0.0,0.0,0.0,0.0,0.0,0.0,0.0,0.0,0.0,0.0,0.0,0.0,0.0,0.0,1.4088,1.4088,1.4088,1.4088,1.4088,1.4088,1.4489,1.5019,1.5662,1.6552,1.7123,1.7293,1.8141,1.802,1.6437,1.6355,1.5869,1.4817,1.4328,1.4088,1.4088,1.4088,1.4088,1.4088,1.4088,1.4088,1.4088,1.4088,1.4088,1.4088,1.4088,1.4088,1.4088,1.4088,1.4088,0.0,0.0,0.0,0.0,0.0,1.4088,1.4088,0.0,0.0,0.0,0.0,0.0,0.0,0.0,0.0,0.0,0.0,0.0,2.5335,2.4871,2.4811,2.4647,2.4238,2.4208,2.3938,0.0,2.3543,2.2496,1.9812,1.97,1.87,1.656,1.6488,1.7034,1.8123,1.7742,1.8083,1.8992,1.9064,1.9334,1.9773,1.9044,1.8661,1.8474,1.709,1.6464,1.6322,1.5721,1.5488,1.5537,1.5997,1.5314,1.4255,1.5423,1.4385,1.2556,1.331,0.0,0.0,0.0,0.0,0.0,0.0,0.0,0.0,0.0,0.0,0.0,0.0,0.0,0.0,0.0,0.0,0.0,0.0,0.0,0.0,0.0,0.0,0.0,0.0,1.4088,1.4088,1.4088,1.4088,1.4088,1.4088,1.5061,1.5737,1.5861,1.7658,1.847,1.7738,1.9274,1.9353,1.7415,0.0,0.0,0.0,0.0,1.4088,1.4088,1.4088,1.4088,1.4088,1.4088,1.4088,1.4088,1.4088,1.4088,1.4088,1.4088,1.4088,1.4088,1.4088,1.4088,1.4088,1.4088,1.4088,1.4088,1.4088,1.4088,1.4088,0.0,0.0,0.0,0.0,0.0,0.0,0.0,0.0,0.0,2.5444,2.5461,2.536,2.4997,2.485,2.4644,2.4231,2.4196,2.4151,2.4016,2.1858,2.0307,1.9718,1.9704,1.8699,1.6553,1.6488,1.7046,1.8169,1.8516,1.8786,1.9016,1.9447,1.971,1.9773,1.9044,1.8367,1.777,1.6866,1.6151,1.5643,1.588,1.5968,1.6016,1.6436,1.6122,1.5507,1.5376,1.4494,1.3346,1.2769,1.2445,1.2305,1.2305,0.0,0.0,0.0,0.0,0.0,0.0,0.0,0.0,0.0,0.0,0.0,0.0,0.0,0.0,0.0,0.0,0.0,0.0,0.0,0.0,1.4088,1.4088,1.4088,1.4088,1.4088,1.4088,1.4088,1.5061,1.6026,1.6927,1.7374,1.827,1.9835,1.8709,1.7738,1.7334,1.6722,1.579,1.4454,1.4208,1.4088,1.4088,1.4088,1.4088,1.4088,0.0,0.0,1.4088,1.4088,1.4088,1.4088,1.4088,1.4088,1.4088,1.4088,1.4088,1.4088,1.4088,1.4088,1.4088,1.4088,1.4088,1.4088,0.0,0.0,0.0,0.0,0.0,0.0,0.0,0.0,0.0,0.0,2.5506,2.5383,2.5079,2.4961,2.4785,2.4523,2.4321,2.3925,2.3299,2.1015,1.9703,1.9696,1.97,1.8694,1.6553,1.6494,1.7067,1.8193,1.847,1.873,1.9008,1.956,1.9605,1.9228,1.8847,1.8097,1.7034,1.6652,1.6065,1.5449,1.5919,1.6232,1.6445,1.6894,1.6562,1.5916,1.5896,1.4942,1.3637,1.3164,1.2696,1.2325,1.2516,1.2382,1.2118,0.0,0.0,0.0,0.0,0.0,0.0,0.0,0.0,0.0,0.0,0.0,0.0,0.0,0.0,1.3379,0.0,0.0,1.4088,1.4088,1.4088,1.4088,1.4088,1.4573,1.4894,1.4894,1.5827,1.6927,1.8029,1.863,1.9195,1.9766,1.9274,1.8315,1.6839,1.7098,1.6327,1.417,1.4084,1.4088,1.4088,1.4088,1.4088,1.4088,1.4088,1.4088,1.4088,1.4088,1.4088,1.4088,1.4088,1.4088,1.4088,1.4088,1.4088,1.4088,1.4088,1.4088,1.4088,1.4088,1.4088,1.4088,0.0,0.0,0.0,0.0,0.0,0.0,0.0,0.0,0.0,0.0,2.5545,2.5424,2.52,2.5079,2.4949,0.0,2.431,2.3524,2.2369,2.0673,1.9703,1.9702,1.9701,1.8703,1.654,1.6502,1.7046,1.8205,1.8196,1.8543,1.9158,1.961,1.9397,1.8688,1.8555,1.7743,1.6492,1.635,1.6,1.5576,1.6016,1.6465,1.6872,1.7127,1.6754,1.6024,1.6026,1.5013,1.3673,1.3491,1.2958,1.2432,1.271,1.3038,1.3133,1.2433,1.2427,0.0,0.0,0.0,0.0,0.0,0.0,0.0,0.0,0.0,1.1515,1.3652,1.4088,1.4088,1.4088,1.4088,1.4088,1.4088,1.4088,1.4088,1.4088,1.5019,1.5786,1.5985,1.6968,1.798,1.8917,1.9766,2.0001,1.9362,1.9571,1.8818,1.6718,1.722,1.6497,1.4159,1.4088,1.412,1.412,1.4105,1.4119,1.4084,1.411,1.4088,1.4088,1.4088,1.4088,1.4088,1.4088,1.4088,1.4088,1.4088,1.4088,1.4088,1.4088,1.4088,1.4088,1.4088,1.4088,1.4088,0.0,0.0,0.0,0.0,0.0,0.0,0.0,0.0,0.0,0.0,0.0,0.0,0.0,0.0,0.0,2.4819,2.3896,2.3018,2.2339,2.0669,1.9702,1.9708,1.9706,1.8687,1.655,1.6498,1.7049,1.8201,1.8215,1.8731,1.971,1.9773,1.9397,1.8661,1.8015,1.7274,1.6464,1.5806,1.5723,1.6065,1.6475,1.6924,1.7288,1.6847,1.6608,1.6296,1.4649,1.3882,1.3564,1.2732,1.259,1.2737,1.277,1.314,1.356,1.3423,0.0,1.3428,1.1214,1.0611,1.0611,1.0611,1.1252,1.198,0.0,0.0,1.2504,1.3822,1.4088,1.4088,1.4088,1.4088,1.4088,1.4088,1.4088,1.4088,1.4088,1.5019,1.6067,1.7009,1.8109,1.8877,1.9006,1.9125,1.952,2.0362,1.8108,1.7137,1.8099,1.5875,1.4429,1.4123,1.4103,1.411,1.411,1.4083,1.411,1.411,1.4099,1.4088,1.4088,1.4088,1.4088,1.4088,1.4088,1.4088,1.4088,1.4088,1.4088,1.4088,1.4088,1.4088,1.4088,1.4088,1.4088,1.4088,0.0,0.0,0.0,0.0,0.0,0.0,0.0,0.0,0.0,0.0,0.0,0.0,0.0,0.0,0.0,2.5097,2.415,2.3182,2.2348,2.0671,1.9696,1.9696,1.8495,1.741,1.6527,1.6507,1.6732,1.7217,1.7884,1.8747,1.9798,1.9798,1.9176,1.807,1.8194,1.7346,1.5884,1.6292,1.6307,1.6153,1.6826,1.7217,1.729,1.6181,1.5799,1.5614,1.4207,1.3709,0.0,0.0,1.2536,1.2817,1.2998,1.3307,1.3633,1.3848,1.3507,0.0,1.1858,1.1595,1.1595,0.0,1.1938,1.2285,1.2285,1.2285,1.2632,1.3864,1.4088,1.4088,1.4088,1.4088,1.4088,0.0,1.4088,1.4328,1.4936,1.5951,1.705,1.8149,1.9274,1.9923,1.9923,1.9923,2.0118,2.0566,1.9455,1.9034,1.967,1.8519,1.7871,1.7871,1.787,1.7889,1.7889,1.7883,1.6593,1.4111,1.411,1.4102,1.4108,1.4084,1.4088,1.4088,1.4088,1.4088,1.4088,1.4088,1.4088,1.4088,1.4088,1.4088,1.4088,1.4088,1.4088,1.4088,0.0,0.0,0.0,0.0,0.0,0.0,0.0,0.0,0.0,0.0,0.0,0.0,0.0,0.0,2.5378,2.531,2.4376,2.3369,2.2361,2.0669,1.9701,1.9704,1.7634,1.6504,1.6494,1.65,1.6794,1.7411,1.8032,1.8843,1.9808,1.981,1.9006,1.7633,1.8167,1.728,1.5469,1.6465,1.6638,1.6318,1.708,1.7484,1.7378,1.58,1.5199,1.5021,1.3774,1.3368,0.0,0.0,1.2717,1.3033,1.326,1.3527,1.3808,1.4021,1.3252,1.2285,1.2285,1.2285,0.0,1.2723,1.2808,1.2808,1.2808,1.2808,1.3027,1.3913,1.4088,1.4088,1.4088,1.4088,1.4088,1.4088,1.4088,1.437,1.5137,1.6191,1.7253,1.839,1.9423,2.0138,2.0557,2.0605,2.0605,2.0605,2.0605,2.0605,2.0605,2.0605,2.0584,2.0584,2.0589,2.0585,2.0585,2.0588,1.9021,1.589,1.5868,1.5243,1.4104,1.4103,1.4107,1.4099,1.4099,1.4084,1.4088,1.4088,1.4088,1.4088,1.4088,1.4088,1.4088,1.4088,1.4088,1.4088,0.0,0.0,0.0,0.0,0.0,0.0,0.0,0.0,0.0,0.0,0.0,0.0,0.0,0.0,2.5378,2.531,2.4376,2.3383,2.236,2.0672,1.9713,1.969,1.7639,1.6494,1.6507,1.6494,1.7554,1.9713,1.9008,1.9072,1.9805,1.9794,1.9006,1.7605,1.7633,1.68,1.5439,1.5939,1.6349,1.6716,1.7197,1.7627,1.7774,1.5904,1.5199,1.495,1.3018,0.0,1.2808,1.2808,1.3126,1.358,1.3586,1.3834,0.0,1.4082,1.3252,1.2285,1.2285,0.0,1.2589,1.3737,1.4039,1.4039,1.4039,1.4039,1.4046,1.4088,1.4088,1.4088,1.4088,1.4088,1.4088,1.4088,1.4088,1.413,1.413,1.5054,1.615,1.7212,1.8,1.9034,0.0,2.0605,2.0605,2.0605,2.0605,2.0605,2.0605,2.0615,2.0615,2.0615,2.0586,2.0586,2.0586,2.0596,2.0531,2.0404,2.0385,1.8167,1.4102,1.4109,1.4111,1.4083,1.4083,1.4102,1.4088,1.4088,1.4088,1.4088,1.4088,1.4088,1.4088,1.4088,1.4088,1.4088,0.0,0.0,0.0,0.0,0.0,0.0,0.0,0.0,0.0,0.0,0.0,0.0,0.0,0.0,0.0,0.0,2.4376,2.3369,2.2361,1.9339,1.758,1.7587,1.8255,1.7969,1.6526,1.6502,1.6626,1.6871,1.6635,1.7144,1.8348,1.8703,1.8159,1.6894,1.7385,1.6942,1.5899,1.6318,1.6758,1.7197,1.7627,1.7881,1.7803,1.5913,1.5199,1.4974,0.0,0.0,1.2784,1.2784,1.3146,1.36,1.36,1.3848,1.3955,1.316,1.2632,1.2285,1.2285,0.0,1.2589,1.3779,1.4088,1.4088,1.4088,1.4088,1.4088,1.4088,1.4088,1.4088,1.4088,1.4088,1.4088,1.4088,1.4692,1.5179,1.5179,1.6075,1.7172,1.831,1.9265,0.0,0.0,0.0,0.0,2.0605,2.0605,2.0605,2.0605,2.0605,2.0605,2.0605,2.0605,2.0596,2.0594,2.059,1.9145,1.6301,1.9226,1.9835,1.8397,1.8397,1.8391,1.8263,1.5364,1.4097,1.4116,1.4097,1.4117,1.4116,1.4097,1.4117,1.4081,1.4081,1.4114,1.4088,0.0,0.0,0.0,0.0,0.0,0.0,0.0,0.0,0.0,0.0,0.0,0.0,0.0,0.0,0.0,0.0,0.0,2.3258,2.2362,1.9373,1.7297,1.6526,1.7819,1.7907,1.652,1.7267,1.6942,1.5416,1.5393,1.589,1.6821,1.7707,1.7533,1.6521,1.7162,1.6937,1.6134,1.6709,1.6915,1.6888,1.7339,1.7285,1.6828,1.5269,1.4745,0.0,0.0,1.2918,1.3105,1.3105,1.3394,1.376,1.376,1.3935,1.3864,1.2632,1.2589,1.2851,1.2413,1.2589,1.3118,1.3906,1.4088,1.4088,1.4088,1.4088,1.4088,1.4088,1.4088,1.4088,1.4088,1.4088,1.4088,1.4088,1.4692,1.5137,1.5137,1.5734,1.6442,1.7144,1.7857,1.8888,0.0,0.0,0.0,2.0605,2.0605,2.0605,2.0605,2.0605,2.0605,2.0605,2.0605,2.0596,2.0591,1.9054,1.7652,1.6444,1.925,2.059,2.0617,2.0617,2.0616,2.0453,1.7656,1.641,1.6314,1.4744,1.5012,1.6412,1.6424,1.6406,1.6234,1.469,1.4108,1.4088,0.0,0.0,0.0,0.0,0.0,0.0,0.0,0.0,0.0,0.0,0.0,0.0,0.0,0.0,0.0,0.0,0.0,0.0,2.234,2.0577,1.8625,1.6589,1.6498,1.6489,1.6489,1.8522,1.8187,1.5396,1.5403,1.5412,1.544,1.6843,1.7107,1.6457,1.6886,1.6717,1.6183,1.698,1.6793,1.5959,1.6414,1.6035,1.5092,1.4086,0.0,0.0,0.0,1.316,1.36,1.36,1.3841,1.4088,1.4088,1.4088,1.3864,1.2717,1.3203,1.3864,1.2717,1.3245,1.4088,1.4088,1.4088,1.4088,1.4088,1.4088,1.4088,1.4088,1.4088,1.4088,0.0,0.0,1.4088,1.4088,1.413,1.4166,1.413,1.415,1.4234,0.0,0.0,0.0,0.0,0.0,0.0,2.0605,0.0,2.0605,2.0605,2.0605,2.0605,2.0605,2.0605,2.0596,2.0591,1.6492,1.6397,2.0277,2.0474,2.0585,2.0605,2.0605,2.0605,2.0621,2.0621,2.0587,2.0276,1.6145,1.6871,2.0595,2.0585,2.0586,2.0076,1.573,1.4102,1.4088,0.0,0.0,0.0,0.0,0.0,0.0,0.0,0.0,0.0,0.0,0.0,0.0,0.0,0.0,0.0,0.0,0.0,0.0,2.2372,1.9156,1.7061,1.6515,1.6498,1.6497,1.6491,1.6507,1.6144,1.5395,1.5397,1.539,1.5419,1.5716,1.5803,1.5681,1.5343,1.5702,1.6539,1.6342,1.6355,1.6423,0.0,1.6035,1.5125,0.0,0.0,0.0,0.0,0.0,0.0,0.0,0.0,0.0,0.0,1.4088,1.4039,1.373,1.3864,1.4039,1.373,1.3864,1.4088,1.4088,1.4088,1.4088,1.4088,1.4088,1.4088,1.4088,1.4088,1.4088,0.0,0.0,0.0,1.4088,1.4776,0.0,1.4208,1.4995,0.0,1.6418,0.0,1.5826,2.0168,2.0605,0.0,0.0,2.0605,2.0605,2.0605,2.0605,2.0605,2.0605,2.0605,2.0596,2.0591,1.9503,1.7854,1.5786,1.904,2.0586,2.0605,2.0605,2.0596,2.0615,2.0615,2.0594,2.0529,1.9383,1.9576,2.0589,2.0614,2.0589,2.0079,1.5721,1.409,1.4088,0.0,0.0,0.0,0.0,0.0,0.0,0.0,0.0,0.0,0.0,0.0,0.0,0.0,0.0,0.0,0.0,0.0,0.0,0.0,1.8521,1.739,1.6548,1.6485,1.6494,1.6497,1.5775,1.5392,1.5388,1.5409,1.541,1.5381,1.4886,1.472,1.4863,1.4475,1.4792,1.5578,1.6023,0.0,0.0,0.0,0.0,0.0,0.0,0.0,0.0,0.0,0.0,0.0,0.0,0.0,1.4088,1.4088,1.4088,1.4088,1.4088,0.0,1.4088,1.4088,1.4088,1.4088,1.4088,1.4088,1.4088,1.4088,1.4088,1.4088,1.4088,1.4088,0.0,1.4088,1.4088,0.0,0.0,0.0,0.0,1.4166,1.4758,1.6127,0.0,1.7712,0.0,2.0362,2.0605,2.0605,0.0,2.0605,2.0605,2.0605,2.0605,2.0605,2.0605,2.0605,2.0586,2.0605,2.0609,1.9363,1.6996,1.9437,2.0586,2.0605,2.0605,2.0605,2.0605,0.0,2.0596,2.0497,1.9543,1.9715,2.0582,2.0614,2.0598,2.0084,1.5723,1.4104,1.4088,0.0,0.0,0.0,0.0,0.0,0.0,0.0,0.0,0.0,0.0,0.0,0.0,0.0,0.0,0.0,0.0,0.0,0.0,0.0,0.0,0.0,0.0,1.65,1.6645,1.6933,1.5942,1.5406,1.541,1.541,1.5284,1.5051,1.4198,1.3906,1.4072,1.3849,1.3875,0.0,0.0,0.0,0.0,0.0,0.0,0.0,0.0,0.0,0.0,0.0,0.0,0.0,0.0,1.4088,1.4088,1.4088,1.4088,1.4088,1.4088,1.4088,1.4088,1.4088,1.4088,1.4088,1.4088,1.4088,1.4088,1.4088,1.4088,1.4088,1.4088,0.0,1.4088,1.4088,1.4088,1.4088,1.4088,0.0,1.4082,1.4097,1.4083,1.5726,2.009,2.0593,2.0605,2.0605,2.0605,2.0605,2.0605,2.0605,2.0605,2.0605,2.0605,2.0605,2.0605,2.0605,2.0605,2.0605,2.0609,2.0609,2.0605,2.0614,2.0605,2.0605,2.0605,2.0605,2.0605,2.0391,2.043,2.043,1.8219,1.8276,1.9727,1.9755,2.008,2.0076,1.5703,1.4117,1.4088,0.0,0.0,0.0,0.0,0.0,0.0,0.0,0.0,0.0,0.0,2.5543,0.0,0.0,0.0,0.0,0.0,0.0,0.0,0.0,0.0,0.0,0.0,1.6497,1.7352,1.9204,1.6719,1.5414,1.541,1.541,1.471,1.3415,1.3692,1.3694,1.3494,1.2388,1.284,1.4484,1.5156,0.0,0.0,0.0,0.0,0.0,0.0,0.0,0.0,0.0,0.0,0.0,0.0,1.4088,1.4088,1.4088,1.4088,1.4088,1.4088,1.4088,1.4088,1.4088,1.4088,1.4088,1.4088,1.4088,1.4088,1.4088,1.4088,0.0,0.0,1.4088,1.4088,1.4088,1.4088,1.4088,1.4088,1.4088,1.4084,1.4103,1.409,1.5721,0.0,2.0615,2.0605,2.0605,2.0605,0.0,0.0,2.0605,2.0605,2.0605,2.0605,2.0605,2.0605,2.0605,2.0605,2.0605,2.0605,2.0605,2.0605,2.0605,2.0605,2.0605,2.0605,2.0605,2.0518,1.9328,0.0,2.044,1.8226,1.6477,1.5232,1.523,1.7441,2.0085,1.5707,1.4081,1.4088,0.0,0.0,0.0,0.0,0.0,0.0,0.0,0.0,0.0,2.5607,2.5547,2.5393,0.0,0.0,0.0,0.0,0.0,0.0,0.0,0.0,0.0,0.0,0.0,0.0,0.0,1.6124,1.5409,1.541,0.0,1.5027,1.4222,1.3089,1.2751,1.3068,1.2106,1.2486,1.3893,1.4273,1.4135,1.376,1.4436,1.3911,0.0,0.0,0.0,0.0,0.0,0.0,0.0,0.0,1.4088,1.4088,1.4088,1.4088,1.4088,1.4088,1.4088,1.4088,1.4088,1.4088,1.4088,1.4088,1.4088,1.4088,1.4088,0.0,0.0,0.0,1.4088,1.4088,1.4088,1.4088,0.0,1.4094,1.4122,1.4103,1.4111,1.604,0.0,2.0345,2.0595,2.0605,0.0,2.0605,2.0605,2.0605,2.0605,2.0605,2.0605,2.0605,2.0605,2.0605,2.0605,2.0605,2.0605,2.0605,2.0605,2.0605,2.0605,2.0605,2.0605,2.0605,2.0605,2.0557,1.9836,1.9963,2.0479,1.8829,1.7209,1.5669,1.4536,1.5398,1.6974,1.486,1.4082,1.4088,0.0,0.0,0.0,0.0,0.0,0.0,0.0,2.5615,2.5659,2.5595,2.5529,2.5224,2.4588,2.4309,2.3707,0.0,0.0,0.0,0.0,0.0,0.0,0.0,0.0,0.0,0.0,0.0,0.0,1.541,1.54,0.0,0.0,0.0,0.0,0.0,1.2338,1.2741,1.3525,1.3869,1.389,0.0,0.0,1.3793,0.0,0.0,0.0,0.0,0.0,0.0,0.0,0.0,1.4088,1.4088,1.4088,1.4088,1.4088,1.4088,1.4088,1.4088,1.4088,1.4088,1.4088,1.4088,1.4088,1.4088,1.4088,1.4088,0.0,0.0,1.4088,1.4088,1.4088,1.4088,1.4084,0.0,1.4864,1.549,1.5482,1.8425,2.0621,0.0,2.0596,0.0,2.0605,2.0605,0.0,2.0605,2.0605,2.0605,2.0605,2.0605,2.0605,2.0605,2.0605,2.0605,2.0605,2.0605,2.0605,2.0605,2.0605,2.0605,2.0605,2.0605,2.0605,2.0605,2.0362,2.0401,2.0489,1.9195,1.8376,1.7747,1.5108,1.4669,1.5378,1.4447,1.4083,1.4088,0.0,0.0,0.0,0.0,0.0,0.0,0.0,2.5605,2.5594,2.5526,2.5453,2.5014,2.3986,2.386,2.3459,0.0,0.0,0.0,0.0,0.0,0.0,0.0,0.0,0.0,0.0,0.0,0.0,1.541,1.54,0.0,0.0,0.0,0.0,0.0,0.0,1.3704,1.4155,1.4787,0.0,0.0,0.0,0.0,0.0,0.0,0.0,0.0,0.0,0.0,0.0,0.0,0.0,1.4088,1.4088,1.4088,1.4088,1.4088,0.0,0.0,1.4088,1.4088,1.4088,1.4088,1.4088,1.4088,1.4088,0.0,0.0,1.4088,1.4088,1.4088,1.4088,1.4088,1.4082,1.4104,0.0,2.0012,2.0024,2.0358,2.0593,2.0586,0.0,0.0,2.0605,2.0605,2.0605,2.0605,2.0605,2.0605,2.0605,2.0605,2.0605,2.0605,2.0605,2.0605,2.0605,2.0605,2.0605,2.0605,2.0605,2.0605,2.0605,2.0605,2.0605,2.0566,1.9559,1.9678,0.0,1.8341,1.8584,1.9881,1.5731,1.6536,1.9499,1.5542,1.4095,1.4088,0.0,0.0,0.0,0.0,0.0,0.0,0.0,2.5562,2.5559,2.5443,2.5172,2.4752,2.4165,2.3408,2.2576,0.0,0.0,0.0,0.0,0.0,0.0,0.0,0.0,0.0,0.0,0.0,1.541,1.541,1.5415,0.0,0.0,0.0,0.0,0.0,0.0,1.4415,1.4265,1.5295,0.0,0.0,0.0,0.0,0.0,0.0,0.0,0.0,0.0,0.0,0.0,0.0,0.0,0.0,1.4088,1.4088,0.0,0.0,1.4615,1.4377,1.5677,1.5545,1.5054,1.5054,1.5054,1.4894,1.425,0.0,1.4088,1.4088,1.4088,1.4088,1.4088,1.4088,1.4105,0.0,0.0,0.0,2.0248,0.0,2.0596,2.0615,2.0605,0.0,0.0,0.0,2.0605,2.0605,2.0605,2.0605,2.0605,2.0605,2.0605,2.0605,2.0605,2.0605,2.0605,2.0605,2.0605,2.0605,2.0605,2.0605,2.0605,2.0605,2.0605,2.0566,2.0167,2.0206,0.0,1.9638,1.9809,2.0434,1.8691,1.9071,2.0076,1.5707,1.411,1.4088,0.0,0.0,0.0,0.0,0.0,0.0,2.5526,2.5541,2.5464,2.5212,2.4897,2.4478,2.3973,2.32,2.2243,2.11,0.0,0.0,0.0,0.0,0.0,0.0,0.0,0.0,0.0,0.0,1.54,1.5409,1.5394,1.5654,0.0,0.0,1.7983,1.7944,0.0,0.0,0.0,0.0,0.0,0.0,0.0,0.0,0.0,0.0,0.0,0.0,0.0,0.0,0.0,0.0,0.0,0.0,0.0,0.0,0.0,0.0,1.4936,1.4901,1.6404,1.6519,1.6108,1.5786,1.5696,1.5421,0.0,0.0,1.4088,1.4088,1.4088,1.411,1.4105,1.4092,1.4088,0.0,0.0,1.7111,2.0176,2.0605,2.0605,0.0,0.0,2.0605,0.0,2.0605,2.0605,2.0605,2.0605,2.0605,2.0605,2.0605,2.0605,2.0605,2.0605,2.0605,2.0605,2.0605,2.0605,2.0605,2.0605,2.0605,2.0605,2.0605,2.0605,2.0605,2.0605,2.0605,0.0,2.0605,2.0586,2.0594,2.0596,2.0621,2.0057,1.5696,1.4104,1.4092,0.0,0.0,0.0,0.0,0.0,0.0,0.0,2.5498,2.5228,2.4776,2.465,2.4207,2.3127,2.3228,2.2746,2.1133,0.0,0.0,0.0,0.0,0.0,0.0,0.0,0.0,0.0,0.0,1.539,1.5406,1.5406,1.629,1.7981,1.7991,1.8005,1.8008,0.0,0.0,0.0,0.0,0.0,0.0,0.0,0.0,0.0,0.0,0.0,0.0,0.0,0.0,0.0,0.0,0.0,0.0,0.0,1.4088,1.4088,0.0,1.4852,1.5703,1.5703,1.6478,1.7009,1.5985,1.5696,1.5421,0.0,1.4088,1.4088,1.4088,1.4088,1.4119,1.4117,1.4083,1.4111,1.4082,0.0,0.0,2.0591,2.0595,0.0,0.0,0.0,2.0605,2.0605,2.0605,2.0605,2.0605,2.0605,0.0,2.0605,2.0605,2.0605,2.0605,2.0605,2.0605,2.0605,2.0605,2.0605,2.0605,2.0605,2.0605,2.0605,2.0605,2.0605,2.0605,2.0605,2.0605,0.0,2.0605,2.0605,2.0605,2.0605,2.0595,2.008,1.5691,1.4081,1.4083,0.0,0.0,0.0,0.0,0.0,0.0,0.0,2.5317,2.5052,2.4682,2.4161,2.3697,2.3314,2.2776,2.2305,2.1987,0.0,0.0,0.0,0.0,0.0,0.0,0.0,0.0,0.0,0.0,1.5402,1.5406,1.6578,1.7447,1.8001,1.7998,1.8012,1.8018,1.7997,1.7653,0.0,0.0,0.0,0.0,0.0,0.0,0.0,0.0,0.0,0.0,0.0,0.0,0.0,0.0,0.0,0.0,0.0,0.0,0.0,1.4088,1.4328,1.5103,1.7334,1.7617,1.7423,1.7859,1.798,1.7455,1.5628,1.5367,1.5264,1.4299,1.412,1.4103,1.409,1.4118,1.5098,1.8066,1.9715,0.0,0.0,0.0,0.0,2.0605,2.0605,2.0605,0.0,0.0,2.0605,2.0605,2.0605,2.0605,2.0605,2.0605,2.0605,2.0605,2.0605,2.0605,2.0605,2.0605,2.0605,2.0605,2.0605,2.0605,2.0605,2.0605,2.0605,2.0605,2.0605,2.0605,2.0605,2.0605,2.0605,2.0605,2.0605,2.0595,2.0434,1.9045,1.8524,1.8128,0.0,0.0,0.0,0.0,0.0,0.0,0.0,2.5154,2.501,2.4859,2.4298,2.388,2.3749,2.3161,2.2574,2.2066,0.0,0.0,0.0,0.0,0.0,0.0,0.0,0.0,0.0,1.5673,1.571,1.6388,1.7471,1.7995,1.7992,1.7988,1.8008,1.7983,1.801,1.8165,0.0,0.0,0.0,0.0,0.0,0.0,1.8957,0.0,0.0,0.0,0.0,0.0,0.0,0.0,0.0,0.0,0.0,0.0,0.0,0.0,1.5311,1.5752,1.7779,1.8149,1.8109,1.8838,1.8997,0.0,1.6183,1.5977,1.5797,1.4406,1.411,1.4097,1.411,1.4101,1.5536,1.9899,2.0585,2.0615,0.0,0.0,0.0,2.0605,0.0,0.0,0.0,2.0605,2.0605,2.0605,2.0605,2.0605,2.0605,2.0605,2.0605,2.0605,2.0605,2.0605,2.0605,2.0605,2.0605,2.0605,2.0605,2.0605,2.0605,2.0605,2.0605,2.0605,2.0605,2.0605,0.0,2.0605,2.0605,2.0605,2.0605,2.0615,2.0585,2.0585,2.0585,1.9966,0.0,0.0,0.0,0.0,0.0,0.0,0.0,0.0,0.0,0.0,2.4867,2.4569,2.4318,2.4173,2.3375,0.0,0.0,0.0,0.0,0.0,0.0,0.0,0.0,0.0,0.0,1.6337,1.6439,1.7984,1.7988,1.7992,1.8008,1.8008,1.7993,1.8022,1.8145,1.8637,1.9419,1.9807,2.0195,2.0518,1.952,1.9116,0.0,0.0,0.0,0.0,0.0,0.0,0.0,0.0,0.0,0.0,0.0,0.0,0.0,0.0,0.0,0.0,0.0,1.8189,1.9036,0.0,0.0,0.0,1.638,1.6195,0.0,1.4441,1.4336,1.4567,1.4562,1.4558,1.5874,1.9935,2.0605,2.0605,0.0,2.0605,0.0,0.0,2.0605,0.0,2.0605,2.0605,2.0605,2.0605,2.0605,2.0605,2.0605,2.0605,2.0605,2.0605,2.0605,2.0605,2.0605,2.0605,2.0605,2.0605,2.0605,2.0605,2.0605,2.0605,2.0605,0.0,2.0605,2.0605,2.0605,2.0605,2.0605,2.0605,2.0605,2.0605,2.0605,2.0605,2.0583,1.9987,0.0,0.0,0.0,0.0,0.0,0.0,0.0,0.0,0.0,0.0,2.5052,2.4993,2.4221,2.412,2.3443,0.0,0.0,0.0,0.0,0.0,0.0,0.0,0.0,0.0,0.0,1.823,1.8249,1.7984,1.7989,1.8007,1.8008,1.8008,1.8007,1.805,1.9399,2.0083,2.0299,2.0387,2.0507,2.0566,2.0323,2.0206,0.0,0.0,0.0,0.0,2.0118,2.004,0.0,0.0,0.0,0.0,0.0,0.0,0.0,0.0,1.7302,1.7496,1.835,0.0,1.9204,2.0001,2.0206,1.9786,0.0,1.8692,1.8523,1.4866,1.6742,1.9078,1.9063,1.9076,1.9412,2.0411,2.0605,2.0605,2.0605,0.0,0.0,2.0605,2.0605,2.0605,2.0605,2.0605,2.0605,2.0605,2.0605,2.0605,2.0605,2.0605,2.0605,2.0605,2.0605,2.0605,2.0605,2.0605,2.0605,2.0605,2.0605,2.0605,2.0605,2.0605,2.0605,2.0605,2.0605,2.0605,2.0605,2.0605,2.0605,2.0605,2.0605,2.0605,2.0605,2.0605,2.0583,1.9987,0.0,0.0,0.0,0.0,0.0,0.0,0.0,0.0,0.0,0.0,0.0,0.0,0.0,0.0,0.0,0.0,0.0,0.0,0.0,0.0,0.0,0.0,0.0,0.0,1.8397,1.7812,1.7686,1.7983,1.8004,1.8008,1.8018,1.7992,1.8428,1.9233,2.018,2.0599,2.059,2.0604,2.0605,2.0605,2.0605,0.0,0.0,0.0,0.0,0.0,2.0605,2.0605,0.0,1.9923,1.9717,1.9638,0.0,0.0,0.0,0.0,1.8829,1.8948,1.9559,1.9246,1.9031,2.0274,2.0605,2.0381,1.9594,0.0,1.9344,0.0,0.0,0.0,2.0595,2.0615,2.0605,0.0,2.0605,0.0,0.0,0.0,2.0595,2.0611,2.0594,2.0605,0.0,2.0605,2.0605,2.0605,2.0605,2.0605,2.0605,2.0605,2.0605,2.0605,2.0605,2.0605,2.0605,2.0605,2.0605,2.0605,2.0605,2.0605,2.0605,2.0605,2.0605,2.0605,2.0605,2.0605,2.0605,2.0605,2.0605,2.0605,2.0605,2.0605,2.0615,2.0605,2.059,2.0114,0.0,0.0,0.0,0.0,0.0,0.0,0.0,0.0,0.0,0.0,0.0,0.0,0.0,0.0,0.0,0.0,0.0,0.0,0.0,0.0,0.0,0.0,0.0,1.82,1.9348,1.7529,1.729,1.879,1.8254,1.8003,1.7983,1.8011,1.8911,2.059,2.0612,2.0581,2.0605,2.0605,2.0605,2.0605,2.0605,0.0,0.0,0.0,0.0,0.0,0.0,0.0,0.0,2.0605,2.0605,2.0605,2.0605,0.0,0.0,0.0,0.0,0.0,2.0605,1.9709,1.9034,2.0304,2.0605,2.0615,2.0614,0.0,0.0,0.0,0.0,0.0,0.0,2.0605,0.0,0.0,0.0,0.0,2.0615,2.1126,2.1265,2.0663,2.0603,0.0,2.0605,2.0605,2.0605,2.0605,2.0605,2.0605,2.0605,2.0605,2.0605,2.0605,2.0605,2.0605,2.0605,2.0605,2.0605,2.0605,2.0605,2.0605,2.0605,2.0605,2.0605,2.0605,0.0,0.0,2.0605,2.0605,2.0605,2.0605,2.0605,2.0489,2.0352,2.0289,2.012,1.962,0.0,0.0,0.0,0.0,0.0,0.0,0.0,0.0,0.0,0.0,0.0,0.0,0.0,0.0,0.0,0.0,0.0,0.0,0.0,0.0,0.0,0.0,2.1059,2.1321,2.1518,2.1785,2.2057,2.2321,1.9412,1.8007,1.7999,1.8011,1.8942,2.0599,2.06,2.0595,2.0605,2.0605,2.0605,2.0605,2.0605,0.0,0.0,0.0,0.0,0.0,0.0,0.0,0.0,2.0605,2.0605,2.0605,2.0605,0.0,0.0,0.0,0.0,0.0,2.0605,2.043,2.0304,2.0557,2.0605,2.0615,2.0605,0.0,0.0,0.0,0.0,0.0,0.0,2.0605,2.0605,0.0,0.0,2.0586,0.0,0.0,2.4338,2.0994,0.0,2.0605,2.0605,2.0605,2.0605,2.0605,2.0605,2.0605,2.0605,2.0605,2.0605,2.0605,2.0605,2.0605,2.0605,2.0605,2.0605,2.0605,2.0605,2.0605,2.0605,2.0605,2.0605,2.0605,0.0,2.0605,2.0605,2.0605,2.0605,2.0605,2.0605,2.004,1.9195,1.8881,1.7942,1.666,0.0,0.0,0.0,0.0,0.0,0.0,0.0,0.0,0.0,0.0,0.0,0.0,0.0,0.0,0.0,0.0,0.0,0.0,0.0,0.0,0.0,2.1015,2.2033,2.2031,2.0764,2.0504,2.0347,2.0336,1.8767,1.7992,1.8014,1.8974,1.9819,2.0582,2.0614,2.0605,2.0605,2.0605,2.0605,2.0605,0.0,0.0,0.0,0.0,0.0,0.0,0.0,0.0,0.0,0.0,2.0605,2.0605,2.0605,0.0,0.0,0.0,0.0,0.0,2.0605,2.0605,2.0605,2.0605,2.0605,2.0605,0.0,0.0,0.0,0.0,0.0,0.0,0.0,0.0,2.0605,2.0605,0.0,2.0613,2.0601,2.2185,2.263,0.0,0.0,2.0583,2.0586,2.0605,2.0605,2.0605,2.0605,2.0605,2.0605,2.0605,2.0605,2.0605,2.0605,2.0605,2.0605,2.0605,2.0605,2.0605,2.0605,2.0605,2.0605,2.0605,2.0605,2.0605,0.0,2.0605,2.0605,2.0605,2.0605,2.0527,1.9962,1.9295,1.8479,1.6718,1.5655,1.4971,0.0,0.0,0.0,0.0,0.0,0.0,0.0,0.0,0.0,0.0,0.0,0.0,0.0,0.0,0.0,0.0,0.0,0.0,0.0,0.0,2.1668,2.1109,2.2384,2.2118,1.9954,1.9435,1.88,1.799,1.7995,1.8199,1.8627,1.9972,2.06,2.0605,2.0605,2.0605,2.0605,2.0605,2.0605,2.0605,0.0,0.0,0.0,0.0,0.0,0.0,0.0,0.0,0.0,0.0,0.0,0.0,0.0,0.0,0.0,2.0605,2.0605,2.0605,2.0605,2.0605,2.0605,2.0605,0.0,0.0,0.0,0.0,0.0,0.0,0.0,0.0,0.0,2.0605,0.0,2.0605,2.0585,2.0619,2.0619,2.1414,2.1981,2.1972,2.1152,2.059,2.0586,2.0605,2.0605,2.0605,2.0605,2.0605,2.0605,2.0605,2.0605,2.0605,2.0605,2.0605,2.0605,2.0605,2.0605,2.0605,2.0605,2.0605,2.0605,2.0605,2.0605,2.0605,2.0605,2.0605,2.0605,2.0605,2.0605,2.0479,1.9402,1.8514,1.7476,1.5013,1.41,1.4088,0.0,0.0,0.0,0.0,0.0,0.0,0.0,0.0,0.0,0.0,0.0,0.0,0.0,0.0,0.0,0.0,0.0,0.0,0.0,0.0,2.1498,2.1381,2.2473,2.2301,2.0567,2.1992,2.1196,1.8008,1.8011,1.8814,2.0432,2.0543,2.0586,2.0605,2.0605,2.0605,2.0605,2.0605,2.0605,2.0605,2.0605,0.0,0.0,0.0,0.0,0.0,0.0,0.0,0.0,0.0,0.0,0.0,0.0,0.0,2.0605,2.0605,2.0605,2.0605,2.0605,2.0605,2.0605,2.0605,2.0605,0.0,2.0605,2.0605,0.0,2.0605,0.0,0.0,0.0,2.0605,2.0605,2.0605,2.061,2.0601,2.0599,0.0,2.6071,2.6085,2.2817,2.0586,2.0605,2.0605,2.0605,2.0605,2.0605,2.0605,2.0605,2.0605,2.0605,2.0605,2.0605,2.0605,2.0605,2.0605,2.0605,2.0605,2.0605,2.0605,2.0605,2.0605,2.0605,2.0605,2.0605,2.0605,2.0605,2.0605,2.0605,2.0479,1.9402,1.773,1.573,1.4559,1.4117,1.4088,0.0,0.0,0.0,0.0,0.0,0.0,0.0,0.0,0.0,0.0,0.0,0.0,0.0,0.0,0.0,0.0,0.0,0.0,0.0,0.0,2.2164,2.144,2.2478,2.1809,1.9049,1.9593,1.9287,1.8,1.9072,1.9944,2.0621,2.0585,2.0605,2.0605,2.0605,2.0605,2.0605,2.0605,2.0605,2.0605,2.0605,2.0605,0.0,0.0,0.0,0.0,0.0,0.0,0.0,0.0,2.0605,2.0605,2.0605,2.0605,2.0605,2.0605,2.0605,2.0605,2.0605,2.0605,2.0605,2.0605,2.0605,0.0,0.0,2.0605,2.0605,2.0605,2.0605,0.0,0.0,0.0,2.0604,2.0617,2.0617,2.147,2.3936,2.5552,2.5601,2.3128,2.3675,2.3285,2.0839,2.1324,2.1703,2.1489,2.0934,2.0857,2.1441,2.0934,2.0605,2.0605,2.0605,2.0605,2.0605,2.0605,2.0605,2.0605,2.0605,2.0605,2.0605,2.0605,2.0605,2.0605,2.0605,2.0605,2.0605,2.0605,2.0605,2.0401,1.863,1.7009,1.5579,1.4489,1.4088,1.4088,0.0,0.0,0.0,0.0,0.0,0.0,0.0,0.0,0.0,0.0,0.0,0.0,0.0,0.0,0.0,0.0,0.0,0.0,2.2531,2.2895,2.2743,2.1974,2.2689,2.1504,1.808,1.9041,1.9338,1.8836,2.0007,2.0582,2.0605,2.0605,2.0605,2.0605,2.0605,2.0605,2.0605,2.0934,2.0857,2.0634,2.127,2.1155,0.0,0.0,0.0,0.0,0.0,0.0,0.0,0.0,2.0605,2.0605,0.0,2.0605,2.0605,2.0605,2.0605,2.0605,2.0605,2.0605,2.0605,2.0605,0.0,0.0,2.0604,2.0584,2.0584,2.0584,2.0584,2.0602,2.0584,0.0,0.0,0.0,2.165,2.3409,2.6118,2.5419,2.3632,2.0907,2.4089,2.5448,2.2718,2.2499,2.2359,2.2038,2.1116,2.0895,2.1517,2.0934,2.0605,2.0605,2.0605,2.0605,2.0605,2.0605,2.0605,2.0605,2.0605,2.0605,2.0605,2.0605,2.0605,2.0605,2.0605,2.0605,2.0605,2.0605,2.0401,1.9923,1.802,1.6642,1.5579,1.4489,1.4088,1.4088,0.0,0.0,0.0,0.0,0.0,0.0,0.0,0.0,0.0,0.0,0.0,0.0,0.0,0.0,0.0,0.0,0.0,0.0,2.307,2.3108,2.3108,2.3108,2.309,2.1507,1.8082,2.1324,2.2263,2.0589,2.0603,2.0605,2.0605,2.0605,2.0605,2.0605,2.0605,2.0605,2.0683,2.1593,2.1479,2.0789,2.2702,2.2339,2.0712,0.0,0.0,0.0,0.0,0.0,0.0,0.0,2.0605,2.0605,0.0,0.0,0.0,2.0605,2.0605,2.0595,2.0605,2.0605,2.0595,0.0,0.0,0.0,2.0614,2.0639,2.0639,2.0629,2.0591,2.0591,2.0667,2.3839,0.0,2.1293,2.3946,2.651,2.651,2.3146,2.0665,2.0665,2.4108,2.6481,2.6481,2.406,2.2359,2.2038,2.1155,2.0605,2.0605,2.0605,2.0605,2.0605,2.0605,2.0605,2.0605,2.0605,2.0605,2.0605,2.0605,2.0605,2.0605,2.0605,2.0605,2.0605,2.0605,2.0605,2.0605,2.0605,1.9962,1.8917,1.7747,1.6642,1.5579,1.4489,1.4088,1.4088,0.0,0.0,0.0,0.0,0.0,0.0,0.0,0.0,0.0,0.0,0.0,0.0,0.0,0.0,0.0,0.0,0.0,0.0,2.3095,2.3108,2.3108,2.3108,2.3082,2.1493,1.8088,2.0206,2.1084,2.0612,2.0595,2.0605,2.0605,2.0605,2.0605,2.0605,2.0605,2.1079,2.1953,2.1983,2.2253,2.2675,2.3257,2.3147,2.259,0.0,0.0,0.0,0.0,0.0,0.0,0.0,0.0,0.0,2.0605,0.0,2.0605,2.0605,2.0612,2.0609,2.0585,2.0612,0.0,2.0595,0.0,0.0,0.0,2.274,0.0,0.0,2.0591,2.1445,2.4246,2.5707,0.0,2.4944,2.5716,2.651,2.651,2.548,2.4744,2.4744,2.5792,2.6117,2.5182,2.3945,2.3143,2.3073,2.1527,2.0895,2.1555,2.0972,2.0605,2.0605,2.0605,2.0605,2.0605,2.0605,2.0605,2.0605,2.0605,2.0605,2.0605,2.0605,2.0605,2.0605,2.0605,2.0605,2.0605,2.0605,2.0401,1.9923,1.802,1.7098,1.6601,1.4783,1.4088,1.4115,0.0,0.0,0.0,0.0,0.0,0.0,0.0,0.0,0.0,0.0,2.5014,2.4441,0.0,0.0,0.0,0.0,0.0,0.0,0.0,2.3108,2.3099,2.3084,2.3095,2.2561,2.1392,2.2422,2.2174,2.0583,2.0585,2.0605,2.0595,2.0604,2.0604,2.0644,2.1413,2.2025,2.2515,2.3005,2.3294,2.3551,2.4361,2.4217,2.3441,0.0,0.0,0.0,0.0,0.0,0.0,0.0,0.0,0.0,2.0605,0.0,2.0605,2.0605,2.0594,2.0929,2.2506,2.1791,0.0,2.0611,2.0607,2.1005,2.259,0.0,0.0,0.0,2.1869,2.3669,2.6056,2.6488,0.0,2.6493,2.6502,2.6511,2.6511,2.6511,2.6511,2.6511,2.6511,2.6165,2.5356,2.4218,2.3514,2.3514,2.1718,2.0857,2.1413,2.0895,2.0605,2.0605,2.0605,2.0605,2.0605,2.0605,2.0605,2.0605,2.0605,2.0605,2.0605,2.0605,2.0605,2.0605,2.0605,2.0605,2.0605,2.0605,2.0362,1.9795,1.798,1.705,1.646,1.4831,1.4262,1.4302,0.0,0.0,0.0,0.0,0.0,0.0,0.0,0.0,0.0,0.0,2.5363,2.4896,0.0,0.0,0.0,0.0,0.0,0.0,0.0,0.0,2.3108,2.3103,2.3301,2.4396,2.6437,2.6503,2.4574,2.0591,2.0612,2.0595,2.0595,2.0597,2.0799,2.1197,2.2809,2.325,2.295,2.4394,2.4528,2.3927,2.5756,2.5358,2.3635,2.3514,0.0,0.0,0.0,0.0,0.0,0.0,0.0,0.0,2.0605,2.0605,2.0595,2.0615,2.0605,2.1385,2.4981,0.0,0.0,2.0825,2.0991,0.0,2.5672,2.6496,2.5491,2.1874,0.0,2.6498,2.6496,2.6504,2.6499,2.6499,2.6499,2.6499,2.6499,2.6499,2.6499,2.6499,2.6499,2.6452,2.6383,2.4624,2.3441,2.3368,2.1642,2.0605,2.0605,2.0605,2.0605,2.0605,2.0605,2.0605,2.0605,2.0605,2.0605,2.0605,2.0605,2.0605,2.0605,2.0605,2.0605,2.0605,2.0605,2.0605,2.0605,2.0479,1.9883,1.8877,1.7626,1.6576,1.5661,1.4797,1.4536,1.4603,0.0,0.0,0.0,0.0,0.0,0.0,0.0,0.0,0.0,0.0,0.0,0.0,0.0,0.0,0.0,0.0,0.0,0.0,0.0,0.0,2.3101,2.3093,2.4811,2.599,2.6493,2.648,2.4571,2.0591,2.0612,2.0604,2.0605,2.0584,2.228,2.5175,2.4008,2.4305,2.5613,2.5171,2.5335,2.5908,2.6349,2.5769,2.46,2.3818,2.2888,0.0,0.0,0.0,0.0,0.0,0.0,0.0,2.0605,2.0605,2.0595,2.0599,2.0605,2.0769,2.1649,2.1242,0.0,0.0,2.4065,2.5457,2.6313,2.6509,2.627,2.5418,2.5903,2.6494,2.6489,2.6515,2.6499,2.6499,2.6499,2.6499,2.6499,2.6499,2.6499,2.6499,2.6499,2.6198,2.5406,2.4217,2.3184,2.2366,2.127,2.0605,2.0605,2.0605,2.0605,2.0605,2.0605,2.0605,2.0605,2.0605,2.0605,2.0605,2.0605,2.0605,2.0605,2.0605,2.0605,2.0605,2.0605,2.0605,2.0518,1.9678,1.9204,1.8798,1.6805,1.602,1.588,1.4872,1.4669,1.491,0.0,0.0,0.0,0.0,0.0,0.0,0.0,0.0,0.0,0.0,0.0,0.0,0.0,0.0,0.0,0.0,0.0,0.0,0.0,0.0,2.3605,2.4675,2.5883,2.6507,2.6504,2.4638,2.2665,2.0606,2.0596,2.0589,2.0629,2.2526,2.4528,2.6457,2.5409,2.5528,2.645,2.5928,2.6025,2.6499,2.6499,2.6198,2.5581,2.4422,2.3736,2.3187,2.1275,0.0,0.0,0.0,0.0,0.0,0.0,0.0,2.0609,2.0612,2.1945,2.3008,2.1097,0.0,0.0,2.4667,0.0,2.6482,2.6502,2.6499,2.6499,2.6499,2.6511,2.6517,2.649,2.6499,2.6499,2.6499,2.6499,2.6499,2.6499,2.6499,2.6499,2.6499,2.6499,2.6094,2.5087,2.4084,2.3073,2.2065,2.1116,2.0605,2.0605,2.0605,2.0605,2.0605,2.0605,2.0605,2.0605,2.0605,2.0605,2.0605,2.0605,2.0605,2.0605,2.0605,2.0605,2.0605,2.0605,2.0323,1.9795,1.9234,1.839,1.7302,1.6277,1.5666,1.5303,1.5045,1.5037,1.5211,0.0,0.0,0.0,0.0,0.0,0.0,0.0,0.0,0.0,0.0,0.0,0.0,0.0,0.0,0.0,0.0,0.0,0.0,0.0,0.0,0.0,2.6414,2.6509,2.6508,2.6489,2.2611,2.06,2.0592,2.1277,2.163,2.1701,2.498,2.6481,2.6517,2.6507,2.6489,2.6505,2.6486,2.6499,2.6499,2.6499,2.628,2.5908,2.5146,2.4576,2.3918,2.1474,2.1292,2.2018,2.0959,0.0,0.0,0.0,0.0,2.1636,2.1628,2.3956,2.5703,2.2099,0.0,2.6008,2.6128,2.6317,0.0,2.6499,2.6499,2.6499,2.6499,2.6499,2.6499,2.6499,2.6499,2.6499,2.6499,2.6499,2.6499,2.6499,2.6499,2.6499,2.6499,2.6499,2.6094,2.5087,2.4084,2.3073,2.2065,2.1116,2.0605,2.0605,2.0605,2.0605,2.0605,2.0605,2.0605,2.0605,2.0605,2.0605,2.0605,2.0605,2.0605,2.0605,2.0605,2.0605,2.0605,2.0605,2.0001,1.8997,1.8798,1.7529,1.5766,1.583,1.5331,1.473,1.5217,1.5431,1.5504,0.0,0.0,0.0,0.0,0.0,0.0,0.0,0.0,0.0,0.0,2.5838,2.5216,0.0,0.0,0.0,0.0,0.0,0.0,0.0,0.0,0.0,2.6499,2.6497,2.6501,2.6493,2.262,2.0607,2.0607,2.401,2.5719,2.5732,2.6248,2.6517,2.6486,2.6502,2.649,2.6493,2.6512,2.6499,2.6499,2.6499,2.5464,2.4059,2.566,2.413,2.1133,2.0737,2.0712,2.0846,2.0666,2.0581,0.0,0.0,0.0,2.5717,2.5721,2.607,2.5983,0.0,0.0,2.403,0.0,2.565,2.6499,0.0,0.0,2.6499,0.0,2.6499,2.6499,2.6499,2.6499,2.6499,2.6499,2.6499,2.6499,2.6499,2.6499,2.6499,2.6499,2.6499,2.6094,2.5087,2.4084,2.3073,2.2065,2.1116,2.0605,2.0605,2.0605,2.0605,2.0605,2.0605,2.0605,2.0605,2.0605,2.0605,2.0605,2.0605,2.0605,2.0605,2.0605,2.0605,2.0605,2.0605,2.0001,1.8917,1.7948,1.694,1.5959,1.5045,1.4956,1.5291,1.5364,1.5558,1.5731,0.0,0.0,0.0,0.0,0.0,0.0,0.0,0.0,0.0,0.0,0.0,2.5285,0.0,0.0,0.0,0.0,0.0,0.0,0.0,0.0,0.0,2.6511,2.648,2.6482,2.6504,2.2617,2.1672,2.3922,2.5636,2.6511,2.6482,2.6482,2.6511,2.6499,2.6499,2.6499,2.6499,2.6499,2.6499,2.6512,2.6504,2.5987,2.5265,2.6166,2.5432,2.3618,2.1413,2.2019,2.3572,2.1345,2.2061,2.3913,2.3915,0.0,0.0,0.0,2.4945,0.0,2.3899,2.4064,2.4316,0.0,2.6057,2.6499,2.6499,0.0,2.6499,2.6499,2.6499,2.6499,2.6499,2.6499,2.6499,2.6499,2.6499,2.6499,2.6499,2.6499,2.6499,2.6499,2.6499,2.6094,2.5087,2.4084,2.3073,2.2065,2.1116,2.0605,2.0605,2.0605,2.0605,2.0605,2.0605,2.0605,2.0605,2.0605,2.0605,2.0605,2.0605,2.0605,2.0605,2.0605,2.0605,2.0605,2.0605,1.9638,1.8029,1.7496,1.6482,1.5159,1.4872,1.5023,1.5418,1.5578,1.5718,1.5784,0.0,0.0,0.0,0.0,0.0,0.0,0.0,0.0,0.0,0.0,0.0,0.0,0.0,0.0,0.0,0.0,0.0,0.0,0.0,0.0,0.0,2.6487,2.6499,2.6489,2.6498,2.3604,2.3546,2.651,2.6482,2.6519,2.6499,2.6499,2.6499,2.6499,2.6499,2.6499,2.6499,2.6499,2.6515,2.6511,2.6511,2.6168,2.5799,2.6311,2.5901,2.4732,2.2783,2.4016,2.6046,0.0,2.4067,2.6493,2.6493,2.6493,0.0,0.0,0.0,0.0,0.0,0.0,2.4814,2.6173,2.6499,2.6499,0.0,0.0,2.6499,0.0,2.6499,2.6499,2.6499,2.6499,2.6499,2.6499,2.6499,2.6499,2.6499,2.6499,2.6499,2.6499,2.6499,2.6211,2.5441,2.4228,2.3184,2.244,2.126,2.0605,2.0605,2.0605,2.0605,2.0605,2.0605,2.0605,2.0605,2.0605,2.0605,2.0605,2.0605,2.0605,2.0605,2.0605,2.0605,2.0605,2.0605,1.9353,1.731,1.74,1.632,1.4663,1.4957,1.5251,1.5531,1.5752,1.5784,1.5784,0.0,0.0,0.0,0.0,0.0,0.0,0.0,0.0,0.0,0.0,0.0,0.0,0.0,2.3658,2.3108,2.3108,0.0,0.0,0.0,0.0,0.0,2.6499,2.6499,0.0,2.6498,2.63,2.6288,2.651,2.6479,2.6512,2.6499,2.6499,2.6499,2.6499,2.6499,2.6499,2.6499,2.6499,2.6479,2.6496,2.6511,2.5373,2.3861,2.5757,2.4161,2.1371,2.4903,0.0,0.0,0.0,0.0,0.0,0.0,2.6493,2.5744,0.0,0.0,0.0,0.0,2.5461,0.0,2.6173,0.0,0.0,0.0,0.0,0.0,2.6499,2.6499,2.6499,2.6499,2.6499,2.6499,2.6499,2.6499,2.6499,2.6499,2.6499,2.6499,2.6499,2.6499,2.6499,2.6418,2.466,2.3478,2.3441,2.168,2.0605,2.0605,2.0605,2.0605,2.0605,2.0605,2.0605,2.0605,2.0605,2.0605,2.0605,2.0605,2.0605,2.0605,2.0605,2.0605,2.0605,2.0605,1.9353,1.7326,1.7631,1.667,1.5015,1.5257,1.5551,1.5758,1.5771,1.5784,1.5784,0.0,0.0,0.0,0.0,0.0,0.0,0.0,0.0,0.0,0.0,0.0,0.0,0.0,2.4184,2.3087,2.3085,2.3114,0.0,0.0,0.0,0.0,2.6499,2.6499,2.648,2.6514,2.6493,2.6493,2.6514,2.6493,2.6499,2.6499,2.6499,2.6499,2.6499,2.6499,2.6499,2.6499,2.6499,0.0,0.0,0.0,0.0,0.0,0.0,0.0,0.0,0.0,0.0,0.0,0.0,0.0,0.0,0.0,0.0,0.0,0.0,0.0,0.0,0.0,0.0,0.0,2.6371,2.6499,2.6499,2.6499,2.6499,2.6499,2.6499,2.6499,2.6499,2.6499,2.6499,2.6499,2.6499,2.6499,2.6499,2.6499,2.6499,2.6499,2.6499,2.6499,2.6499,2.6499,2.5252,2.4445,2.4445,2.2627,2.1479,2.1479,2.0934,2.0605,2.0605,2.0605,2.0605,2.0605,2.0605,2.0605,2.0605,2.0605,2.0605,2.0566,1.9883,1.9559,1.9529,1.9017,1.8348,1.7573,1.6941,1.6126,1.5251,1.5357,1.5571,1.5784,1.5784,1.5784,1.5784,0.0,0.0,0.0,0.0,0.0,0.0,0.0,0.0,0.0,0.0,0.0,0.0,0.0,0.0,2.3662,2.3138,2.3096,2.3438,2.4184,2.5661,2.6499,2.6499,2.6499,2.6499,2.6499,2.6499,2.6499,2.6499,2.6499,2.6499,2.6499,2.6499,2.6499,2.6499,2.6499,2.6499,0.0,0.0,0.0,2.6278,0.0,0.0,2.4233,0.0,0.0,0.0,0.0,0.0,0.0,0.0,0.0,0.0,0.0,0.0,0.0,0.0,0.0,0.0,2.5406,0.0,0.0,0.0,0.0,2.6499,2.6499,0.0,2.6499,2.6499,2.6499,2.6499,2.6499,2.6499,2.6499,2.6499,2.6499,2.6499,2.6499,2.6499,2.6499,2.6499,2.6499,2.6499,2.6499,2.5594,2.5004,2.5004,2.3147,0.0,2.1989,2.1116,2.0605,2.0605,2.0605,2.0605,2.0605,2.0605,2.0605,2.0605,2.0605,2.0605,2.0566,1.9335,1.8377,1.7639,1.7357,1.7249,1.7181,1.6637,1.5988,1.5404,1.5504,1.5658,1.5784,1.5784,1.5784,1.5784,0.0,0.0,0.0,0.0,0.0,0.0,0.0,0.0,0.0,2.8535,0.0,0.0,0.0,0.0,0.0,2.3238,2.3102,2.4077,2.633,2.6506,2.6487,2.6499,0.0,0.0,0.0,2.6499,2.6499,2.6499,2.6499,2.6499,2.6499,2.6499,2.6499,2.6499,2.6499,2.6499,2.6499,0.0,2.6492,2.6498,0.0,2.4114,2.0609,0.0,0.0,0.0,2.0605,2.0611,0.0,2.0585,0.0,0.0,0.0,0.0,0.0,0.0,0.0,0.0,0.0,0.0,0.0,0.0,0.0,0.0,2.6499,0.0,2.6499,2.6499,2.6499,2.6499,2.6499,2.6499,2.6499,2.6499,2.6499,2.6499,2.6499,2.6499,2.6499,2.6499,2.6499,2.6499,2.6499,2.5629,2.504,2.504,2.3184,2.2027,2.2027,2.1116,2.0605,2.0605,2.0605,2.0605,2.0605,2.0605,2.0605,2.0605,2.0605,2.0605,2.0557,1.9122,1.7234,1.5163,1.5868,1.6154,1.6178,1.6721,1.6327,1.5438,1.5718,1.5784,1.5784,1.5784,1.5784,1.5784,0.0,0.0,0.0,0.0,0.0,0.0,0.0,0.0,2.9157,0.0,0.0,0.0,2.8046,2.741,2.5945,2.3325,2.3109,2.4068,2.6342,2.6479,2.6502,2.6508,0.0,0.0,0.0,2.6499,2.6499,2.6499,2.6499,2.6499,2.6499,2.6499,2.6499,0.0,2.6499,2.6499,2.6499,2.6499,0.0,2.6514,2.6479,2.4146,0.0,0.0,0.0,0.0,0.0,2.0595,2.0613,0.0,2.0595,2.0767,0.0,0.0,0.0,0.0,0.0,0.0,2.6245,0.0,0.0,0.0,0.0,0.0,2.6499,2.6499,2.6499,2.6499,2.6499,2.6499,2.6499,2.6499,2.6499,2.6499,2.6499,2.6499,2.6499,2.6499,2.6499,2.6499,2.6499,2.6499,2.6499,2.6233,2.6094,0.0,2.4217,2.3073,2.3073,2.1527,2.0605,2.0605,2.0605,2.0605,2.0605,2.0605,2.0605,2.0605,2.0605,2.0605,2.0576,2.0193,1.937,1.829,1.7916,1.7411,1.6855,1.612,1.579,1.5718,1.5751,1.5784,1.5784,1.5784,1.5784,1.5784,0.0,0.0,0.0,0.0,0.0,0.0,0.0,0.0,2.9783,0.0,0.0,0.0,2.9058,2.8189,2.6898,2.5121,2.4973,2.6001,2.8421,2.7282,2.6484,2.6506,0.0,0.0,0.0,2.6499,2.6499,2.6499,2.6499,2.6499,2.6499,2.6499,0.0,0.0,0.0,0.0,0.0,0.0,0.0,0.0,2.6504,0.0,0.0,2.061,2.0604,0.0,0.0,0.0,2.0603,2.0605,2.0605,0.0,0.0,0.0,0.0,0.0,0.0,0.0,0.0,0.0,0.0,0.0,0.0,0.0,2.6499,2.6499,2.6499,0.0,2.6499,2.6499,2.6499,2.6499,2.6499,2.6499,2.6499,2.6499,2.6499,2.6499,2.6499,2.6499,2.6499,2.6499,2.6499,2.6129,2.5873,2.5873,2.3988,2.2702,2.2301,2.1242,2.0605,2.0605,2.0605,2.0605,2.0605,2.0605,2.0605,2.0605,2.0605,2.0605,2.0576,2.0216,1.9933,1.9671,1.843,1.7691,1.7286,1.607,1.5678,1.5784,1.5784,1.5784,1.5784,1.5784,1.5784,1.5784,0.0,0.0,0.0,0.0,0.0,0.0,0.0,0.0,0.0,0.0,3.0234,2.9949,2.9446,2.8318,2.7598,2.7583,2.7597,2.8696,3.1338,2.87,0.0,0.0,0.0,0.0,0.0,0.0,0.0,2.6505,2.6508,2.6499,2.6499,2.6499,0.0,0.0,0.0,0.0,0.0,0.0,0.0,2.6509,2.6492,2.4118,0.0,0.0,2.0979,2.0633,2.0846,2.0766,2.0605,2.0594,2.0683,0.0,0.0,0.0,0.0,0.0,2.5629,0.0,0.0,0.0,0.0,0.0,2.6499,0.0,2.6499,2.6499,2.6499,2.6499,2.6499,2.6499,2.6499,2.6499,2.6499,2.6499,2.6499,2.6499,2.6499,2.6499,2.6452,2.6349,2.6349,2.628,2.6164,2.537,2.4826,2.4826,2.3073,2.1593,2.0634,2.0605,2.0605,2.0605,2.0605,2.0605,2.0605,2.0605,2.0605,2.0605,2.0605,2.0635,2.0644,1.9879,1.9691,1.9887,1.8302,1.7629,1.7598,1.648,1.592,1.5784,1.5784,1.5784,1.5784,1.5784,1.5784,1.5784,0.0,0.0,0.0,0.0,0.0,0.0,0.0,0.0,0.0,3.1058,3.0989,3.0584,2.9507,2.8315,2.7602,2.7598,2.76,2.8714,3.1342,3.0911,0.0,0.0,0.0,0.0,0.0,0.0,0.0,0.0,2.6506,2.6499,2.6499,0.0,0.0,0.0,0.0,0.0,0.0,0.0,0.0,2.6507,2.6517,0.0,2.0951,2.4129,2.3367,2.0817,2.2366,2.1911,2.0604,2.0586,2.1282,2.2143,0.0,0.0,0.0,2.4707,0.0,0.0,0.0,0.0,0.0,0.0,2.6499,0.0,2.6499,2.6499,2.6499,2.6499,2.6499,2.6499,2.6499,2.6499,2.6499,2.6499,2.6499,2.6499,2.6499,2.6499,2.6198,2.5406,2.53,2.4957,2.4145,2.3927,2.3781,2.3781,2.2664,2.1593,2.0634,2.0605,2.0605,2.0605,2.0605,2.0605,2.0605,2.0605,2.0605,2.0605,2.0605,2.0752,2.1064,2.1041,2.085,2.0512,2.0192,1.9158,1.7692,1.7412,1.6716,1.5784,1.5784,1.5784,1.5784,1.5784,1.5784,1.5784,0.0,0.0,0.0,0.0,0.0,0.0,0.0,0.0,0.0,3.1252,3.12,3.0833,2.9805,2.9529,0.0,0.0,0.0,0.0,0.0,0.0,0.0,0.0,0.0,0.0,0.0,0.0,0.0,0.0,0.0,0.0,0.0,0.0,0.0,0.0,0.0,0.0,0.0,0.0,2.6504,2.6331,2.433,0.0,2.0836,2.2793,2.2334,2.0717,2.1703,2.143,2.0605,2.0605,2.1002,0.0,2.1907,2.2366,2.3036,0.0,2.5004,2.5229,0.0,0.0,0.0,2.6499,0.0,0.0,0.0,2.6499,2.6499,2.6499,2.6499,2.6499,2.6499,2.6499,2.6499,2.6499,2.6499,2.6499,2.6499,2.6499,2.6314,2.5804,2.53,2.4791,2.4301,2.3331,2.2553,2.2075,2.1603,2.1078,2.0644,2.0605,2.0605,2.0605,2.0605,2.0605,2.0605,2.0605,2.0605,2.0605,2.0791,2.1016,2.121,2.173,2.1816,2.153,2.0527,1.9549,1.8503,1.7264,1.6386,1.5784,1.5784,1.5784,1.5784,1.5784,1.5784,1.5804,3.0167,0.0,0.0,0.0,0.0,0.0,0.0,0.0,0.0,3.1252,3.1098,3.0787,0.0,0.0,0.0,0.0,0.0,0.0,0.0,0.0,0.0,0.0,0.0,2.8727,0.0,0.0,0.0,0.0,0.0,0.0,0.0,0.0,0.0,0.0,0.0,0.0,0.0,0.0,0.0,2.621,0.0,2.1282,2.0636,2.1024,2.0923,2.0606,2.0593,2.0605,2.0605,2.0605,2.0712,2.0972,2.1555,2.1849,0.0,0.0,0.0,0.0,0.0,0.0,0.0,0.0,0.0,2.6499,0.0,0.0,0.0,2.6499,0.0,0.0,0.0,0.0,0.0,0.0,0.0,0.0,0.0,2.6047,0.0,2.5931,2.5217,2.4564,2.4192,2.2664,2.1413,2.0644,2.0605,2.0605,2.0605,2.0605,2.0605,2.0605,2.0605,2.0605,2.0605,2.0605,2.0605,2.0605,2.1025,2.1239,2.1346,2.2158,2.2421,2.2198,2.0543,1.9579,1.8993,1.6983,1.6015,1.5784,1.5784,1.5784,1.5784,1.5784,1.5818,1.5945,3.0445,3.1006,0.0,0.0,0.0,0.0,0.0,0.0,0.0,0.0,0.0,0.0,0.0,0.0,0.0,0.0,0.0,0.0,2.7611,0.0,0.0,0.0,0.0,0.0,3.1479,0.0,0.0,0.0,0.0,0.0,0.0,0.0,0.0,0.0,2.6499,0.0,0.0,0.0,2.6504,0.0,2.5995,2.3734,0.0,2.2509,2.2085,2.0594,2.0586,2.0605,2.0605,0.0,2.1155,2.1697,0.0,2.1336,2.2027,2.2253,0.0,0.0,0.0,0.0,0.0,0.0,2.6499,0.0,2.6499,0.0,2.6499,2.6499,0.0,0.0,0.0,0.0,0.0,0.0,0.0,0.0,2.5158,2.4409,2.3843,2.3843,2.3745,2.2999,2.127,2.0905,2.0712,2.0605,2.0605,2.0605,2.0605,2.0605,2.0605,2.0605,2.0605,2.0605,2.0605,2.0605,2.0605,2.0605,2.1025,2.1435,2.1826,2.2295,2.2126,2.1416,2.1185,1.9898,1.787,1.7598,1.6803,1.5784,1.5784,1.5784,1.5784,1.5784,1.5999,1.6226,2.9893,3.0346,0.0,0.0,0.0,0.0,0.0,0.0,0.0,0.0,0.0,0.0,0.0,0.0,0.0,0.0,0.0,2.554,0.0,0.0,0.0,0.0,0.0,0.0,0.0,0.0,0.0,0.0,2.9398,0.0,0.0,0.0,0.0,0.0,2.6499,0.0,2.6499,0.0,2.6039,0.0,0.0,0.0,0.0,2.2311,2.1939,2.0605,2.0605,2.0605,2.0605,0.0,2.0857,0.0,0.0,0.0,0.0,0.0,0.0,0.0,0.0,0.0,0.0,0.0,0.0,0.0,2.6499,0.0,2.6499,0.0,0.0,0.0,0.0,0.0,0.0,0.0,2.5264,0.0,0.0,0.0,2.3514,0.0,0.0,0.0,2.0712,2.0605,2.0605,2.0605,2.0605,2.0605,2.0605,2.0605,2.0605,2.0605,2.0605,2.0605,2.0605,2.0605,2.0732,2.0957,2.1406,2.1836,2.2266,2.2643,2.2655,2.2306,2.1614,2.035,1.868,1.801,1.6943,1.5784,1.5784,1.5784,1.5804,1.6019,1.6166,1.6368,2.9607,0.0,0.0,0.0,0.0,0.0,0.0,0.0,0.0,0.0,0.0,0.0,3.0198,2.9399,0.0,0.0,2.6243,2.6117,0.0,0.0,3.1496,0.0,0.0,0.0,0.0,0.0,0.0,0.0,0.0,0.0,0.0,0.0,0.0,0.0,0.0,2.6499,2.6499,0.0,2.5941,2.4991,2.423,2.272,2.1062,2.1745,2.1407,2.0605,2.0605,2.0605,2.0605,2.0605,2.0934,0.0,2.1886,0.0,0.0,0.0,0.0,0.0,2.5616,0.0,0.0,0.0,0.0,0.0,0.0,0.0,0.0,0.0,0.0,0.0,0.0,0.0,0.0,0.0,0.0,2.4337,0.0,2.3036,0.0,0.0,0.0,0.0,0.0,2.0605,2.0605,2.0605,2.0605,2.0605,2.0605,2.0605,2.0605,2.0605,2.0605,2.0605,2.0605,2.0605,2.0791,2.12,2.168,2.2109,2.2529,2.2906,2.3091,2.3047,2.2164,2.0944,1.9443,1.8542,1.7264,1.5791,1.5919,1.5952,1.5979,1.6192,1.6422,1.6623,2.9984,3.0311,0.0,0.0,0.0,0.0,0.0,0.0,0.0,0.0,0.0,0.0,0.0,0.0,0.0,0.0,0.0,3.1271,3.1338,0.0,3.1521,0.0,0.0,3.1515,0.0,0.0,0.0,0.0,0.0,0.0,0.0,0.0,0.0,0.0,2.6499,2.6499,2.6499,2.6499,2.6487,2.6349,2.5335,2.3734,2.1866,0.0,2.0644,2.0605,2.0605,0.0,0.0,2.0605,2.1859,0.0,0.0,0.0,0.0,0.0,0.0,0.0,0.0,0.0,0.0,2.6499,0.0,0.0,0.0,0.0,2.6499,0.0,0.0,0.0,0.0,0.0,0.0,0.0,0.0,0.0,0.0,0.0,0.0,0.0,0.0,0.0,0.0,2.0605,2.0605,2.0605,2.0605,2.0605,2.0605,2.0605,2.0605,2.0605,2.0605,2.0605,2.0605,2.0605,2.0791,2.12,2.168,2.2109,2.2529,2.2906,2.3091,2.3091,2.3047,2.1676,1.9497,1.9451,1.7987,1.5811,1.6146,1.6259,1.6308,1.6321,1.6683,1.7172,0.0,0.0,0.0,0.0,0.0,0.0,0.0,3.3361,0.0,0.0,3.1415,0.0,0.0,2.9444,2.8948,0.0,0.0,3.0614,3.1455,2.9421,0.0,0.0,0.0,2.9216,0.0,0.0,0.0,0.0,0.0,0.0,0.0,0.0,0.0,0.0,0.0,2.6499,0.0,0.0,0.0,0.0,0.0,2.2627,2.1952,0.0,2.1155,2.0605,2.0605,2.0605,0.0,2.1336,2.1962,2.2664,2.3661,2.3745,2.377,2.5087,2.4992,2.4707,0.0,0.0,2.6499,2.6499,0.0,0.0,0.0,0.0,0.0,0.0,0.0,0.0,0.0,0.0,0.0,0.0,0.0,0.0,0.0,0.0,0.0,0.0,0.0,0.0,0.0,0.0,2.0605,2.0605,2.0605,2.0605,2.0605,2.0605,2.0605,2.0605,2.0605,2.0605,2.0605,2.0859,2.123,2.167,2.21,2.2519,2.2886,2.3033,2.3091,2.3091,2.3091,2.2173,2.0621,1.9807,1.8629,1.7266,1.6566,1.6563,1.6904,1.6904,1.7032,1.7233,3.0213,0.0,0.0,0.0,0.0,0.0,0.0,0.0,0.0,0.0,3.138,0.0,2.9858,0.0,2.9027,0.0,2.9754,3.028,3.1437,2.9464,0.0,3.1399,2.8307,0.0,0.0,0.0,0.0,0.0,0.0,3.1494,0.0,0.0,0.0,0.0,0.0,2.6499,2.6499,2.6499,2.5921,0.0,0.0,2.2113,0.0,0.0,2.1413,2.0605,0.0,2.0605,2.075,2.1669,2.1989,2.2366,2.4373,2.4301,2.3879,2.5908,2.5804,2.5229,2.6245,2.6499,0.0,2.6499,2.6499,0.0,2.6499,0.0,2.6499,0.0,0.0,0.0,0.0,0.0,0.0,0.0,0.0,0.0,0.0,2.1193,0.0,0.0,0.0,0.0,0.0,2.0605,2.0605,2.0605,2.0605,2.0605,2.0605,2.0605,2.0605,2.0605,2.0605,2.0605,2.0605,2.1016,2.1455,2.1894,2.2314,2.2691,2.3091,2.3091,2.3091,2.3091,2.3091,2.2403,2.1257,2.0642,1.9463,1.8056,1.7513,1.726,1.7199,1.7199,1.7266,1.738,3.0505,0.0,0.0,0.0,3.3377,0.0,0.0,0.0,3.28,0.0,3.1119,3.0455,2.9413,2.8983,2.9095,3.0008,3.0132,3.0543,3.1455,3.15,0.0,0.0,2.8292,2.651,2.6503,0.0,0.0,0.0,0.0,0.0,0.0,0.0,0.0,0.0,2.6499,0.0,2.6499,2.6465,2.5838,2.4826,2.3891,2.2376,2.075,2.1593,2.1375,2.0605,2.0605,2.0605,2.075,2.1669,2.2027,2.2403,2.4373,2.4373,2.4024,2.5943,2.5804,2.53,2.6245,2.6499,2.6499,2.6499,2.6499,0.0,0.0,0.0,2.6499,0.0,0.0,0.0,0.0,0.0,0.0,0.0,0.0,0.0,0.0,0.0,0.0,0.0,0.0,0.0,0.0,2.0605,2.0605,2.0605,2.0605,2.0605,0.0,2.0605,2.0605,2.0605,2.0605,2.0615,2.0635,2.1045,2.1484,2.1924,2.2344,2.2711,2.3091,2.3091,2.3091,2.3091,2.3091,2.2448,2.1418,2.1753,2.0432,1.826,1.8845,1.831,1.7226,1.7226,1.7393,1.7582,3.0521,3.159,3.2769,0.0,3.4177,3.4497,0.0,0.0,0.0,0.0,3.0249,2.9358,2.8183,2.7974,2.8389,2.9628,2.9739,0.0,0.0,0.0,0.0,3.1496,2.8283,2.6493,2.6516,2.7342,2.8995,3.1512,0.0,0.0,3.1441,0.0,0.0,0.0,0.0,0.0,2.6465,2.5699,2.4814,2.3854,2.3588,2.2739,2.1593,0.0,2.0828,2.0605,2.0605,2.0605,2.075,2.1669,2.2515,2.3331,2.46,2.5335,2.5826,2.6349,2.6314,2.6164,2.6418,2.6499,2.6499,2.6499,2.6499,2.6499,0.0,0.0,0.0,0.0,0.0,0.0,0.0,0.0,0.0,0.0,0.0,0.0,0.0,0.0,0.0,2.0605,0.0,0.0,2.0605,2.0605,2.0605,2.0605,2.0605,2.0605,2.0605,0.0,2.0605,2.0605,2.0605,2.0723,2.1025,2.1494,2.1934,2.2353,2.274,2.2994,2.3091,2.3091,2.3091,2.3091,2.3091,2.2906,2.252,2.104,2.019,1.9669,1.8239,1.7637,1.7521,1.7521,1.7515,1.7582,3.0587,0.0,0.0,3.4545,0.0,0.0,3.4153,3.3501,0.0,3.126,3.0493,0.0,2.8395,2.8363,2.8652,2.9248,2.9651,0.0,3.1424,0.0,0.0,2.9375,2.8906,2.7999,2.6518,2.6493,0.0,2.9324,0.0,0.0,3.1435,0.0,0.0,0.0,0.0,2.6506,2.643,2.5254,2.4773,2.4669,2.2933,2.1897,0.0,2.0789,2.0605,2.0605,2.0605,2.0605,2.075,2.1669,2.2366,2.311,2.4552,2.537,2.5921,2.6383,2.6499,2.6499,2.6499,2.6499,2.6499,2.6499,2.6499,2.6499,2.6499,2.6499,2.6499,0.0,2.6499,2.6499,0.0,0.0,0.0,0.0,0.0,0.0,0.0,0.0,0.0,0.0,2.0605,0.0,2.0605,2.0605,2.0605,2.0605,2.0605,2.0605,0.0,0.0,2.0605,2.0605,2.0605,2.0781,2.119,2.167,2.21,2.2519,2.2896,2.3091,2.3091,2.3091,2.3091,2.3091,2.3091,2.3198,2.327,2.1673,2.1203,2.1328,1.9123,1.8002,1.7582,1.7582,1.7582,1.7582,3.0942,0.0,0.0,0.0,0.0,0.0,0.0,3.3424,0.0,3.1653,0.0,3.0364,2.9204,2.9264,2.9312,2.9015,0.0,3.034,3.1451,3.1501,3.0211,2.7286,2.9955,2.9923,2.6567,2.6508,2.6486,0.0,0.0,0.0,0.0,0.0,0.0,0.0,0.0,0.0,0.0,2.5194,2.515,2.5431,2.2164,2.076,2.0605,2.0605,2.0605,2.0605,2.0605,2.0605,2.0712,2.1555,2.1989,2.2515,2.4264,2.4969,2.537,2.6245,2.6499,2.6499,2.6499,2.6499,2.6499,2.6499,2.6499,2.6499,2.6499,2.6499,2.6499,2.6499,2.6499,2.6499,0.0,0.0,0.0,0.0,0.0,0.0,0.0,0.0,0.0,0.0,0.0,0.0,2.0605,2.0605,2.0605,2.0605,2.0605,0.0,0.0,0.0,2.0605,2.0605,2.0664,2.0869,2.1278,2.1758,2.2178,2.2598,2.2916,2.3091,2.3091,2.3091,2.3091,2.3101,2.3159,2.3437,2.3738,2.2833,2.2625,2.2602,2.0472,1.8916,1.7838,1.7687,1.7582,1.7582,3.2491,0.0,0.0,0.0,0.0,3.3851,3.3194,3.2734,3.2106,3.1153,3.065,3.0,2.8983,2.8896,2.9073,2.943,2.8598,0.0,0.0,0.0,0.0,3.0638,3.1198,2.9923,2.6567,2.6508,2.6486,0.0,0.0,0.0,0.0,0.0,0.0,0.0,0.0,0.0,2.4917,2.5769,0.0,2.1642,2.2022,2.1522,2.0605,2.0605,2.0605,2.0605,2.0605,2.0605,2.0644,2.0789,2.1897,2.3294,2.3672,2.4921,2.628,2.6465,2.6499,2.6499,2.6499,2.6499,2.6499,2.6499,2.6499,2.6499,2.6499,2.6499,2.6499,2.6499,2.6499,2.6499,2.6499,0.0,0.0,0.0,0.0,0.0,0.0,0.0,0.0,0.0,0.0,2.0605,0.0,0.0,2.0605,2.0605,2.0605,0.0,0.0,0.0,2.0605,0.0,2.0918,0.0,0.0,0.0,2.2617,2.2984,2.3062,2.3091,2.3091,2.3091,2.3091,2.311,2.3516,2.3721,2.3757,2.3136,2.2521,2.1762,2.0215,1.9472,1.9117,1.7996,1.7582,1.7582,0.0,0.0,0.0,0.0,0.0,0.0,0.0,3.2224,3.1647,3.1389,3.1213,3.079,3.0029,3.0038,2.996,2.9647,2.9613,3.0144,3.1422,3.1515,3.1501,3.1497,3.1504,2.9919,2.6567,2.6514,2.6508,2.6504,0.0,0.0,0.0,0.0,0.0,0.0,0.0,2.6156,0.0,0.0,0.0,2.3508,2.2074,2.1156,2.0605,2.0605,2.0605,2.0605,2.0605,2.0605,2.0673,2.1155,2.1962,2.2888,2.3963,2.4921,2.5804,2.6349,2.6499,2.6499,2.6499,2.6499,2.6499,2.6499,2.6499,2.6499,2.6499,2.6499,2.6499,2.6499,2.6499,2.6499,2.6499,2.6499,0.0,0.0,0.0,0.0,0.0,0.0,0.0,0.0,0.0,0.0,0.0,0.0,0.0,0.0,0.0,0.0,0.0,0.0,2.0713,0.0,0.0,0.0,2.2207,0.0,2.2682,2.3091,2.3091,2.3091,2.3091,2.3091,2.3091,2.312,2.3603,2.3916,2.4134,2.4317,2.3314,2.1651,2.0939,2.0231,1.942,1.8094,1.7582,1.7582,0.0,3.4453,0.0,0.0,3.3969,0.0,3.2958,3.1951,3.1312,3.1623,3.1678,3.1468,3.086,3.1107,3.0738,2.9287,3.0609,3.1511,3.1511,3.1498,3.1486,3.1508,3.1503,2.9933,2.6583,2.6485,2.6496,0.0,0.0,0.0,0.0,0.0,0.0,0.0,0.0,0.0,0.0,0.0,2.4584,2.4985,2.1845,2.0605,2.0605,2.0605,2.0605,2.0605,2.0605,2.076,2.1108,2.1783,2.214,2.2627,2.4409,2.5158,2.5476,2.628,2.6499,2.6499,2.6499,2.6499,2.6499,2.6499,2.6499,2.6499,2.6499,2.6499,2.6499,2.6499,2.6499,2.6499,2.6499,2.6499,0.0,0.0,0.0,0.0,0.0,0.0,0.0,0.0,0.0,0.0,2.0605,0.0,0.0,0.0,0.0,0.0,2.0605,0.0,0.0,0.0,0.0,2.1697,2.251,0.0,2.2769,2.3091,2.3091,2.3091,2.3091,2.3091,2.3149,2.3257,2.373,2.4219,2.4746,2.5401,2.4461,2.2517,2.2257,2.1245,1.9878,1.8499,1.7838,1.7582,0.0,0.0,0.0,0.0,0.0,0.0,3.2982,3.1962,3.121,3.1252,3.1269,3.0961,3.0172,3.0879,3.041,2.8017,3.007,3.1511,3.1511,3.1486,3.1492,3.1493,3.1487,2.9942,2.6586,2.6493,2.6501,0.0,0.0,3.149,0.0,0.0,0.0,0.0,0.0,0.0,0.0,2.6299,2.4263,2.1128,2.0739,2.0605,2.0605,2.0605,2.0605,2.0605,2.0605,2.1359,2.2305,2.2059,2.2627,2.3562,2.4636,2.5629,2.6383,2.6452,2.6499,2.6499,2.6499,2.6499,2.6499,2.6499,2.6499,2.6499,2.6499,2.6499,2.6499,2.6499,2.6499,2.6499,2.6499,2.6499,2.6164,0.0,0.0,0.0,0.0,0.0,2.0712,2.0605,0.0,0.0,0.0,2.0605,0.0,0.0,2.0605,0.0,0.0,0.0,0.0,2.1181,2.1621,2.2041,2.251,2.2847,2.3052,2.3091,2.3091,2.3091,2.3091,2.3091,2.3305,2.375,2.418,2.4787,2.5577,2.5654,2.5538,2.5226,2.3998,2.2667,2.1347,1.993,1.8655,1.7582,0.0,0.0,0.0,0.0,0.0,0.0,0.0,3.1968,3.1204,3.121,3.12,3.1108,3.0807,3.1077,3.0928,3.0023,3.092,3.1511,3.1511,3.1501,3.0598,2.8592,2.8492,2.8818,2.948,2.7532,2.6518,0.0,0.0,0.0,0.0,0.0,0.0,0.0,0.0,2.6492,2.6499,2.6505,2.4237,2.0611,2.0604,2.0605,2.0605,2.0605,2.0605,2.0605,2.0605,2.0925,2.1474,2.2084,2.282,2.3672,2.4671,2.5264,2.5734,2.6314,2.6499,2.6499,2.6499,2.6499,2.6499,2.6499,2.6499,2.6499,2.6499,2.6499,2.6499,2.6499,2.6499,2.6499,2.6499,2.6499,2.6164,2.5158,0.0,0.0,0.0,0.0,0.0,2.0605,0.0,2.0605,0.0,2.0605,0.0,0.0,0.0,0.0,0.0,0.0,0.0,2.1611,0.0,2.2461,2.2838,2.3013,2.3091,2.3091,2.3091,2.3091,2.3091,2.3091,2.3471,2.4189,2.4619,2.5156,2.5693,2.5693,2.5693,2.5586,2.4196,2.3384,2.2617,2.0444,1.9272,1.8708,3.4939,0.0,3.4563,0.0,3.3808,3.3509,3.3263,3.2074,3.1201,3.1197,3.121,3.1214,3.127,3.1239,3.1275,3.1477,3.1511,3.1511,3.1511,3.1499,3.0003,2.6667,2.6505,0.0,2.9991,2.7699,2.6506,2.6509,2.6492,0.0,0.0,0.0,0.0,0.0,2.651,2.6492,2.6426,2.5275,2.315,2.0611,2.0604,2.0605,2.0605,2.0605,2.0605,2.0605,2.0605,2.0585,2.0719,2.1645,2.2841,2.4072,2.4791,2.5194,2.5581,2.628,2.6499,2.6499,2.6499,2.6499,2.6499,2.6499,2.6499,2.6499,2.6499,2.6499,2.6499,2.6499,2.6499,2.6499,2.6499,2.6499,2.628,2.5558,0.0,0.0,0.0,2.1375,0.0,0.0,2.0605,2.0605,2.0605,2.0605,0.0,0.0,0.0,0.0,0.0,0.0,0.0,0.0,0.0,0.0,2.3091,2.3091,2.3091,2.3091,2.3091,2.3091,2.3101,2.3354,2.3916,2.4639,2.5068,2.5449,2.5693,2.5693,2.5693,2.5586,2.4658,2.4048,2.3484,2.1507,2.029,1.9472,3.4688,3.4598,3.4284,3.3887,3.3796,3.38,3.3794,3.2319,3.1201,3.1197,3.1204,3.1194,3.12,3.1218,3.1275,3.1477,3.1511,3.1511,3.1511,3.1505,3.0001,0.0,0.0,2.6521,2.6567,2.6521,2.6501,2.6487,0.0,0.0,3.1434,0.0,2.6526,2.6487,2.6499,2.6492,2.6246,2.2324,2.0629,2.0611,2.0604,2.0605,2.0605,2.0605,2.0605,2.0605,2.0605,2.0611,2.0604,2.0623,2.2563,2.4969,2.5004,2.5699,2.6487,2.6499,2.6499,2.6499,2.6499,2.6499,2.6499,2.6499,2.6499,2.6499,2.6499,2.6499,2.6499,2.6499,2.6499,2.6499,2.6499,2.6499,2.6499,2.6487,0.0,0.0,0.0,2.1821,0.0,2.0605,2.0605,2.0605,2.0605,2.0605,0.0,0.0,0.0,0.0,0.0,0.0,0.0,2.1875,2.2295,0.0,2.3091,2.3091,2.3091,2.3091,2.3091,2.3091,2.312,2.3968,2.4639,2.5135,2.5537,2.5684,2.5693,2.5693,2.5693,2.5693,2.5684,2.4873,2.3692,2.3642,2.1912,1.9576,3.4557,3.4451,3.4271,3.3873,3.3799,3.38,3.3791,3.2317,3.121,3.1202,3.2946,3.4191,3.4198,3.253,3.1429,0.0,3.1511,3.1511,0.0,3.1505,3.0015,2.6668,2.8693,2.8845,2.6534,2.651,2.6497,2.6499,0.0,0.0,0.0,2.6997,2.651,2.6499,2.6507,2.6487,2.6227,2.2285,2.0584,2.0594,2.0605,2.0605,2.0605,2.0605,2.0605,2.0605,2.0605,2.0585,2.0806,2.2133,2.29,2.3517,2.4625,2.5699,2.6499,2.6499,2.6499,2.6499,2.6499,2.6499,2.6499,2.6499,2.6499,2.6499,2.6499,2.6499,2.6499,2.6499,2.6499,2.6499,2.6499,2.6499,2.6499,2.6499,2.5406,0.0,2.4528,0.0,2.2339,2.1631,2.1555,2.1298,2.0644,2.0605,0.0,0.0,0.0,0.0,0.0,0.0,0.0,0.0,2.2682,0.0,2.3091,2.3091,2.3091,2.3091,2.3091,2.3247,2.3613,2.4473,2.4941,2.5135,2.5547,2.5693,2.5693,2.5693,2.5693,2.5693,2.5693,2.543,2.4971,2.4048,2.3135,2.2299,3.4866,3.4476,3.4104,3.3847,3.3807,3.3792,3.3813,3.2317,3.1595,3.2702,3.4452,3.561,3.5609,3.315,0.0,3.1507,3.1511,3.1511,3.1511,3.1505,3.0015,2.6668,2.9698,2.993,2.658,2.6502,0.0,2.6499,2.6485,2.6493,2.6506,2.651,2.6499,2.6512,2.6491,2.5649,2.4107,2.1657,2.0615,2.0603,2.0595,2.0614,2.0603,2.0595,2.0605,2.0605,2.0605,2.0605,2.0906,2.2842,2.3404,2.3447,2.4624,2.5699,2.6499,2.6499,2.6499,2.6499,2.6499,2.6499,2.6499,2.6499,2.6499,2.6499,2.6499,2.6499,2.6499,2.6499,2.6499,2.6499,2.6499,2.6499,2.6499,2.6499,2.5664,2.5004,2.5004,0.0,2.3147,0.0,0.0,0.0,0.0,2.0605,2.0605,0.0,0.0,0.0,0.0,0.0,2.208,2.25,2.2877,2.3091,2.3091,2.3091,2.3091,2.3091,2.3257,2.3613,2.4043,2.4746,2.5156,2.5332,2.5567,2.5693,2.5693,2.5693,2.5693,2.5693,2.5693,2.5693,2.5586,2.4766,2.4146,2.3646,3.5405,3.4584,3.3902,0.0,3.3807,3.38,3.3804,3.2493,3.2503,3.5241,3.5598,3.5605,3.5609,3.315,3.1484,3.1507,0.0,0.0,3.1482,3.1489,2.9998,2.6648,2.9504,2.9673,2.658,2.6502,2.6499,2.6499,2.6499,2.6499,2.6499,2.6499,2.6499,2.6512,2.6491,2.4315,2.0584,2.0612,2.0591,2.0621,2.0914,2.0854,2.0614,2.0613,2.0605,2.0605,2.0605,2.0605,2.0896,2.2691,2.3895,2.4697,2.5016,2.5734,2.6499,2.6499,2.6499,2.6499,2.6499,2.6499,2.6499,2.6499,2.6499,2.6499,2.6499,2.6499,2.6499,2.6499,2.6499,2.6499,2.6499,2.6499,2.6499,2.6499,2.5699,2.5111,2.5111,2.4228,2.322,0.0,0.0,0.0,2.0673,2.0605,2.0615,0.0,0.0,0.0,0.0,0.0,2.2119,2.2539,2.2886,2.3091,2.3091,2.3091,2.311,2.3149,2.3623,2.4053,2.4473,2.4912,2.5342,2.5693,2.5693,2.5693,2.5693,2.5693,2.5693,2.5693,2.5693,2.5693,2.5693,2.5693,2.4932,2.394,0.0,0.0,3.4822,3.3952,3.3794,3.3789,3.3788,3.4235,3.4817,3.5502,3.5608,3.5595,3.56,3.315,3.1484,3.1507,3.1511,3.1485,3.15,3.1495,2.9999,2.6645,2.7267,2.7301,2.6521,2.6502,2.6499,2.6499,2.6499,2.6499,2.6499,2.6499,2.6499,2.6512,2.6491,2.4294,2.0612,2.0595,2.0591,2.0871,2.3892,2.3281,2.0585,2.0615,2.0605,2.0605,2.0605,2.0605,2.0663,2.1135,2.3401,2.6033,2.6105,2.6314,2.6499,2.6499,2.6499,2.6499,2.6499,2.6499,2.6499,2.6499,2.6499,2.6499,2.6499,2.6499,2.6499,2.6499,2.6499,2.6499,2.6499,2.6499,2.6499,2.6499,2.6314,2.6129,2.6129,2.5288,2.4264,0.0,2.2478,2.1621,2.0673,2.0605,2.0742,0.0,0.0,2.1522,2.2324,2.2363,2.2559,2.2935,2.3042,2.3091,2.3091,2.3091,2.3257,2.3643,2.4062,2.4502,2.4932,2.5381,2.5586,2.5693,2.5693,2.5693,2.5693,2.5693,2.5693,2.5693,2.5693,2.5693,2.5693,2.5693,2.5741,2.5822,3.4014,3.4292,3.4524,3.3902,3.3806,3.4297,3.5809,3.5788,3.56,3.5594,3.561,3.5604,3.5591,3.315,3.1489,3.1493,3.1511,3.15,3.1513,3.0064,2.8387,2.6563,2.6499,2.6515,2.651,2.6488,2.6499,2.6499,2.6499,2.6499,2.6499,2.6499,2.6499,2.6512,2.6491,2.5301,2.3307,2.329,2.2242,2.0781,2.293,2.2513,2.0611,2.0595,2.0605,2.0605,2.0605,2.0605,2.0594,2.0612,2.3231,2.6492,2.6519,2.6509,2.6504,2.6515,2.6499,2.6499,2.6499,2.6499,2.6499,2.6499,2.6499,2.6499,2.6499,2.6499,2.6499,2.6499,2.6499,2.6499,2.6499,2.6499,2.6499,2.6499,2.6499,2.6499,2.6499,2.6025,2.5146,2.3661,2.3036,2.2151,2.076,2.0752,2.0967,2.1181,2.1551,0.0,2.249,2.2652,2.2857,2.3091,2.3091,2.3091,2.3091,2.3286,2.3555,2.3799,2.4424,2.4834,2.5135,2.5527,2.5693,2.5693,2.5693,2.5693,2.5693,2.5693,2.5693,2.5693,2.5693,2.5693,2.5693,2.5693,2.6016,2.6455,3.3983,3.3812,3.388,3.4132,3.4116,3.5006,3.7793,3.6733,3.56,3.5604,3.5405,3.5226,3.4996,3.2897,3.1506,3.1495,3.1276,3.1235,3.1479,2.8346,2.6734,2.7215,2.678,2.6485,2.6487,2.6499,2.6499,2.6499,2.6499,2.6499,2.6499,2.6499,2.6499,2.6512,2.6499,2.6494,2.6508,2.6515,2.422,2.0608,2.06,2.0612,2.0605,2.0585,2.0605,2.0605,2.0605,2.0605,2.0594,2.0588,2.3238,2.6399,2.5798,2.6009,2.6507,2.6496,2.6499,2.6499,2.6499,2.6499,2.6499,2.6499,2.6499,2.6499,2.6499,2.6499,2.6499,2.6499,2.6499,2.6499,2.6499,2.6499,2.6499,2.6499,2.6499,2.6499,2.6499,0.0,2.5652,2.3927,2.3441,2.266,2.1062,2.1085,2.1249,2.1385,2.21,2.2539,2.2607,2.2896,2.3091,2.3091,2.3091,2.3091,2.3091,2.3574,2.3828,2.3896,2.4687,2.5145,2.5176,2.5566,2.5693,2.5693,2.5693,2.5693,2.5693,2.5693,2.5693,2.5693,2.5693,2.5693,2.5693,2.5762,2.6113,2.6543,3.3823,3.3812,3.4256,3.5667,3.5587,3.5494,3.6006,3.5826,3.5599,3.5599,3.4612,3.347,3.2276,3.1754,3.1506,3.1495,3.0205,2.9984,3.1423,2.8355,2.775,3.0617,2.8009,2.6505,2.6499,2.6499,2.6499,2.6499,2.6499,2.6499,2.6499,2.6499,2.6499,2.6499,2.648,2.6506,2.6486,2.6493,2.4212,2.0608,2.06,2.0615,2.0585,2.0586,2.0605,2.0605,2.0605,2.0605,2.0595,2.0604,2.3226,2.5932,2.2554,2.379,2.6507,2.6496,2.6499,2.6499,2.6499,2.6499,2.6499,2.6499,2.6499,2.6499,2.6499,2.6499,2.6499,2.6499,2.6499,2.6499,2.6499,2.6499,2.6499,2.6499,2.6499,2.6499,2.6499,0.0,2.5123,2.4791,2.3257,2.226,2.2351,2.168,2.1492,2.2256,2.2432,2.2666,2.2984,2.3062,2.3091,2.3091,2.3091,2.3091,2.3091,2.3574,2.3965,2.4326,2.4824,2.5273,2.5586,2.5654,2.5693,2.5693,2.5693,2.5693,2.5693,2.5693,2.5693,2.5693,2.5693,2.5693,2.5732,2.6152,2.6553,2.6973,3.386,3.4543,3.5395,3.6173,3.639,3.6274,3.5702,3.5599,3.5355,3.4622,3.3966,3.3061,3.1663,3.1497,3.1513,3.1509,2.9985,2.9186,2.9642,2.7696,2.7202,2.8744,2.7322,2.6511,2.6487,2.6499,2.6499,2.6499,2.6499,2.6499,2.6499,2.6499,2.6499,2.6499,2.6499,2.6198,2.5688,2.5504,2.3946,2.1547,2.0893,2.0605,2.0605,2.0605,2.0605,2.0605,2.0605,2.0605,2.0595,2.0615,2.1825,2.2993,2.1178,2.3318,2.6492,2.6503,2.6511,2.6499,2.6499,2.6499,2.6499,2.6499,2.6499,2.6499,2.6499,2.6499,2.6499,2.6499,2.6499,2.6499,2.6499,2.6499,2.6499,2.6499,2.6499,0.0,2.6499,2.6094,2.5616,2.504,2.3946,2.3063,2.2748,2.2221,2.209,2.248,2.2682,2.2886,2.3081,2.3091,2.3091,2.3091,2.3091,2.3208,2.3486,2.3916,2.4336,2.4775,2.5215,2.5537,2.5693,2.5693,2.5693,2.5693,2.5693,2.5693,2.5693,2.5693,2.5693,2.5693,2.5693,2.5693,2.5742,2.623,2.665,2.708,3.4352,3.5281,3.6172,3.6347,3.6777,3.6786,3.5922,3.5679,3.5182,3.4003,3.3702,3.316,3.1948,3.1628,3.1394,3.1131,2.9921,2.8878,2.813,2.7082,2.651,2.6496,2.6515,2.6489,2.6487,2.6499,2.6499,2.6499,2.6499,2.6499,2.6499,2.6499,2.6499,2.6499,2.6499,2.5955,2.4945,2.4319,2.3423,2.2401,2.1118,2.0605,2.0605,2.0605,2.0605,2.0605,2.0605,2.0605,2.0605,2.0619,2.0611,2.0594,2.0609,2.2691,2.5321,2.6212,2.6497,2.6499,2.6499,2.6499,2.6499,2.6499,2.6499,2.6499,2.6499,2.6499,2.6499,2.6499,2.6499,2.6499,2.6499,2.6499,2.6499,2.6499,0.0,2.6499,2.6499,2.6499,2.6248,2.561,2.4968,2.4267,2.3456,2.3063,2.2836,2.2646,2.2916,2.3091,2.3091,2.3091,2.3091,2.3091,2.3198,2.3457,2.3789,2.4307,2.4736,2.5116,2.5527,2.5693,2.5693,2.5693,2.5693,2.5693,2.5693,2.5693,2.5693,2.5693,2.5693,2.5693,2.5693,2.5752,2.5947,2.6377,2.6797,2.7226,3.5654,3.5702,3.5795,3.653,3.6719,3.6654,3.6383,3.5912,3.5345,3.4615,3.3996,3.3397,3.2874,3.204,3.1087,3.0008,2.9803,2.9265,2.8179,2.7095,2.6505,2.6487,2.6496,2.6496,2.6499,2.6499,2.6499,2.6499,2.6499,2.6499,2.6499,2.6499,2.6499,2.6499,2.6499,2.5955,2.4886,2.3324,2.2604,2.2401,2.1118,2.0605,2.0605,2.0605,2.0605,2.0605,2.0605,2.0605,2.0595,2.0615,2.0586,2.0585,2.0614,2.0795,2.1743,2.5409,2.6497,2.6499,2.6499,2.6499,2.6499,2.6499,2.6499,2.6499,2.6499,2.6499,2.6499,2.6499,2.6499,2.6499,2.6499,2.6499,2.6499,2.6499,0.0,0.0,2.6499,2.6499,2.6653,2.7085,2.6263,2.5587,2.54,2.4596,2.3803,2.31,2.3081,2.3091,2.3091,2.3091,2.3091,2.3091,2.3525,2.376,2.3789,2.4609,2.5086,2.5116,2.5527,2.5693,2.5693,2.5693,2.5693,2.5693,2.5693,2.5693,2.5693,2.5693,2.5693,2.5693,2.5693,2.5986,2.6396,2.6816,2.7246,2.7728,3.5861,3.6366,3.6717,3.6698,3.6863,3.6861,3.646,3.5587,3.4736,3.4062,3.3391,3.2749,3.2096,3.1278,3.0511,2.9859,2.8989,2.8302,2.7868,2.6998,2.6499,2.6499,2.6499,2.6499,2.6499,2.6499,2.6499,2.6499,2.6499,2.6499,2.6499,2.6499,2.6499,2.6452,2.5838,2.5004,2.4,2.2726,2.1845,2.1282,2.0799,2.0605,2.0605,2.0605,2.0605,2.0605,2.0605,2.0605,2.0605,2.0605,2.0605,2.0586,2.0594,2.0586,2.1364,2.5326,2.6482,2.6497,2.648,2.6499,2.6499,2.6499,2.6499,2.6499,2.6499,2.6499,2.6499,2.6499,2.6499,2.6499,2.6499,2.6499,2.6499,2.6499,0.0,2.6499,2.6499,2.6788,2.7077,2.7291,2.6943,2.6718,2.6667,2.6042,2.5237,2.4243,2.4168,2.3844,2.3135,2.3091,2.3218,2.3535,2.3955,2.418,2.418,2.4766,2.5205,2.5488,2.5606,2.5693,2.5693,2.5693,2.5693,2.5693,2.5693,2.5693,2.5693,2.5693,2.5693,2.5693,2.5693,2.6006,2.6435,2.6865,2.7295,2.7777,3.6445,3.6924,3.7173,3.6911,3.6912,3.6706,3.5959,3.5124,3.4284,3.3391,3.2895,3.2228,3.1234,3.0865,3.0293,2.9358,2.8541,2.7868,2.7364,2.6816,2.6499,2.6499,2.6499,2.6499,2.6499,2.6499,2.6183,2.5563,2.5787,2.5859,2.5859,2.5965,2.6025,2.599,2.53,2.4264,2.2999,2.2291,2.1451,2.0605,2.0605,2.0605,2.0615,2.0723,2.0781,2.0791,2.0819,2.075,2.0602,2.0602,2.0602,2.0602,2.0602,2.0605,2.1123,2.3847,2.5517,2.6496,2.6482,2.6518,2.6499,2.6499,2.6499,2.6499,2.6499,2.6499,2.6499,2.6499,2.6499,2.6499,2.6499,2.6499,2.6499,2.6499,2.6697,2.681,2.6751,2.7228,2.7607,2.777,2.779,2.7743,2.7576,2.7203,2.6378,2.4914,2.4787,2.4296,2.3178,2.3227,2.3486,2.3779,2.4326,2.4619,2.4619,2.5059,2.543,2.5693,2.5693,2.5693,2.5693,2.5693,2.5693,2.5693,2.5693,2.5693,2.5693,2.5693,2.5693,2.5703,2.584,2.6211,2.6631,2.706,2.749,2.791,3.7634,3.7259,3.6822,3.7142,3.6764,3.5981,3.479,3.4616,3.4112,3.2761,3.2586,3.2018,3.0465,3.0992,3.0587,2.8298,2.8638,2.8272,2.6615,2.6499,2.6499,2.6499,2.6499,2.6499,2.6499,2.6487,2.5516,2.352,2.4177,2.4507,2.4507,2.485,2.4981,2.4981,2.4969,2.3854,2.1989,2.2,2.1451,2.0615,2.0615,2.0615,2.0664,2.1064,2.12,2.1199,2.1354,2.1062,2.0628,2.0628,2.0628,2.0628,2.0628,2.0612,2.0605,2.0607,2.339,2.6474,2.6487,2.6509,2.6499,2.6499,2.6499,2.6499,2.6499,2.6499,2.6499,2.6499,2.6499,2.6499,2.6512,2.6512,2.6499,2.6512,2.7145,2.7523,2.7341,2.777,2.831,2.8825,2.8888,2.8708,2.8168,2.8124,2.7186,2.4999,2.4787,2.4296,2.3188,2.3555,2.3799,2.3799,2.4675,2.5116,2.5116,2.5518,2.5693,2.5693,2.5693,2.5693,2.5693,2.5693,2.5693,2.5693,2.5693,2.5693,2.5693,2.5693,2.5693,2.5732,2.6221,2.665,2.707,2.751,2.793,2.8291,3.7858,3.7714,3.7468,3.7231,3.6764,3.5981,3.479,3.4211,3.3582,3.2722,3.2132,3.1422,3.0419,2.9972,2.9309,2.8219,2.7579,2.7033,2.6533,2.6499,2.6499,2.6499,2.6499,2.6499,2.6499,2.5117,2.4343,2.4189,2.3474,2.3324,2.3809,2.3916,2.3963,2.3927,2.322,2.2553,2.1983,2.1604,2.1303,2.1064,2.1367,2.1494,2.1544,2.1641,2.1689,2.1709,2.1734,2.1661,2.1498,2.1498,2.1885,2.2334,2.2334,2.2369,2.213,2.0947,2.1449,2.296,2.575,2.6508,2.6493,2.6514,2.6499,2.6499,2.6499,2.6499,2.6499,2.6499,2.6499,2.6971,2.8529,2.7985,2.7445,2.7972,2.799,2.792,2.7858,2.8335,2.8712,2.8875,2.9289,2.9475,2.9314,2.9275,2.8371,2.6171,2.451,2.3602,2.3574,2.3721,2.4062,2.4715,2.4979,2.5215,2.5537,2.5625,2.5693,2.5693,2.5693,2.5693,2.5693,2.5693,2.5693,2.5693,2.5693,2.5693,2.5693,2.5693,2.5869,2.6211,2.6338,2.6836,2.749,2.7669,2.793,2.8291,3.7954,3.7751,3.747,3.6962,3.6218,3.5352,3.4358,3.3649,3.2837,3.1819,3.1291,3.0584,2.9411,2.8885,2.8327,2.7535,2.6854,2.6499,2.6499,2.6499,2.6255,2.573,2.5849,2.5921,2.5921,2.4083,2.3248,2.3498,2.2698,2.2509,2.2925,2.2925,2.3023,2.3171,2.2529,2.2156,2.1934,2.1609,2.1494,2.1514,2.1777,2.1885,2.1904,2.207,2.2139,2.2158,2.2324,2.2383,2.2383,2.2383,2.2715,2.312,2.312,2.3114,2.2924,2.1877,2.1574,2.211,2.4497,2.517,2.5564,2.7343,2.716,2.6503,2.6503,2.6503,2.6744,2.7637,2.7819,2.8116,2.9165,2.8649,2.8136,2.8429,2.8434,2.8436,2.8436,2.8913,2.9277,2.9277,2.9578,2.9792,2.9792,2.9792,2.8882,2.6689,2.4933,2.3939,2.3824,2.4111,2.4578,2.5096,2.5244,2.5459,2.5693,2.5693,2.5693,2.5693,2.5693,2.5693,2.5693,2.5693,2.5693,2.5693,2.5693,2.5693,2.5693,2.5693,2.5996,2.6406,2.6572,2.706,2.7738,2.7851,2.8076,2.8291,3.7947,3.7488,3.696,3.6399,3.5352,3.4358,3.3608,3.2933,3.1946,3.0495,3.0238,2.9535,2.7887,2.7941,2.7635,2.6602,2.6499,2.6499,2.6499,2.6418,2.5824,2.4602,2.4648,2.4743,2.4743,2.3251,2.2296,2.1989,2.1924,2.1907,2.1911,2.1911,2.2199,2.2647,2.2647,2.2351,2.1885,2.1924,2.1943,2.1943,2.1982,2.2002,2.2041,2.2422,2.2568,2.2617,2.2955,2.3091,2.3091,2.3091,2.3091,2.3091,2.3091,2.3113,2.309,2.309,2.309,2.3112,2.3112,2.3092,2.416,2.8696,2.8288,2.6773,2.6785,2.6773,2.7372,2.9374,2.9762,2.9525,2.8928,2.8754,2.863,2.8309,2.8674,2.8963,2.8963,2.9465,2.9792,2.9792,2.9792,2.9792,2.9792,2.9624,2.8685,2.6704,2.5733,2.4849,2.3942,2.4695,2.5135,2.5174,2.5527,2.5693,2.5693,2.5693,2.5693,2.5693,2.5693,2.5693,2.5693,2.5693,2.5693,2.5693,2.5693,2.5693,2.5693,2.5732,2.6055,2.6484,2.6904,2.7344,2.7826,2.8144,2.8291,2.8291,3.7958,3.7174,3.6381,3.5744,3.5044,3.4211,3.2986,3.2109,3.1274,3.0405,2.969,2.8876,2.7835,2.7762,2.7443,2.6602,2.6499,2.6499,2.6499,2.5769,2.5217,2.4898,2.343,2.2664,2.2664,2.2285,2.206,2.1989,2.126,2.1045,2.1392,2.1392,2.163,2.2087,2.2087,2.1993,2.1904,2.2236,2.2373,2.2402,2.2691,2.2818,2.2838,2.2925,2.2955,2.2974,2.3062,2.3091,2.3091,2.3091,2.3091,2.3091,2.3091,2.3096,2.3081,2.3081,2.3113,2.309,2.309,2.3109,2.4177,2.8681,2.9433,2.9075,2.9081,2.9063,2.9237,2.9699,2.9325,2.9067,2.9463,2.9163,2.8976,2.9365,2.9528,2.9603,2.9603,2.9716,2.9792,2.9792,2.9792,2.9792,2.9792,2.8211,2.7136,2.6967,2.523,2.4345,2.4803,2.5018,2.5225,2.5586,2.5635,2.5693,2.5693,2.5693,2.5693,2.5693,2.5693,2.5693,2.5693,2.5693,2.5693,2.5693,2.5693,2.5693,2.5713,2.6103,2.6494,2.6924,2.7353,2.7783,2.8164,2.8262,2.8291,2.8291,3.7684,3.6676,3.574,3.5119,3.426,3.3255,3.2152,3.1317,3.0407,2.9209,2.8652,2.8051,2.7229,2.7129,2.6973,2.6521,2.606,2.5709,2.5578,2.4743,2.3859,2.2937,2.2328,2.1773,2.1336,2.1336,2.1336,2.1336,2.1036,2.1006,2.12,2.1445,2.1777,2.2187,2.2187,2.2295,2.25,2.2715,2.2812,2.2789,2.3003,2.3091,2.3091,2.3091,2.3091,2.3091,2.3091,2.3091,2.3091,2.3091,2.3091,2.3091,2.3091,2.3091,2.3091,2.3091,2.3091,2.3091,2.3091,2.3107,2.4179,2.8684,2.821,2.7167,2.9315,2.9806,2.9806,2.9806,2.9491,2.9328,2.9745,2.9542,2.944,2.9741,2.9792,2.9792,2.9792,2.9792,2.9792,2.9792,2.9792,2.9792,2.9792,2.8478,2.7462,2.7135,2.5899,2.5171,2.5086,2.5273,2.5498,2.5684,2.5693,2.5693,2.5693,2.5693,2.5693,2.5693,2.5693,2.5693,2.5693,2.5693,2.5693,2.5693,2.5693,2.581,2.6064,2.6299,2.6758,2.7344,2.7578,2.792,2.8291,2.8291,2.8291,2.8291,3.7064,3.6027,3.5057,3.4366,3.3219,3.2099,3.1259,3.0407,2.9348,2.7887,2.7571,2.7229,2.6555,2.6499,2.6418,2.6245,2.5476,2.4826,2.4352,2.3652,2.2519,2.0926,2.1432,2.1415,2.0713,2.0684,2.0684,2.0684,2.1055,2.1268,2.1424,2.1826,2.2217,2.2617,2.2617,2.2769,2.3091,2.3091,2.3091,2.3091,2.3091,2.3091,2.3091,2.3091,2.3091,2.3091,2.3091,2.3091,2.3091,2.3091,2.3091,2.3091,2.3091,2.3091,2.3091,2.3091,2.3091,2.3091,2.3091,2.3097,2.4007,2.7742,2.6054,2.4534,2.8518,2.9419,2.9509,2.9753,2.9792,2.9792,2.9792,2.9792,2.9792,2.9792,2.9792,2.9792,2.9792,2.9792,2.9792,2.9792,2.988,2.9852,2.9632,2.9011,2.8203,2.7092,2.6661,2.6046,2.5223,2.5537,2.5693,2.5693,2.5693,2.5693,2.5693,2.5693,2.5693,2.5693,2.5693,2.5693,2.5693,2.5693,2.5693,2.5693,2.5693,2.5986,2.6396,2.6465,2.6963,2.7728,2.7796,2.7988,2.8291,2.8291,2.8291,2.8291,3.5865,3.5142,3.4317,3.3093,3.2109,3.123,3.054,2.9083,2.7953,2.7736,2.7095,2.6624,2.6499,2.6499,2.6129,2.5264,2.5075,2.46,2.3686,2.2728,2.2092,2.1824,2.1135,2.0899,2.1093,2.1103,2.1103,2.1103,2.1161,2.157,2.2344,2.2402,2.2646,2.3013,2.3013,2.3042,2.3091,2.3091,2.3091,2.3091,2.3091,2.3091,2.3091,2.3091,2.3091,2.3091,2.3091,2.3091,2.3091,2.3091,2.3091,2.3091,2.3091,2.3091,2.3091,2.3091,2.3091,2.3091,2.3091,2.3097,2.3253,2.3839,2.4545,2.5579,2.7484,2.7901,2.8266,2.956,2.9792,2.9792,2.9792,2.9792,2.9792,2.9792,2.9792,2.9792,2.9792,2.9792,2.9792,2.9792,3.0218,3.0072,2.9042,2.8399,2.7656,2.6837,2.5862,2.5425,2.5625,2.5654,2.5693,2.5693,2.5693,2.5693,2.5693,2.5693,2.5693,2.5693,2.5693,2.5693,2.5693,2.5693,2.5693,2.5693,2.5693,2.5986,2.6416,2.6787,2.7217,2.7748,2.8066,2.8242,2.8291,2.8291,2.8291,2.8291,3.5628,3.4677,3.3735,3.2776,3.1577,3.0481,2.969,2.8524,2.7537,2.7095,2.6714,2.628,2.5734,2.5652,2.5252,2.4264,2.4156,2.3745,2.2739,2.1745,2.1231,2.1231,2.1026,2.1035,2.119,2.1475,2.1719,2.1953,2.1953,2.2139,2.2519,2.2711,2.2916,2.3091,2.3091,2.3091,2.3091,2.3091,2.3091,2.3091,2.3091,2.3091,2.3091,2.3091,2.3091,2.3091,2.3091,2.3091,2.3091,2.3091,2.3091,2.3091,2.3091,2.3091,2.3091,2.3091,2.3091,2.3091,2.3091,2.3114,2.3083,2.3083,2.3629,2.4745,2.7085,2.7273,2.7515,2.9404,2.9792,2.9792,2.9792,2.9792,2.9792,2.9792,2.9792,2.9792,2.9792,2.9792,2.9905,3.0218,3.047,3.0508,3.027,2.9048,2.8121,2.7802,2.6306,2.5527,2.5674,2.5693,2.5693,2.5693,2.5693,2.5693,2.5693,2.5693,2.5693,2.5693,2.5693,2.5693,2.5693,2.5693,2.5693,2.5703,2.5996,2.6348,2.6768,2.7197,2.7637,2.8037,2.8223,2.8291,2.8291,2.8291,2.8291,2.8291]}]]